[[{"header":{"parameterUnit":"m.s-1","parameterCategory":1,"la1":31.0,"la2":29.5877,"lo1":-88.7671,"lo2":-86.6584,"dy":0.0162,"dx":0.0185,"nx":115,"ny":88,"refTime":"2023-05-15T12:00:00:Z","depth":0,"parameterNumber":2,"parameterNumberName":"U-component_of_WINDS"},"data":[0.0,0.0,0.0,0.0,0.0,0.0,0.0,0.0,0.0,0.0,0.0,0.0,0.0,0.0,0.0,0.0,0.0,0.0,0.0,0.0,0.0,0.0,0.0,0.0,0.0,0.0,0.0,0.0,0.0,0.0,0.0,0.0,0.0,0.0,0.0,0.0,0.0,0.0,0.0,0.0,0.0,0.0,0.0,0.0,0.0,0.0,0.0,0.0,0.0,0.0,0.0,0.0,0.0,0.0,0.0,0.0,0.0,0.0,0.0,0.0,0.0,0.0,0.0,0.0,0.0,0.0,0.0,0.0,0.0,0.0,0.0,0.0,0.0,0.0,0.0,0.0,0.0,0.0,0.0,0.0,0.0,0.0,0.0,0.0,0.0,0.0,0.0,0.0,0.0,0.0,0.0,0.0,0.0,0.0,0.0,0.0,0.0,0.0,0.0,0.0,0.0,0.0,0.0,0.0,0.0,0.0,0.0,0.0,0.0,0.0,0.0,0.0,0.0,0.0,0.0,0.0,0.0,0.0,0.0,0.0,0.0,0.0,0.0,0.0,0.0,0.0,0.0,0.0,0.0,0.0,0.0,0.0,0.0,0.0,0.0,0.0,0.0,0.0,0.0,0.0,0.0,0.0,0.0,0.0,0.0,0.0,0.0,0.0,0.0,0.0,0.0,0.0,0.0,0.0,0.0,0.0,0.0,0.0,0.0,0.0,0.0,0.0,0.0,0.0,0.0,0.0,0.0,0.0,0.0,0.0,0.0,0.0,0.0,0.0,0.0,0.0,0.0,0.0,0.0,0.0,0.0,0.0,0.0,0.0,0.0,0.0,0.0,0.0,0.0,0.0,0.0,0.0,0.0,0.0,0.0,0.0,0.0,0.0,0.0,0.0,0.0,0.0,0.0,0.0,0.0,0.0,0.0,0.0,0.0,0.0,0.0,0.0,0.0,0.0,0.0,0.0,0.0,0.0,0.0,0.0,0.0,0.0,0.0,0.0,0.0,0.0,0.0,0.0,0.0,0.0,0.0,0.0,0.0,0.0,0.0,0.0,0.0,0.0,0.0,0.0,0.0,0.0,0.0,0.0,0.0,0.0,0.0,0.0,0.0,0.0,0.0,0.0,0.0,0.0,0.0,0.0,0.0,0.0,0.0,0.0,0.0,0.0,0.0,0.0,0.0,0.0,0.0,0.0,0.0,0.0,0.0,0.0,0.0,0.0,0.0,0.0,0.0,0.0,0.0,0.0,0.0,0.0,0.0,0.0,0.0,0.0,0.0,0.0,0.0,0.0,0.0,0.0,0.0,0.0,0.0,0.0,0.0,0.0,0.0,0.0,0.0,0.0,0.0,0.0,0.0,0.0,0.0,0.0,0.0,0.0,0.0,0.0,0.0,0.0,0.0,0.0,0.0,0.0,0.0,0.0,0.0,0.0,0.0,0.0,0.0,0.0,0.0,0.0,0.0,0.0,0.0,0.0,0.0,0.0,0.0,0.0,0.0,0.0,0.0,0.0,0.0,0.0,0.0,0.0,0.0,0.0,0.0,0.0,0.0,0.0,0.0,0.0,0.0,0.0,0.0,0.0,0.0,0.0,0.0,0.0,0.0,0.0,0.0,0.0,0.0,0.0,0.0,0.0,0.0,0.0,0.0,0.0,0.0,0.0,0.0,0.0,0.0,0.0,0.0,0.0,0.0,0.0,0.0,0.0,0.0,0.0,0.0,0.0,0.0,0.0,0.0,0.0,0.0,0.0,0.0,0.0,0.0,0.0,0.0,0.0,0.0,0.0,0.0,0.0,0.0,0.0,0.0,0.0,0.0,0.0,0.0,0.0,0.0,0.0,0.0,0.0,0.0,0.0,0.0,0.0,0.0,0.0,0.0,0.0,0.0,0.0,0.0,0.0,0.0,0.0,0.0,0.0,0.0,0.0,0.0,0.0,0.0,0.0,0.0,0.0,0.0,0.0,0.0,0.0,0.0,0.0,0.0,0.0,0.0,0.0,0.0,0.0,0.0,0.0,0.0,0.0,0.0,0.0,0.0,0.0,0.0,0.0,0.0,0.0,0.0,0.0,0.0,0.0,0.0,0.0,0.0,0.0,0.0,0.0,0.0,0.0,0.0,0.0,0.0,0.0,0.0,0.0,0.0,0.0,0.0,0.0,0.0,0.0,0.0,0.0,0.0,0.0,0.0,0.0,0.0,0.0,0.0,0.0,0.0,0.0,0.0,0.0,0.0,0.0,0.0,0.0,0.0,0.0,0.0,0.0,0.0,0.0,0.0,0.0,0.0,0.0,0.0,0.0,0.0,0.0,0.0,0.0,0.0,0.0,0.0,0.0,0.0,0.0,0.0,0.0,0.0,0.0,0.0,0.0,0.0,0.0,0.0,0.0,0.0,0.0,0.0,0.0,0.0,0.0,0.0,0.0,0.0,0.0,0.0,0.0,0.0,0.0,0.0,0.0,0.0,0.0,0.0,0.0,0.0,0.0,0.0,0.0,0.0,0.0,0.0,0.0,0.0,0.0,0.0,0.0,0.0,0.0,0.0,0.0,0.0,0.0,0.0,0.0,0.0,0.0,0.0,0.0,0.0,0.0,0.0,0.0,0.0,0.0,0.0,0.0,0.0,0.0,0.0,0.0,0.0,0.0,0.0,0.0,0.0,0.0,0.0,0.0,0.0,0.0,0.0,0.0,0.0,0.0,0.0,0.0,0.0,0.0,0.0,0.0,0.0,0.0,0.0,0.0,0.0,0.0,0.0,0.0,0.0,0.0,0.0,0.0,0.0,0.0,0.0,0.0,0.0,0.0,0.0,0.0,0.0,0.0,0.0,0.0,0.0,0.0,0.0,0.0,0.0,0.0,0.0,0.0,0.0,0.0,0.0,0.0,0.0,0.0,0.0,0.0,0.0,0.0,0.0,0.0,0.0,0.0,0.0,0.0,0.0,0.0,0.0,0.0,0.0,0.0,0.0,0.0,0.0,0.0,0.0,0.0,0.0,0.0,0.0,0.0,0.0,0.0,0.0,0.0,0.0,0.0,0.0,0.0,0.0,0.0,0.0,0.0,0.0,0.0,0.0,0.0,0.0,0.0,0.0,0.0,0.0,0.0,0.0,0.0,0.0,0.0,0.0,0.0,0.0,0.0,0.0,0.0,0.0,0.0,0.0,0.0,0.0,0.0,0.0,0.0,0.0,0.0,0.0,0.0,0.0,0.0,0.0,0.0,0.0,0.0,0.0,0.0,0.0,0.0,0.0,0.0,0.0,0.0,0.0,0.0,0.0,0.0,0.0,0.0,0.0,0.0,0.0,0.0,0.0,0.0,0.0,0.0,0.0,0.0,0.0,0.0,0.0,0.0,0.0,0.0,0.0,0.0,0.0,0.0,0.0,0.0,0.0,0.0,0.0,0.0,0.0,0.0,0.0,0.0,0.0,0.0,0.0,0.0,0.0,0.0,0.0,0.0,0.0,0.0,0.0,0.0,0.0,0.0,0.0,0.0,0.0,0.0,0.0,0.0,0.0,0.0,0.0,0.0,0.0,0.0,0.0,0.0,0.0,0.0,0.0,0.0,0.0,0.0,0.0,0.0,0.0,0.0,0.0,0.0,0.0,0.0,0.0,0.0,0.0,0.0,0.0,0.0,0.0,0.0,0.0,0.0,0.0,0.0,0.0,0.0,0.0,0.0,0.0,0.0,0.0,0.0,0.0,0.0,0.0,0.0,0.0,0.0,0.0,0.0,0.0,0.0,0.0,0.0,0.0,0.0,0.0,0.0,0.0,0.0,0.0,0.0,0.0,0.0,0.0,0.0,0.0,0.0,0.0,0.0,0.0,0.0,0.0,0.0,0.0,0.0,0.0,0.0,0.0,0.0,0.0,0.0,0.0,0.0,0.0,0.0,0.0,0.0,0.0,0.0,0.0,0.0,0.0,0.0,0.0,0.0,0.0,0.0,0.0,0.0,0.0,0.0,0.0,0.0,0.0,0.0,0.0,0.0,0.0,0.0,0.0,0.0,0.0,0.0,0.0,0.0,0.0,0.0,0.0,0.0,0.0,0.0,0.0,0.0,0.0,0.0,0.0,0.0,0.0,0.0,0.0,0.0,0.0,0.0,0.0,0.0,0.0,0.0,0.0,0.0,0.0,0.0,0.0,0.0,0.0,0.0,0.0,0.0,0.0,0.0,0.0,0.0,0.0,0.0,0.0,0.0,0.0,0.0,0.0,0.0,0.0,0.0,0.0,0.0,0.0,0.0,0.0,0.0,0.0,0.0,0.0,0.0,0.0,0.0,-2.3159,0.0,0.0,0.0,0.0,0.0,0.0,0.0,0.0,0.0,0.0,0.0,0.0,0.0,0.0,0.0,0.0,0.0,0.0,0.0,0.0,0.0,0.0,0.0,0.0,0.0,0.0,0.0,0.0,0.0,0.0,0.0,0.0,0.0,0.0,0.0,0.0,0.0,0.0,0.0,0.0,0.0,0.0,0.0,0.0,0.0,0.0,0.0,0.0,0.0,0.0,0.0,0.0,0.0,0.0,0.0,0.0,0.0,0.0,0.0,0.0,0.0,0.0,0.0,0.0,0.0,0.0,0.0,0.0,0.0,0.0,0.0,0.0,0.0,0.0,0.0,0.0,0.0,0.0,0.0,0.0,0.0,0.0,0.0,0.0,0.0,0.0,0.0,0.0,0.0,0.0,0.0,0.0,0.0,0.0,0.0,0.0,0.0,0.0,0.0,0.0,0.0,0.0,0.0,0.0,0.0,0.0,0.0,0.0,0.0,0.0,-2.5031,-2.5332,-2.5004,-2.4849,-2.4855,0.0,0.0,0.0,0.0,0.0,0.0,0.0,0.0,0.0,0.0,0.0,0.0,0.0,0.0,0.0,0.0,0.0,0.0,0.0,0.0,0.0,0.0,0.0,0.0,0.0,0.0,0.0,0.0,0.0,0.0,0.0,0.0,0.0,0.0,0.0,0.0,0.0,0.0,0.0,0.0,0.0,0.0,0.0,0.0,0.0,0.0,0.0,0.0,0.0,0.0,0.0,0.0,0.0,0.0,0.0,0.0,0.0,0.0,0.0,0.0,0.0,0.0,0.0,0.0,0.0,0.0,0.0,0.0,0.0,0.0,0.0,0.0,0.0,0.0,0.0,0.0,0.0,0.0,0.0,0.0,0.0,0.0,0.0,0.0,0.0,0.0,0.0,0.0,0.0,0.0,0.0,0.0,0.0,0.0,0.0,0.0,0.0,0.0,0.0,0.0,0.0,0.0,0.0,0.0,0.0,0.0,0.0,0.0,0.0,0.0,0.0,0.0,-2.7292,-2.6522,-2.5757,0.0,0.0,0.0,0.0,0.0,0.0,0.0,0.0,0.0,0.0,0.0,0.0,0.0,0.0,0.0,0.0,0.0,0.0,0.0,0.0,0.0,0.0,0.0,0.0,0.0,0.0,0.0,0.0,0.0,0.0,0.0,0.0,0.0,0.0,0.0,0.0,0.0,0.0,0.0,0.0,0.0,0.0,0.0,0.0,0.0,0.0,0.0,0.0,0.0,0.0,0.0,0.0,0.0,0.0,0.0,0.0,0.0,0.0,0.0,0.0,0.0,0.0,0.0,0.0,0.0,0.0,0.0,0.0,0.0,0.0,0.0,0.0,0.0,0.0,0.0,0.0,0.0,0.0,0.0,0.0,0.0,0.0,0.0,0.0,0.0,0.0,0.0,0.0,0.0,0.0,0.0,0.0,0.0,0.0,0.0,0.0,0.0,0.0,0.0,0.0,0.0,0.0,0.0,0.0,0.0,0.0,0.0,0.0,0.0,0.0,-2.9193,-2.9996,-2.9191,0.0,-2.4843,0.0,0.0,0.0,0.0,0.0,0.0,0.0,0.0,0.0,0.0,0.0,0.0,0.0,0.0,0.0,0.0,0.0,0.0,0.0,0.0,0.0,0.0,0.0,0.0,0.0,0.0,0.0,0.0,0.0,0.0,0.0,0.0,0.0,0.0,0.0,0.0,0.0,0.0,0.0,0.0,0.0,0.0,0.0,0.0,0.0,0.0,0.0,0.0,0.0,0.0,0.0,0.0,0.0,0.0,0.0,0.0,0.0,0.0,0.0,0.0,0.0,0.0,0.0,0.0,0.0,0.0,0.0,0.0,0.0,0.0,0.0,0.0,0.0,0.0,0.0,0.0,0.0,0.0,0.0,0.0,0.0,0.0,0.0,0.0,0.0,0.0,0.0,0.0,0.0,0.0,0.0,0.0,0.0,0.0,0.0,0.0,0.0,0.0,0.0,0.0,0.0,0.0,0.0,0.0,0.0,0.0,0.0,0.0,0.0,0.0,-3.0396,-3.0715,-2.9492,-2.7894,0.0,0.0,0.0,0.0,0.0,0.0,0.0,0.0,0.0,0.0,0.0,0.0,0.0,0.0,0.0,0.0,0.0,0.0,0.0,0.0,0.0,0.0,0.0,0.0,0.0,0.0,0.0,0.0,0.0,0.0,0.0,0.0,0.0,0.0,0.0,0.0,0.0,0.0,0.0,0.0,0.0,0.0,0.0,0.0,0.0,0.0,0.0,0.0,0.0,0.0,0.0,0.0,0.0,0.0,0.0,0.0,0.0,0.0,0.0,0.0,0.0,0.0,0.0,0.0,0.0,0.0,0.0,0.0,0.0,0.0,0.0,0.0,0.0,0.0,0.0,0.0,0.0,0.0,0.0,0.0,0.0,0.0,0.0,0.0,0.0,0.0,0.0,0.0,0.0,0.0,0.0,0.0,0.0,0.0,0.0,0.0,0.0,0.0,0.0,0.0,0.0,0.0,0.0,0.0,0.0,0.0,0.0,0.0,0.0,0.0,-3.0694,-3.1177,-3.097,-3.0256,-2.8821,-2.6588,0.0,0.0,0.0,0.0,0.0,0.0,0.0,0.0,0.0,0.0,0.0,0.0,0.0,0.0,0.0,0.0,0.0,0.0,0.0,0.0,0.0,0.0,0.0,0.0,0.0,0.0,0.0,0.0,0.0,0.0,0.0,0.0,0.0,0.0,0.0,0.0,0.0,0.0,0.0,0.0,0.0,0.0,0.0,0.0,0.0,0.0,0.0,0.0,0.0,0.0,0.0,0.0,0.0,0.0,0.0,0.0,0.0,0.0,0.0,0.0,0.0,0.0,0.0,0.0,0.0,0.0,0.0,0.0,0.0,0.0,0.0,0.0,0.0,0.0,0.0,0.0,0.0,0.0,0.0,0.0,0.0,0.0,0.0,0.0,0.0,0.0,0.0,0.0,0.0,0.0,0.0,0.0,0.0,0.0,0.0,0.0,0.0,0.0,0.0,0.0,0.0,0.0,0.0,0.0,0.0,0.0,0.0,0.0,-3.1438,-3.1652,-3.1472,-3.1097,-3.2107,-3.0522,0.0,0.0,0.0,0.0,0.0,0.0,0.0,0.0,0.0,0.0,0.0,0.0,0.0,0.0,0.0,0.0,0.0,0.0,0.0,0.0,0.0,0.0,0.0,0.0,0.0,0.0,0.0,0.0,0.0,0.0,0.0,0.0,0.0,0.0,0.0,0.0,0.0,0.0,0.0,0.0,0.0,0.0,0.0,0.0,0.0,0.0,0.0,0.0,0.0,0.0,0.0,0.0,0.0,0.0,0.0,0.0,0.0,0.0,0.0,0.0,0.0,0.0,0.0,0.0,0.0,0.0,0.0,0.0,0.0,0.0,0.0,0.0,0.0,0.0,0.0,0.0,0.0,0.0,0.0,0.0,0.0,0.0,0.0,0.0,0.0,0.0,0.0,0.0,0.0,0.0,0.0,0.0,0.0,0.0,0.0,0.0,0.0,0.0,0.0,0.0,0.0,0.0,0.0,0.0,0.0,0.0,0.0,0.0,0.0,-3.1773,-3.2823,-3.3164,-3.2863,-3.2347,-3.0838,0.0,0.0,0.0,0.0,0.0,0.0,0.0,0.0,0.0,0.0,0.0,0.0,0.0,0.0,0.0,0.0,0.0,0.0,0.0,0.0,0.0,0.0,0.0,0.0,0.0,0.0,0.0,0.0,0.0,0.0,0.0,0.0,0.0,0.0,0.0,0.0,0.0,0.0,0.0,0.0,0.0,0.0,0.0,0.0,0.0,0.0,0.0,0.0,0.0,0.0,0.0,0.0,0.0,0.0,0.0,0.0,0.0,0.0,0.0,0.0,0.0,0.0,0.0,0.0,0.0,0.0,0.0,0.0,0.0,0.0,0.0,0.0,0.0,0.0,0.0,0.0,0.0,0.0,0.0,0.0,0.0,0.0,0.0,0.0,0.0,0.0,0.0,0.0,0.0,0.0,0.0,0.0,0.0,0.0,0.0,0.0,0.0,0.0,0.0,0.0,0.0,0.0,0.0,0.0,0.0,0.0,0.0,0.0,0.0,-3.2787,0.0,-3.5166,-3.4384,-3.3279,-3.1652,0.0,0.0,0.0,0.0,0.0,0.0,0.0,0.0,0.0,0.0,0.0,0.0,0.0,0.0,0.0,0.0,0.0,0.0,0.0,0.0,0.0,0.0,0.0,0.0,0.0,0.0,0.0,0.0,0.0,0.0,0.0,0.0,0.0,0.0,0.0,0.0,0.0,0.0,0.0,0.0,0.0,0.0,0.0,0.0,0.0,0.0,0.0,0.0,0.0,0.0,0.0,0.0,0.0,0.0,0.0,0.0,0.0,0.0,0.0,0.0,0.0,0.0,0.0,0.0,0.0,0.0,0.0,0.0,0.0,0.0,0.0,0.0,0.0,0.0,0.0,0.0,0.0,0.0,0.0,0.0,0.0,0.0,0.0,0.0,0.0,0.0,0.0,0.0,0.0,0.0,0.0,0.0,0.0,0.0,0.0,0.0,0.0,0.0,0.0,0.0,0.0,0.0,0.0,0.0,0.0,0.0,0.0,0.0,-3.1162,-3.4605,-3.7028,-3.735,-3.5527,-3.5021,-3.3162,0.0,0.0,0.0,0.0,0.0,0.0,0.0,0.0,0.0,0.0,0.0,0.0,0.0,0.0,0.0,0.0,0.0,0.0,0.0,0.0,0.0,0.0,0.0,0.0,0.0,0.0,0.0,0.0,0.0,0.0,0.0,0.0,0.0,0.0,0.0,0.0,0.0,0.0,0.0,0.0,0.0,0.0,0.0,0.0,0.0,0.0,0.0,0.0,0.0,0.0,0.0,0.0,0.0,0.0,0.0,0.0,0.0,0.0,0.0,0.0,0.0,0.0,0.0,0.0,0.0,0.0,0.0,0.0,0.0,0.0,0.0,0.0,0.0,0.0,0.0,0.0,0.0,0.0,0.0,0.0,0.0,0.0,0.0,0.0,0.0,0.0,0.0,0.0,0.0,0.0,0.0,0.0,0.0,0.0,0.0,0.0,0.0,0.0,0.0,0.0,0.0,0.0,0.0,0.0,0.0,0.0,0.0,0.0,0.0,-3.6405,-3.8283,-3.8967,-3.8287,-3.6569,-3.4414,0.0,0.0,0.0,0.0,0.0,0.0,0.0,0.0,0.0,0.0,0.0,0.0,0.0,0.0,0.0,0.0,0.0,0.0,0.0,0.0,0.0,0.0,0.0,0.0,0.0,0.0,0.0,0.0,0.0,0.0,0.0,0.0,0.0,0.0,0.0,0.0,0.0,0.0,0.0,0.0,0.0,0.0,0.0,0.0,0.0,0.0,0.0,0.0,0.0,0.0,0.0,0.0,0.0,0.0,0.0,0.0,0.0,0.0,0.0,0.0,0.0,0.0,0.0,0.0,0.0,0.0,0.0,0.0,0.0,0.0,0.0,0.0,0.0,0.0,0.0,0.0,0.0,0.0,0.0,0.0,0.0,0.0,0.0,0.0,0.0,0.0,0.0,0.0,0.0,0.0,0.0,0.0,0.0,0.0,0.0,0.0,0.0,0.0,0.0,0.0,0.0,0.0,0.0,0.0,0.0,0.0,0.0,0.0,0.0,-4.0464,-4.1224,-4.1237,-4.051,-3.8618,-3.6198,-3.325,0.0,0.0,0.0,0.0,0.0,0.0,0.0,0.0,0.0,0.0,0.0,0.0,0.0,0.0,0.0,0.0,0.0,0.0,0.0,0.0,0.0,0.0,0.0,0.0,0.0,0.0,0.0,0.0,0.0,0.0,0.0,0.0,0.0,0.0,0.0,0.0,0.0,0.0,0.0,0.0,0.0,0.0,0.0,0.0,0.0,0.0,0.0,0.0,0.0,0.0,0.0,0.0,0.0,0.0,0.0,0.0,0.0,0.0,0.0,0.0,0.0,0.0,0.0,0.0,0.0,0.0,0.0,0.0,0.0,0.0,0.0,0.0,0.0,0.0,0.0,0.0,0.0,0.0,0.0,0.0,0.0,0.0,0.0,0.0,0.0,0.0,0.0,0.0,0.0,0.0,0.0,0.0,0.0,0.0,0.0,0.0,0.0,0.0,0.0,0.0,0.0,0.0,0.0,0.0,0.0,0.0,0.0,0.0,-4.6187,-4.5523,-4.427,-4.2438,-4.1152,-3.8536,0.0,0.0,0.0,0.0,0.0,0.0,0.0,0.0,0.0,0.0,0.0,0.0,0.0,0.0,0.0,0.0,0.0,0.0,0.0,0.0,0.0,0.0,0.0,0.0,0.0,0.0,0.0,0.0,0.0,0.0,0.0,0.0,0.0,0.0,0.0,0.0,0.0,0.0,0.0,0.0,0.0,0.0,0.0,0.0,0.0,0.0,0.0,0.0,0.0,0.0,0.0,0.0,0.0,0.0,0.0,0.0,0.0,0.0,0.0,0.0,0.0,0.0,0.0,0.0,0.0,0.0,0.0,0.0,0.0,0.0,0.0,0.0,0.0,0.0,0.0,0.0,0.0,0.0,0.0,0.0,0.0,0.0,0.0,0.0,0.0,0.0,0.0,0.0,0.0,0.0,0.0,0.0,0.0,0.0,0.0,0.0,0.0,0.0,0.0,0.0,0.0,0.0,0.0,0.0,0.0,0.0,0.0,0.0,0.0,-4.7807,-4.8956,-4.8487,-4.6457,-4.4234,-4.1032,0.0,0.0,0.0,0.0,0.0,0.0,0.0,0.0,0.0,0.0,0.0,0.0,0.0,0.0,0.0,0.0,0.0,0.0,0.0,0.0,0.0,0.0,0.0,0.0,0.0,0.0,0.0,0.0,0.0,0.0,0.0,0.0,0.0,0.0,0.0,0.0,0.0,0.0,0.0,0.0,0.0,0.0,0.0,0.0,0.0,0.0,0.0,0.0,0.0,0.0,0.0,0.0,0.0,0.0,0.0,0.0,0.0,0.0,0.0,0.0,0.0,0.0,0.0,0.0,0.0,0.0,0.0,0.0,0.0,0.0,0.0,0.0,0.0,0.0,0.0,0.0,0.0,0.0,0.0,0.0,0.0,0.0,0.0,0.0,0.0,0.0,0.0,0.0,0.0,0.0,0.0,0.0,0.0,0.0,0.0,0.0,0.0,0.0,0.0,0.0,0.0,0.0,0.0,0.0,0.0,0.0,0.0,0.0,-4.4527,-4.858,-5.0614,-5.1063,-4.9913,-4.7127,-4.3384,0.0,0.0,0.0,0.0,0.0,0.0,0.0,0.0,0.0,0.0,0.0,0.0,0.0,0.0,0.0,0.0,0.0,0.0,0.0,0.0,0.0,0.0,0.0,0.0,0.0,0.0,0.0,0.0,0.0,0.0,0.0,0.0,0.0,0.0,0.0,0.0,0.0,0.0,0.0,0.0,0.0,0.0,0.0,0.0,0.0,0.0,0.0,0.0,0.0,0.0,0.0,0.0,0.0,0.0,0.0,0.0,0.0,0.0,0.0,0.0,0.0,0.0,0.0,0.0,0.0,0.0,0.0,0.0,0.0,0.0,0.0,0.0,0.0,0.0,0.0,0.0,0.0,0.0,0.0,0.0,0.0,0.0,0.0,0.0,0.0,0.0,0.0,0.0,0.0,0.0,0.0,0.0,0.0,0.0,0.0,0.0,0.0,0.0,0.0,0.0,0.0,0.0,0.0,0.0,0.0,0.0,0.0,0.0,-4.5937,-4.856,-5.0961,-5.2268,-5.2298,-4.9455,-4.5466,0.0,0.0,0.0,0.0,0.0,0.0,0.0,0.0,0.0,0.0,0.0,0.0,0.0,0.0,0.0,0.0,0.0,0.0,0.0,0.0,0.0,0.0,0.0,0.0,0.0,0.0,0.0,0.0,0.0,0.0,0.0,0.0,0.0,0.0,0.0,0.0,0.0,0.0,0.0,0.0,0.0,0.0,0.0,0.0,0.0,0.0,0.0,0.0,0.0,0.0,0.0,0.0,0.0,0.0,0.0,0.0,0.0,0.0,0.0,0.0,0.0,0.0,0.0,0.0,0.0,0.0,0.0,0.0,0.0,0.0,0.0,0.0,0.0,0.0,0.0,0.0,0.0,0.0,0.0,0.0,0.0,0.0,0.0,0.0,0.0,0.0,0.0,0.0,0.0,0.0,0.0,0.0,0.0,0.0,0.0,0.0,0.0,0.0,0.0,0.0,0.0,0.0,0.0,0.0,0.0,0.0,0.0,0.0,-4.5372,-4.8581,-5.0248,-5.1221,-5.1529,-4.9127,-4.6114,0.0,0.0,0.0,0.0,0.0,0.0,0.0,0.0,0.0,0.0,0.0,0.0,0.0,0.0,0.0,0.0,0.0,0.0,0.0,0.0,0.0,0.0,0.0,0.0,0.0,0.0,0.0,0.0,0.0,0.0,0.0,0.0,0.0,0.0,0.0,0.0,0.0,0.0,0.0,0.0,0.0,0.0,0.0,0.0,0.0,0.0,0.0,0.0,-3.9381,0.0,0.0,0.0,0.0,0.0,0.0,0.0,0.0,0.0,0.0,0.0,0.0,0.0,0.0,0.0,0.0,0.0,0.0,0.0,0.0,0.0,0.0,0.0,0.0,0.0,0.0,0.0,0.0,0.0,0.0,0.0,0.0,0.0,0.0,0.0,0.0,0.0,0.0,0.0,0.0,0.0,0.0,0.0,0.0,0.0,0.0,0.0,0.0,0.0,0.0,0.0,0.0,0.0,0.0,0.0,0.0,0.0,0.0,0.0,-4.5058,-4.7262,-4.9502,-5.0813,-5.1097,-4.9137,-4.6506,0.0,0.0,0.0,0.0,0.0,0.0,0.0,0.0,0.0,0.0,0.0,0.0,0.0,0.0,0.0,0.0,0.0,0.0,0.0,0.0,0.0,0.0,0.0,0.0,0.0,0.0,0.0,0.0,0.0,0.0,0.0,0.0,0.0,0.0,0.0,0.0,0.0,0.0,0.0,0.0,0.0,0.0,0.0,0.0,0.0,0.0,0.0,0.0,0.0,0.0,0.0,0.0,0.0,0.0,0.0,0.0,0.0,0.0,0.0,0.0,0.0,0.0,0.0,0.0,0.0,0.0,0.0,0.0,0.0,0.0,0.0,0.0,0.0,0.0,0.0,0.0,0.0,0.0,0.0,0.0,0.0,0.0,0.0,0.0,0.0,0.0,0.0,0.0,0.0,0.0,0.0,0.0,0.0,0.0,0.0,0.0,0.0,0.0,0.0,0.0,0.0,0.0,0.0,0.0,0.0,0.0,0.0,-4.2217,-4.477,-4.5725,-4.8601,-5.0371,-5.0825,-4.9164,-4.6589,-4.3178,0.0,0.0,0.0,0.0,0.0,0.0,0.0,0.0,0.0,0.0,0.0,0.0,0.0,0.0,0.0,0.0,0.0,0.0,0.0,0.0,0.0,0.0,0.0,0.0,0.0,0.0,0.0,0.0,0.0,0.0,0.0,0.0,0.0,0.0,0.0,0.0,0.0,0.0,-3.4202,-3.7464,0.0,0.0,0.0,0.0,0.0,0.0,0.0,0.0,-4.1512,0.0,0.0,0.0,0.0,0.0,0.0,0.0,0.0,0.0,0.0,0.0,0.0,0.0,0.0,0.0,0.0,0.0,0.0,0.0,0.0,0.0,0.0,0.0,0.0,0.0,0.0,0.0,0.0,0.0,0.0,0.0,0.0,0.0,0.0,0.0,0.0,0.0,0.0,0.0,0.0,0.0,0.0,0.0,0.0,0.0,0.0,0.0,0.0,0.0,0.0,0.0,0.0,0.0,0.0,0.0,0.0,-3.7241,-4.1422,-4.4229,-4.5519,-4.7199,-4.8667,-4.974,-4.857,-4.632,-4.3069,0.0,0.0,0.0,0.0,0.0,0.0,0.0,0.0,0.0,0.0,0.0,0.0,0.0,0.0,0.0,0.0,0.0,0.0,0.0,0.0,0.0,0.0,0.0,0.0,0.0,0.0,0.0,0.0,0.0,0.0,0.0,0.0,0.0,0.0,0.0,0.0,0.0,0.0,0.0,-4.0075,-4.0965,0.0,0.0,0.0,0.0,0.0,0.0,0.0,0.0,-4.3459,0.0,0.0,0.0,0.0,0.0,0.0,0.0,0.0,0.0,0.0,0.0,0.0,0.0,0.0,0.0,0.0,0.0,0.0,0.0,0.0,0.0,0.0,0.0,0.0,0.0,0.0,0.0,0.0,0.0,0.0,0.0,0.0,0.0,0.0,0.0,0.0,0.0,0.0,0.0,0.0,0.0,0.0,0.0,0.0,0.0,0.0,0.0,0.0,0.0,0.0,0.0,0.0,0.0,0.0,0.0,-3.7653,-4.0945,-4.3313,-4.4613,-4.6026,-4.7324,-4.8434,-4.7551,-4.5788,0.0,0.0,0.0,0.0,0.0,0.0,0.0,0.0,0.0,0.0,0.0,0.0,0.0,0.0,0.0,0.0,0.0,0.0,0.0,0.0,0.0,0.0,0.0,0.0,0.0,0.0,0.0,0.0,0.0,0.0,0.0,0.0,0.0,0.0,0.0,0.0,0.0,0.0,0.0,0.0,-4.1266,-4.3133,-4.5442,0.0,0.0,0.0,0.0,0.0,0.0,-4.5606,-4.4056,0.0,0.0,0.0,0.0,0.0,0.0,0.0,0.0,0.0,0.0,0.0,0.0,0.0,0.0,0.0,0.0,0.0,0.0,0.0,0.0,0.0,0.0,0.0,0.0,0.0,0.0,0.0,0.0,0.0,0.0,0.0,0.0,0.0,0.0,0.0,0.0,0.0,0.0,0.0,0.0,0.0,0.0,0.0,0.0,0.0,0.0,0.0,0.0,0.0,0.0,0.0,0.0,0.0,0.0,0.0,-3.8272,-4.0735,-4.2507,-4.3592,-4.5009,-4.6171,-4.7064,-4.648,-4.515,0.0,0.0,0.0,0.0,0.0,0.0,0.0,0.0,0.0,0.0,0.0,0.0,0.0,0.0,0.0,0.0,0.0,0.0,0.0,0.0,0.0,0.0,0.0,0.0,0.0,0.0,0.0,0.0,0.0,0.0,0.0,0.0,0.0,0.0,0.0,0.0,0.0,0.0,0.0,0.0,0.0,-4.5404,-4.8378,-4.7109,0.0,0.0,0.0,0.0,-4.6424,-4.5954,0.0,0.0,0.0,0.0,0.0,0.0,0.0,0.0,0.0,0.0,0.0,0.0,0.0,0.0,0.0,0.0,0.0,0.0,0.0,0.0,0.0,0.0,0.0,0.0,0.0,0.0,0.0,0.0,0.0,0.0,0.0,0.0,0.0,0.0,0.0,0.0,0.0,0.0,0.0,0.0,0.0,0.0,0.0,0.0,0.0,0.0,0.0,0.0,0.0,0.0,0.0,0.0,0.0,0.0,0.0,0.0,-3.8796,-4.0903,-4.229,-4.2931,-4.4246,-4.5176,-4.5699,-4.5699,-4.4533,0.0,0.0,0.0,0.0,0.0,0.0,0.0,0.0,0.0,0.0,0.0,0.0,0.0,0.0,0.0,0.0,0.0,0.0,0.0,0.0,0.0,0.0,0.0,0.0,0.0,0.0,0.0,0.0,0.0,0.0,0.0,0.0,0.0,0.0,0.0,0.0,0.0,0.0,0.0,0.0,0.0,-4.6972,-4.9572,-4.8088,-4.6746,0.0,0.0,-4.8093,-4.974,-4.963,0.0,0.0,0.0,0.0,0.0,0.0,0.0,0.0,0.0,0.0,0.0,0.0,0.0,0.0,0.0,0.0,0.0,0.0,0.0,0.0,0.0,0.0,0.0,0.0,0.0,0.0,0.0,0.0,0.0,0.0,0.0,0.0,0.0,0.0,0.0,0.0,0.0,0.0,0.0,0.0,0.0,0.0,0.0,0.0,0.0,0.0,0.0,0.0,0.0,0.0,0.0,0.0,0.0,0.0,0.0,-3.6478,-3.8685,-4.0299,-4.1143,-4.1252,-4.2558,-4.3176,-4.2964,-4.3607,-4.3082,0.0,0.0,0.0,0.0,0.0,0.0,0.0,0.0,0.0,0.0,0.0,0.0,0.0,0.0,0.0,0.0,0.0,0.0,0.0,0.0,0.0,0.0,0.0,0.0,0.0,0.0,0.0,0.0,0.0,0.0,0.0,0.0,0.0,0.0,0.0,0.0,0.0,0.0,0.0,0.0,0.0,0.0,-4.9558,-4.9206,0.0,0.0,0.0,-4.8387,-4.8308,0.0,0.0,0.0,0.0,0.0,0.0,0.0,0.0,0.0,0.0,0.0,0.0,0.0,0.0,0.0,0.0,0.0,0.0,0.0,0.0,0.0,0.0,0.0,0.0,0.0,0.0,0.0,0.0,0.0,0.0,0.0,0.0,0.0,0.0,0.0,0.0,0.0,0.0,0.0,0.0,0.0,0.0,0.0,0.0,0.0,0.0,0.0,0.0,0.0,0.0,0.0,0.0,0.0,0.0,0.0,0.0,0.0,-3.874,-3.9672,-4.0018,-3.9822,-4.1047,-4.1339,-4.0615,-4.1524,0.0,0.0,0.0,0.0,0.0,0.0,0.0,0.0,0.0,0.0,0.0,0.0,0.0,0.0,0.0,0.0,0.0,0.0,0.0,0.0,0.0,0.0,0.0,0.0,0.0,0.0,0.0,-3.1699,0.0,0.0,0.0,0.0,0.0,0.0,0.0,0.0,0.0,0.0,0.0,0.0,0.0,0.0,-4.772,-4.9676,-5.0009,-5.0223,0.0,0.0,-4.8349,-4.7407,-4.8498,-4.8085,0.0,0.0,0.0,0.0,0.0,0.0,0.0,0.0,0.0,0.0,0.0,0.0,0.0,0.0,0.0,0.0,0.0,0.0,0.0,0.0,0.0,0.0,0.0,0.0,0.0,0.0,0.0,0.0,0.0,0.0,0.0,0.0,0.0,0.0,0.0,0.0,0.0,0.0,0.0,0.0,0.0,0.0,0.0,0.0,0.0,0.0,0.0,0.0,0.0,0.0,0.0,0.0,0.0,0.0,0.0,-3.9239,-3.9294,-3.9262,-3.9281,-4.0174,-4.0288,-3.9458,-3.9948,-3.9728,0.0,0.0,0.0,0.0,0.0,0.0,0.0,0.0,0.0,0.0,0.0,0.0,0.0,0.0,0.0,0.0,0.0,0.0,0.0,0.0,0.0,0.0,0.0,0.0,0.0,0.0,0.0,0.0,0.0,0.0,0.0,0.0,0.0,0.0,0.0,0.0,0.0,0.0,0.0,0.0,0.0,-4.8488,-5.026,-5.025,-5.0387,0.0,0.0,-4.8276,-4.9237,-5.0535,-5.0137,-4.6048,0.0,0.0,0.0,0.0,0.0,0.0,0.0,0.0,0.0,0.0,0.0,0.0,0.0,0.0,0.0,0.0,0.0,0.0,0.0,0.0,0.0,0.0,0.0,0.0,0.0,0.0,0.0,0.0,0.0,0.0,0.0,0.0,0.0,0.0,0.0,0.0,0.0,0.0,0.0,0.0,0.0,0.0,0.0,0.0,0.0,0.0,0.0,0.0,0.0,0.0,0.0,0.0,0.0,-3.6051,-3.8736,-3.8456,-3.8205,-3.8076,-3.8801,-3.8555,-3.7232,-3.8274,-3.8499,0.0,0.0,0.0,0.0,0.0,0.0,0.0,0.0,0.0,0.0,0.0,0.0,0.0,0.0,0.0,0.0,0.0,0.0,0.0,0.0,0.0,0.0,0.0,0.0,0.0,0.0,0.0,0.0,-3.2879,-3.3103,-3.2024,0.0,0.0,0.0,0.0,0.0,0.0,0.0,0.0,0.0,0.0,-4.8448,-5.0659,-5.0613,0.0,0.0,-4.9586,-4.8763,-4.841,-4.8844,-4.8144,-4.497,-4.3299,0.0,0.0,0.0,0.0,0.0,0.0,0.0,0.0,0.0,0.0,0.0,0.0,0.0,0.0,0.0,0.0,0.0,0.0,0.0,0.0,0.0,0.0,0.0,0.0,0.0,0.0,0.0,0.0,0.0,0.0,0.0,0.0,0.0,0.0,0.0,0.0,0.0,0.0,0.0,0.0,0.0,0.0,0.0,0.0,0.0,0.0,0.0,0.0,0.0,0.0,0.0,0.0,-3.5732,-3.802,-3.7739,-3.7306,-3.6741,-3.7328,-3.6965,-3.5677,-3.6709,-3.7045,0.0,0.0,0.0,0.0,0.0,0.0,0.0,0.0,0.0,0.0,0.0,0.0,0.0,0.0,0.0,0.0,0.0,0.0,0.0,0.0,0.0,0.0,0.0,0.0,0.0,0.0,0.0,0.0,-3.2938,-3.3231,-3.2895,0.0,0.0,0.0,0.0,0.0,0.0,0.0,0.0,0.0,0.0,-4.8275,-4.9909,-4.988,-4.951,-4.9131,-4.8481,-4.7879,-4.728,-4.7178,-4.6395,-4.4056,0.0,0.0,0.0,0.0,0.0,0.0,0.0,0.0,0.0,0.0,0.0,0.0,0.0,0.0,0.0,0.0,0.0,0.0,0.0,0.0,0.0,0.0,0.0,0.0,0.0,0.0,0.0,0.0,0.0,0.0,0.0,0.0,0.0,0.0,0.0,0.0,0.0,0.0,0.0,0.0,0.0,0.0,0.0,0.0,0.0,0.0,0.0,0.0,0.0,0.0,0.0,0.0,0.0,-3.5776,-3.7202,-3.7225,-3.668,-3.5514,-3.592,-3.5735,-3.4864,-3.535,-3.5151,-3.4134,0.0,0.0,0.0,0.0,0.0,0.0,0.0,0.0,0.0,0.0,0.0,0.0,0.0,0.0,0.0,0.0,0.0,0.0,0.0,0.0,0.0,0.0,0.0,0.0,0.0,0.0,-3.4067,-3.2825,-3.2312,0.0,0.0,0.0,0.0,0.0,0.0,0.0,0.0,0.0,0.0,-4.6295,-4.798,-4.7833,-4.7807,-4.7829,-4.7717,-4.6148,-4.5267,-4.6205,-4.6122,-4.5416,0.0,0.0,0.0,0.0,0.0,0.0,0.0,0.0,0.0,0.0,0.0,0.0,0.0,0.0,0.0,0.0,0.0,0.0,0.0,0.0,0.0,0.0,0.0,0.0,0.0,0.0,0.0,-2.8814,-2.781,0.0,0.0,0.0,0.0,0.0,0.0,0.0,0.0,0.0,0.0,0.0,-3.4382,-3.5877,0.0,0.0,0.0,0.0,0.0,0.0,0.0,0.0,0.0,0.0,0.0,0.0,-3.4844,-3.6278,-3.5905,-3.5446,-3.4951,-3.4996,-3.4725,-3.4137,-3.4129,-3.3838,-3.3214,0.0,0.0,0.0,0.0,0.0,0.0,0.0,0.0,0.0,0.0,0.0,0.0,0.0,0.0,0.0,0.0,0.0,0.0,0.0,0.0,0.0,0.0,0.0,0.0,0.0,-3.4477,0.0,0.0,0.0,0.0,0.0,0.0,0.0,0.0,0.0,0.0,0.0,-4.2808,-4.4582,-4.6294,-4.7391,-4.759,-4.7705,-4.7802,0.0,0.0,0.0,0.0,0.0,0.0,0.0,0.0,0.0,0.0,0.0,0.0,0.0,0.0,-3.9512,-3.7959,-3.7497,-3.7327,-3.7222,0.0,0.0,0.0,0.0,0.0,0.0,0.0,0.0,0.0,0.0,0.0,0.0,0.0,0.0,0.0,0.0,-2.9322,0.0,0.0,0.0,0.0,0.0,0.0,0.0,0.0,-3.3914,-3.4723,-3.5032,-3.6589,-3.6324,0.0,-3.5134,-3.4798,0.0,0.0,0.0,0.0,0.0,0.0,0.0,0.0,-3.4658,-3.5757,-3.5193,-3.4628,-3.4087,-3.3971,-3.3719,-3.3339,-3.2986,-3.2516,-3.1782,-3.2214,-3.2137,0.0,0.0,0.0,0.0,0.0,0.0,0.0,0.0,0.0,0.0,0.0,0.0,0.0,0.0,0.0,0.0,0.0,0.0,0.0,0.0,0.0,0.0,0.0,-3.5076,0.0,0.0,0.0,0.0,0.0,0.0,0.0,0.0,0.0,-4.0811,-4.1742,-4.297,-4.4729,-4.5887,-4.6525,-4.6566,0.0,0.0,0.0,0.0,0.0,0.0,0.0,-4.351,-4.2483,-4.2537,-4.2964,-4.3652,-4.3183,-4.2673,-4.2507,0.0,0.0,-3.878,-3.856,-3.8412,-3.8175,-3.8645,-3.8845,-3.8193,-3.8503,-3.8718,0.0,0.0,0.0,0.0,0.0,0.0,0.0,0.0,-3.2034,-3.1962,0.0,-3.1309,0.0,0.0,0.0,0.0,0.0,0.0,0.0,0.0,-3.446,-3.5031,-3.5086,-3.5669,-3.5462,-3.4694,-3.5235,-3.53,-3.4836,-3.2857,0.0,0.0,0.0,0.0,0.0,0.0,-3.505,-3.5465,-3.4956,-3.4101,-3.2912,-3.2897,-3.2718,-3.2398,-3.2053,-3.1252,-3.003,-3.1046,-3.0779,-2.8854,-3.0709,0.0,0.0,0.0,0.0,0.0,0.0,0.0,0.0,0.0,0.0,0.0,0.0,0.0,0.0,0.0,0.0,0.0,0.0,0.0,0.0,-3.5294,0.0,0.0,0.0,0.0,0.0,0.0,0.0,0.0,0.0,0.0,-4.2219,-4.23,-4.2762,-4.4222,0.0,0.0,0.0,0.0,-4.3743,-4.2188,-4.2594,-4.2846,-4.1797,-4.2531,-4.3138,-4.2773,0.0,0.0,-4.4268,-4.3078,-4.203,-4.171,-4.1102,-4.0468,-3.9939,-3.9856,-3.9843,-3.9471,-3.9564,-3.9559,-3.8801,-3.8562,-3.8599,-3.8281,0.0,0.0,0.0,0.0,-3.4273,-3.4485,-3.5187,-3.5123,-3.479,-3.423,-3.3765,0.0,0.0,0.0,0.0,0.0,0.0,-3.3629,-3.4787,-3.5212,-3.5523,-3.5753,-3.5875,-3.5784,-3.5493,-3.511,-3.4834,-3.4378,-3.2983,-3.2609,-3.3175,0.0,0.0,0.0,0.0,-3.3829,-3.3714,-3.3192,-3.2724,-3.2277,-3.2277,-3.2221,-3.215,-3.1898,-3.1531,-3.0998,-3.0738,-3.0535,-3.0488,-2.9659,0.0,0.0,0.0,0.0,0.0,0.0,0.0,0.0,0.0,0.0,0.0,0.0,0.0,0.0,0.0,0.0,0.0,0.0,0.0,-3.6265,-3.6178,-3.6421,0.0,0.0,0.0,0.0,0.0,0.0,0.0,0.0,0.0,-4.1536,-4.3343,-4.4597,0.0,0.0,-4.5598,-4.3704,-4.4168,-4.4639,-4.4298,0.0,0.0,0.0,-4.4142,-4.3525,-4.2816,-4.3729,-4.4354,-4.3869,-4.3423,-4.2775,-4.1694,-4.0384,-3.9422,-3.9185,-3.9417,-3.9461,-3.8973,-3.8818,-3.8479,-3.7468,-3.7499,-3.7717,-4.0037,-3.8233,-3.7058,-3.6582,-3.6522,-3.5813,-3.5859,-3.6413,-3.6384,-3.6029,-3.5437,-3.5175,-3.4303,-3.2877,-3.2441,0.0,0.0,0.0,-3.3924,-3.4956,-3.479,-3.4683,-3.4604,-3.4604,-3.4621,-3.4561,-3.4105,-3.3787,-3.3636,-3.3307,-3.3421,-3.3939,0.0,0.0,-3.3609,-3.3212,-3.3121,-3.3232,-3.2536,-3.2094,-3.1996,-3.194,-3.1883,-3.1796,-3.164,-3.1524,-3.1321,-3.0733,-3.0455,-3.0718,-2.94,-2.8993,0.0,0.0,0.0,0.0,0.0,0.0,0.0,0.0,0.0,0.0,0.0,-3.011,-3.1192,0.0,0.0,0.0,-3.4228,-3.5677,-3.697,-3.7218,0.0,0.0,0.0,0.0,0.0,0.0,0.0,-4.0864,-4.0572,-4.0392,-4.0928,-4.2979,-4.4073,-4.3114,-4.3603,-4.3825,-4.3028,0.0,-4.3943,-4.388,-4.3846,-4.3774,-4.3804,-4.3576,-4.3278,-4.2957,-4.3447,-4.3649,-4.3144,-4.2769,-4.2118,-4.0945,-3.9756,-3.8883,-3.8719,-3.8727,-3.8723,-3.8539,-3.8508,-3.8138,-3.7092,-3.7215,-3.7307,-4.1091,-4.0968,-3.921,-3.8445,-3.827,-3.7222,-3.676,-3.6675,-3.6488,-3.6222,-3.5928,-3.5707,-3.5028,-3.411,-3.3561,0.0,-3.3947,-3.3657,-3.3734,-3.4099,-3.36,-3.3035,-3.2452,-3.2422,-3.2497,-3.2691,-3.2497,-3.2497,-3.2718,-3.3382,-3.3788,-3.3863,-3.2779,-3.2716,-3.364,-3.2931,-3.2884,-3.3609,-3.2604,-3.2057,-3.194,-3.1826,-3.1655,-3.1495,-3.1336,-3.1234,-3.1028,-3.0836,-3.0499,-2.9929,-2.961,-2.8857,-2.7524,0.0,0.0,0.0,0.0,0.0,0.0,0.0,0.0,0.0,0.0,0.0,0.0,0.0,0.0,0.0,-3.5299,0.0,-3.6915,-3.8137,0.0,0.0,0.0,-3.838,-3.8378,-3.8349,-3.846,-3.8837,0.0,0.0,-4.0143,0.0,-4.1816,-4.0475,-4.0477,-4.1125,-4.2705,-4.2713,-4.2339,-4.2079,-4.2529,-4.2511,-4.1587,-4.196,-4.2636,-4.3057,-4.3029,-4.2655,-4.1991,-4.1372,-4.0554,-3.9588,-3.8984,-3.8552,-3.8404,-3.7815,-3.7615,-3.8185,-3.8292,-3.8123,-3.7477,-3.7338,-3.7184,-4.1091,-4.1004,-4.0042,-3.9375,-3.8908,-3.8177,-3.7826,-3.7783,-3.7273,-3.6765,-3.6166,-3.515,-3.4292,-3.3667,-3.4003,-3.3959,-3.3753,-3.3671,-3.3534,-3.3291,-3.2655,-3.227,-3.2108,-3.1649,-3.156,-3.1797,-3.156,-3.1471,-3.1501,-3.1679,-3.2124,-3.2796,-3.2569,-3.2985,-3.4051,-3.387,-3.3493,-3.2998,-3.273,-3.2223,-3.1482,-3.1409,-3.1351,-3.119,-3.119,-3.094,-3.0507,-3.0447,-3.0194,-2.9657,-2.825,-2.7826,-2.845,-2.8067,0.0,0.0,0.0,0.0,0.0,0.0,0.0,0.0,0.0,-3.2407,-3.4332,0.0,-3.5354,0.0,-3.6289,-3.6295,-3.7001,-3.6942,0.0,0.0,-3.8351,-3.8412,-3.8372,-3.8012,-3.7898,-3.8476,-3.8926,-3.894,-3.8309,-3.9243,-3.9609,-3.8529,-4.0629,-4.2271,-4.221,-4.2369,-4.2439,-4.2363,-4.2765,-4.3027,-4.2545,-4.2192,-4.2184,-4.2943,-4.2414,-4.1579,-4.0586,-4.0252,-3.9592,-3.8065,-3.739,-3.7204,-3.7172,-3.6877,-3.6815,-3.6938,-3.6969,-3.6938,-3.6753,-3.6738,-3.6676,-4.0249,-4.0191,-3.9538,-3.8899,-3.8333,-3.797,-3.7622,-3.7302,-3.6707,-3.6069,-3.5386,-3.4124,-3.326,-3.2818,-3.3303,-3.3434,-3.315,-3.2972,-3.2698,-3.2456,-3.1883,-3.1589,-3.1574,-3.125,-3.1176,-3.122,-3.1176,-3.1073,-3.1029,-3.1073,-3.1368,-3.1886,-3.1871,-3.2377,-3.3321,-3.3878,-3.3922,-3.3438,-3.2899,-3.2183,-3.1264,-3.1234,-3.1086,-3.0919,-3.1411,-3.1516,-3.1131,-3.1559,-3.1569,-3.1035,-2.9551,-2.8728,-2.8828,-2.845,-2.8475,0.0,0.0,0.0,0.0,0.0,0.0,0.0,0.0,0.0,0.0,0.0,-3.5935,-3.8105,-3.7034,-3.6823,-3.8352,-3.7871,-3.76,-3.8057,-3.786,-3.7552,-3.7216,-3.6622,-3.6435,-3.6875,-3.6853,-3.6782,-3.6707,-3.7435,-3.7876,-3.7648,-3.9495,-4.106,-4.1445,-4.1903,-4.2293,-4.2263,-4.25,-4.2509,-4.2167,-4.1589,-4.1287,-4.1359,-4.0985,-4.0249,-3.9105,-3.8852,-3.8318,-3.7062,-3.6677,-3.66,-3.6616,-3.6538,-3.6492,-3.6492,-3.6492,-3.6492,-3.6492,-3.6492,-3.6492,-3.9069,-3.903,-3.8359,-3.7692,-3.7056,-3.7056,-3.678,-3.6243,-3.5546,-3.4791,-3.3978,-3.2962,-3.2225,-3.1867,-3.2333,-3.2469,-3.2353,-3.1911,-3.1743,-3.1626,-3.1219,-3.1028,-3.1014,-3.1028,-3.0984,-3.0866,-3.0984,-3.0984,-3.0881,-3.0984,-3.1117,-3.1205,-3.1205,-3.1634,-3.2497,-3.3442,-3.403,-3.4134,-3.3034,-3.2019,-3.1205,-3.1323,-3.1245,-3.0975,-3.2118,-3.2596,-3.2281,-3.3199,-3.3412,-3.2631,-3.1633,-3.0366,-2.8768,-2.8931,-2.8887,0.0,-2.9672,0.0,0.0,0.0,0.0,0.0,0.0,0.0,0.0,-3.4318,-3.6107,-3.827,-3.7465,-3.762,-3.9454,-3.9006,-3.828,-3.7359,-3.6925,-3.6322,-3.5495,-3.4979,-3.4787,-3.5034,-3.4545,-3.4497,-3.5245,-3.5798,-3.6443,-3.7028,-3.7794,-3.8797,-4.0029,-4.1001,-4.1552,-4.1533,-4.1495,-4.1085,-4.059,-4.0292,-3.9948,-3.9429,-3.9189,-3.8661,-3.7502,-3.7202,-3.6955,-3.6353,-3.6138,-3.6184,-3.623,-3.6184,-3.6261,-3.6245,-3.6291,-3.6322,-3.6477,-3.6368,-3.6368,-3.8563,-3.8315,-3.7897,-3.6965,-3.5749,-3.5735,-3.5952,-3.6228,-3.5082,-3.3645,-3.2106,-3.2382,-3.2193,-3.1637,-3.2202,-3.2222,-3.1714,-3.1584,-3.1297,-3.0802,-3.0746,-3.0687,-3.0702,-3.0702,-3.0687,-3.0673,-3.0702,-3.0687,-3.0673,-3.0687,-3.1085,-3.1929,-3.1914,-3.2421,-3.3442,0.0,0.0,0.0,-3.2639,-3.1829,-3.1467,-3.2597,-3.2966,-3.2588,-3.3434,0.0,-3.3141,-3.3412,-3.2989,-3.1804,-3.1219,0.0,0.0,0.0,0.0,0.0,0.0,0.0,0.0,0.0,0.0,0.0,-3.2691,-3.3742,-3.4501,-3.6675,-3.7772,-3.7124,-3.707,-3.6901,-3.6402,-3.628,-3.5913,-3.5223,-3.5461,-3.5247,-3.41,-3.4375,-3.4574,-3.4122,-3.4181,-3.4239,-3.4421,-3.4688,-3.4942,-3.5229,-3.6087,-3.6861,-3.7236,-3.8938,-3.9581,-3.8652,-3.8938,-3.9007,-3.886,-3.8726,-3.8413,-3.7853,-3.7602,-3.7105,-3.6111,-3.5846,-3.5587,-3.5084,-3.4845,-3.4876,-3.4891,-3.486,-3.51,-3.5472,-3.553,-3.5728,-3.6338,-3.6045,-3.5676,-3.6871,0.0,-3.5975,-3.5323,0.0,-3.438,-3.4566,-3.4781,-3.3888,-3.2571,-3.109,-3.1224,-3.118,-3.1076,-3.1409,-3.138,-3.1061,-3.1061,-3.0887,-3.0642,-3.0642,-3.0642,-3.0642,-3.0642,-3.0642,-3.0642,-3.0642,-3.0642,-3.0642,-3.0642,-3.0862,-3.1379,-3.1379,-3.1646,-3.2198,-3.2137,-3.2361,-3.2975,-3.2347,-3.1722,-3.1117,-3.1794,-3.204,-3.1769,0.0,0.0,0.0,0.0,0.0,0.0,0.0,0.0,0.0,0.0,0.0,-2.7385,-2.8526,-2.8971,-2.8554,-2.99,-3.0675,-3.0426,-3.1676,-3.3087,-3.4478,-3.574,-3.6235,-3.5872,-3.5974,-3.5839,-3.5243,-3.4981,-3.4718,-3.439,-3.4439,-3.4218,-3.3634,-3.3546,-3.3547,-3.3291,-3.3196,-3.3279,-3.3658,-3.3894,-3.4106,-3.4472,-3.5049,-3.5402,-3.5556,-3.7434,-3.8616,-3.8004,-3.779,-3.7902,-3.8138,-3.7612,-3.7103,-3.6799,-3.6506,-3.5921,-3.5122,-3.4966,-3.4867,-3.4593,-3.446,-3.446,-3.446,-3.446,-3.462,-3.5106,-3.5122,-3.5123,-3.5739,-3.5658,-3.5307,-3.5135,-3.4337,-3.4167,-3.383,-3.3438,-3.3312,-3.3143,-3.2945,0.0,0.0,0.0,-3.0111,-3.0158,-3.0387,-3.0462,-3.0387,-3.0462,-3.0387,-3.0462,-3.0447,-3.0462,-3.0447,-3.0387,-3.0462,-3.0447,-3.0401,-3.0401,-3.0447,-3.0447,-3.0462,-3.0387,-3.0447,-3.0462,-3.0401,-3.0462,-3.0462,-3.0843,-3.1657,-3.1869,-3.1603,-3.0762,-3.0969,-3.0999,-3.0851,-3.2018,-3.2569,-3.2357,-3.2961,-3.2871,-3.1835,-3.1014,-3.0032,-2.8668,-2.845,-2.811,-2.7526,-2.7982,-2.8139,-2.7753,-2.8495,-2.8968,-2.8968,-3.0208,-3.1776,-3.3554,-3.3814,-3.4089,-3.4501,-3.4736,-3.478,-3.4596,-3.4342,-3.4036,-3.3877,-3.3615,-3.3378,-3.3095,-3.2811,-3.2586,-3.2479,-3.2246,-3.2179,-3.2867,-3.3058,-3.3429,-3.3921,-3.4074,-3.4098,-3.4224,-3.5927,-3.7452,-3.7614,-3.703,-3.6819,-3.7112,-3.6539,-3.5906,-3.5582,-3.5256,-3.4801,-3.4322,-3.4106,-3.4106,-3.4041,-3.4091,-3.4044,-3.4075,-3.3998,-3.4379,-3.4952,-3.4745,-3.4591,-3.5023,-3.5117,-3.4857,-3.4831,-3.4941,-3.4043,-3.3865,-3.407,-3.3508,-3.2665,-3.1696,-3.158,-3.0884,-2.9727,-2.9665,-2.9665,-2.9727,-2.9727,-2.9713,-2.9727,-2.9741,-2.9727,0.0,-2.9741,-2.9727,-2.9727,-2.9727,-2.9727,-2.9727,-2.9727,-2.9741,-2.9727,-2.9741,-2.9727,-2.9727,-2.9727,-2.9741,-2.9727,-2.9727,-2.9831,-2.9992,-3.1043,-3.1468,-3.1234,-3.2367,-3.2898,-3.2695,-3.348,-3.3742,-3.317,-3.3275,-3.2868,-3.1596,-3.11,-2.9973,-2.8095,-2.7442,-2.6638,-2.5558,-2.6242,-2.6691,-2.6662,-2.7451,-2.7977,-2.8078,-2.8714,-2.9968,-3.1747,-3.2882,-3.3398,-3.3176,-3.4061,-3.4332,-3.3461,-3.3701,-3.3465,-3.2549,-3.2894,-3.2883,-3.1782,-3.208,-3.2213,-3.1674,-3.1787,-3.1781,-3.191,-3.214,-3.2394,-3.2638,-3.2718,-3.2676,-3.3079,-3.3874,-3.5054,-3.5907,-3.5317,-3.4676,-3.4841,-3.4594,-3.4253,-3.3709,-3.3599,-3.3379,-3.2878,-3.2782,-3.2752,-3.2675,-3.2721,-3.2736,-3.2736,-3.2675,-3.3178,-3.401,-3.4162,-3.4233,-3.4639,-3.4371,-3.381,-3.3546,-3.3445,-3.3038,-3.2942,-3.3073,-3.2842,-3.1971,-3.0882,-3.0855,-3.0363,-2.9596,-2.9415,-2.9415,-2.9645,-2.9968,-2.9926,-2.9617,-2.9954,-2.9926,-2.9617,-2.9602,-2.9602,-2.9602,-2.9602,-2.9602,-2.9602,-2.9602,-2.9602,-2.9602,-2.9602,-2.9602,-2.9602,-2.9602,-2.9602,-2.9602,-2.9602,-2.9602,-2.9602,-3.0205,-3.0493,-3.0642,-3.1115,-3.1382,-3.1411,-3.1691,-3.1465,-3.0812,-3.069,-3.0122,-2.8997,-2.8493,-2.7694,-2.6637,-2.6414,-2.5967,-2.5089,-2.5702,-2.598,-2.5641,-2.6535,-2.7195,-2.753,-2.7987,-2.8559,-2.9425,-3.0826,-3.1777,-3.2038,-3.2669,-3.2742,-3.224,-3.2229,-3.188,-3.0955,-3.1324,-3.1131,-3.0391,-3.0802,-3.1051,-3.0541,-3.0588,-3.0724,-3.0694,-3.0858,-3.1036,-3.1221,-3.1399,-3.1772,-3.2164,-3.2369,-3.2886,-3.3931,-3.3828,-3.3609,-3.3534,-3.3288,-3.3166,-3.3145,-3.2635,-3.2182,-3.1898,-3.1844,-3.169,-3.1413,-3.1582,-3.1813,-3.1874,-3.2113,-3.2767,-3.3614,-3.363,-3.3681,-3.3853,-3.3121,-3.233,-3.2526,-3.2372,-3.2236,-3.2169,-3.2169,-3.2169,-3.149,-3.0363,-3.0323,-2.998,-2.9309,-2.9099,-2.9099,-2.9408,-2.9853,-2.9798,-2.9463,-2.9839,-2.9798,-2.938,-2.9366,-2.9352,-2.9352,-2.9352,-2.9352,-2.9352,-2.9352,-2.9352,-2.9352,-2.9352,-2.9366,-2.9352,-2.9352,-2.9352,-2.9352,-2.9352,-2.9366,-2.9352,-2.9352,-2.954,-2.9988,-2.9741,-2.9755,-2.9927,-2.9741,-2.9307,-2.8657,-2.831,-2.7751,-2.6828,-2.6202,-2.5799,-2.5603,-2.5647,-2.5453,-2.494,-2.537,-2.5508,-2.5075,-2.5517,-2.6142,-2.6734,-2.7023,-2.7197,-2.7339,-2.8361,-2.9568,-3.056,-3.1087,-3.1235,-3.0872,-3.0731,-3.0294,-2.9753,-2.975,-2.9717,-2.9245,-2.9681,-2.9911,-2.9491,-2.9564,-2.9726,-2.9636,-2.9811,-3.0,-3.0036,-3.0507,-3.1037,-3.115,-3.1023,-3.131,-3.172,-3.2271,-3.244,-3.2428,-3.2311,-3.2253,-3.261,-3.1964,-3.1489,-3.1274,-3.1166,-3.1028,-3.0674,-3.1012,-3.1382,-3.1466,-3.1849,-3.2552,-3.3411,-3.3335,-3.3045,-3.3002,-3.1908,-3.098,-3.2554,-3.2861,-3.2386,-3.2169,-3.2169,-3.2169,-3.1392,-3.0239,-3.0102,-2.9484,-2.8536,-2.8573,-2.8651,-2.8716,-2.8811,-2.8811,-2.8716,-2.8784,-2.8784,-2.8729,-2.8651,-2.8716,-2.8716,-2.8716,-2.8716,-2.8716,-2.8716,-2.878,-2.8716,-2.8716,-2.8716,-2.8716,-2.8729,-2.8716,-2.8716,-2.8716,-2.8716,-2.8716,-2.8729,-2.9035,-2.9602,-2.9602,-2.9602,-2.9665,-2.9602,-2.9198,-2.8249,-2.8201,-2.7762,-2.6889,-2.6217,-2.5846,-2.5809,-2.5347,-2.483,-2.4299,-2.4762,-2.5061,-2.4964,-2.4544,-2.4626,-2.5143,-2.5336,-2.5449,-2.5688,-2.5911,-2.6679,-2.8296,-2.9795,-3.0074,-2.916,-2.9377,-2.9377,-2.8839,-2.8893,-2.899,-2.8887,-2.9086,-2.9282,-2.9431,-2.9223,-2.9238,-2.9032,-2.938,-2.9539,-2.9143,-2.9558,-2.9862,-2.9596,-2.9801,-2.9974,-2.9832,-3.0154,-3.0629,-3.0758,-3.1149,-3.1281,-3.0948,-3.1096,-3.0982,-3.0658,-3.0505,-3.0443,-3.0181,-3.0782,-3.1151,-3.1366,-3.1828,-3.2284,-3.2641,-3.2719,-3.2538,-3.1939,-3.101,-3.0555,-3.1964,-3.2226,-3.1924,-3.1817,-3.1776,-3.1441,-3.0797,-2.995,-2.9589,-2.896,-2.825,-2.8276,-2.8406,-2.8627,-2.8953,-2.894,-2.8627,-2.894,-2.8912,-2.8614,-2.8587,-2.8587,-2.8587,-2.8587,-2.8587,-2.8587,-2.8587,-2.8587,-2.8587,-2.8587,-2.8587,-2.8587,-2.8587,-2.8587,-2.8587,-2.8587,-2.8587,-2.8587,-2.8587,-2.8716,-2.8972,-2.9035,-2.9099,-2.9226,-2.9099,-2.8518,-2.7543,-2.7359,-2.6862,-2.5833,-2.5507,-2.5371,-2.5358,-2.5479,-2.5122,-2.4232,-2.4015,-2.396,-2.3906,-2.4055,-2.4069,-2.3933,-2.4611,-2.4939,-2.4723,-2.5163,-2.5841,-2.6596,-2.7855,-2.8397,-2.7979,-2.8235,-2.8245,-2.7737,-2.7923,-2.8079,-2.7686,-2.8086,-2.8297,-2.808,-2.803,-2.8091,-2.8077,-2.8359,-2.8484,-2.8344,-2.8583,-2.874,-2.8779,-2.8838,-2.8854,-2.8951,-2.9069,-2.93,-2.9715,-3.0397,-3.0597,-3.0489,-3.0274,-3.0058,-2.995,-2.9827,-2.972,-2.935,-2.9904,-3.0274,-3.0151,-3.0572,-3.1072,-3.1487,-3.1482,-3.1164,-3.0578,-2.9841,-2.9486,-3.1609,-3.1609,-3.1609,-3.1609,-3.1542,-3.0943,-3.0357,-2.9714,-2.913,-2.8558,-2.8027,-2.8013,-2.821,-2.8525,-2.893,-2.8862,-2.8565,-2.8903,-2.8876,-2.8498,-2.8471,-2.8471,-2.8457,-2.8522,-2.8522,-2.8509,-2.8587,-2.8587,-2.8587,-2.8587,-2.8587,-2.8587,-2.8522,-2.8509,-2.8509,-2.8457,-2.8457,-2.8509,-2.8522,-2.8522,-2.8573,-2.8522,-2.8638,-2.8894,-2.8566,-2.7868,-2.6891,-2.666,-2.609,-2.5073,-2.5005,-2.5005,-2.4948,-2.5328,-2.5136,-2.4055,-2.3083,-2.2746,-2.3029,-2.3366,-2.3406,-2.3244,-2.415,-2.4542,-2.4327,-2.4901,-2.5342,-2.5494,-2.6273,-2.6833,-2.6956,-2.7066,-2.7014,-2.6746,-2.7093,-2.7136,-2.691,-2.7307,-2.7448,-2.7076,-2.7225,-2.7233,-2.7401,-2.7614,-2.7765,-2.7786,-2.792,-2.8039,-2.835,-2.8235,-2.8201,-2.8605,-2.8348,-2.8449,-2.9039,-2.9704,-3.0043,-2.9874,-2.952,-2.9473,-2.9212,-2.915,-2.9104,-2.8889,-2.91,-2.9377,-2.9603,-2.9813,-2.999,-3.0258,-3.0191,-2.9877,-2.9524,-2.8824,-2.8412,-3.1609,-3.1609,-3.1609,-3.1522,-3.1556,-3.0956,-3.0286,-2.9574,-2.8937,-2.8343,-2.7828,-2.7789,-2.7921,-2.8079,-2.8211,-2.8119,-2.8145,-2.8211,-2.8211,-2.8158,-2.8145,-2.8145,-2.8145,-2.8235,-2.8287,-2.8365,-2.8509,-2.8522,-2.8587,-2.8587,-2.8587,-2.8587,-2.8365,-2.8287,-2.83,-2.8197,-2.8197,-2.83,-2.83,-2.8365,-2.8522,-2.8444,-2.843,-2.8492,-2.8071,-2.7515,-2.6789,-2.6267,-2.5656,-2.5032,-2.5005,-2.4948,-2.4835,-2.4808,-2.4442,-2.3645,-2.2085,-2.1632,-2.2537,-2.2377,-2.2322,-2.2909,-2.3528,-2.3959,-2.3947,-2.4544,-2.4869,-2.4964,-2.5314,-2.5689,-2.5825,-2.6087,-2.621,-2.6326,-2.6326,-2.6529,-2.6741,-2.6785,-2.689,-2.6937,-2.6945,-2.7034,-2.7335,-2.7401,-2.7458,-2.756,-2.774,-2.784,-2.789,-2.7955,-2.7989,-2.7978,-2.7978,-2.8118,-2.8455,-2.8978,-2.907,-2.8978,-2.902,-2.9131,-2.8765,-2.8442,-2.8427,-2.8486,-2.882,-2.9042,-2.9241,-2.9367,-2.9507,-2.9493,-2.9078,-2.8749,-2.8689,-2.812,-2.7814,-3.1211,-3.1224,-3.1224,-3.1224,-3.1145,-3.0592,-2.9941,-2.9377,-2.8786,-2.8195,-2.7655,-2.759,-2.7656,-2.7736,-2.7736,-2.7868,-2.8079,-2.8079,-2.8079,-2.8079,-2.8079,-2.8079,-2.8079,-2.8131,-2.8249,-2.8287,-2.8327,-2.8276,-2.8276,-2.8276,-2.8276,-2.8276,-2.821,-2.8197,-2.8197,-2.8145,-2.8145,-2.8131,-2.8197,-2.8197,-2.8262,-2.8197,-2.8023,-2.7712,-2.7975,-2.7597,-2.6641,-2.6532,-2.5977,-2.4932,-2.4835,-2.4835,-2.4597,-2.3955,-2.3418,-2.3044,-2.1819,-2.1169,-2.1605,-2.1819,-2.1805,-2.1789,-2.267,-2.3045,-2.295,-2.3554,-2.4079,-2.3919,-2.4204,-2.4409,-2.4448,-2.5187,-2.5948,-2.6042,-2.6042,-2.6111,-2.6165,-2.6218,-2.6326,-2.6467,-2.6483,-2.6557,-2.6887,-2.6842,-2.6855,-2.7232,-2.7488,-2.7539,-2.7539,-2.764,-2.759,-2.7342,-2.7206,-2.7319,-2.7496,-2.8107,-2.8458,-2.8431,-2.8446,-2.8492,-2.8262,-2.8174,-2.8158,-2.8186,-2.8454,-2.8434,-2.8525,-2.8531,-2.8688,-2.8479,-2.8098,-2.8143,-2.7949,-2.7724,-2.7619,-3.0475,-3.0514,-3.0758,-3.0836,-3.0745,-2.9956,-2.9528,-2.9275,-2.846,-2.7926,-2.773,-2.7548,-2.7469,-2.7469,-2.7469,-2.7669,-2.7881,-2.7881,-2.7947,-2.7881,-2.7947,-2.7934,-2.7947,-2.7947,-2.8052,-2.8105,-2.8131,-2.8066,-2.8052,-2.8066,-2.8079,-2.8079,-2.8079,-2.8,-2.8,-2.7934,-2.7947,-2.8,-2.8,-2.7934,-2.7839,-2.7721,-2.7442,-2.6977,-2.733,-2.7153,-2.6176,-2.6096,-2.5724,-2.4869,-2.4721,-2.4584,-2.4216,-2.3241,-2.2564,-2.23,-2.144,-2.0885,-2.0938,-2.1305,-2.1358,-2.1053,-2.1847,-2.2246,-2.2018,-2.2831,-2.3151,-2.3085,-2.3259,-2.3407,-2.3379,-2.4229,-2.5091,-2.5394,-2.5672,-2.5784,-2.5893,-2.5893,-2.5988,-2.6147,-2.6208,-2.6315,-2.6439,-2.6491,-2.6629,-2.6886,-2.7121,-2.7291,-2.7083,-2.706,-2.7076,-2.6756,-2.6681,-2.6943,-2.7236,-2.7815,-2.8156,-2.813,-2.8115,-2.8084,-2.7947,-2.7905,-2.7859,-2.7883,-2.7864,-2.7769,-2.7735,-2.776,-2.7725,-2.7625,-2.7664,-2.7784,-2.7679,-2.7619,-2.756,-2.9574,-2.9638,-3.0125,-3.038,-3.0213,-2.9275,-2.9023,-2.9173,-2.7976,-2.7644,-2.7825,-2.7624,-2.7456,-2.7456,-2.7456,-2.7523,-2.7536,-2.7523,-2.7536,-2.7536,-2.7536,-2.7536,-2.7536,-2.7723,-2.7789,-2.7842,-2.8,-2.7987,-2.7881,-2.7987,-2.8013,-2.8013,-2.7868,-2.7776,-2.7789,-2.7669,-2.7669,-2.7776,-2.7749,-2.7538,-2.724,-2.6995,-2.6654,-2.6188,-2.6175,-2.5959,-2.5395,-2.4975,-2.478,-2.4647,-2.462,-2.4239,-2.3632,-2.2902,-2.2178,-2.1747,-2.1118,-2.0777,-2.0738,-2.0777,-2.0841,-2.0891,-2.1389,-2.168,-2.1796,-2.2339,-2.2711,-2.2591,-2.2684,-2.2777,-2.2724,-2.2976,-2.3593,-2.4447,-2.5066,-2.5453,-2.5714,-2.5851,-2.5893,-2.592,-2.6076,-2.6064,-2.5963,-2.6155,-2.6396,-2.6287,-2.6585,-2.6739,-2.6247,-2.6208,-2.6278,-2.6317,-2.6236,-2.6225,-2.6916,-2.7595,-2.7775,-2.789,-2.7955,-2.7925,-2.7637,-2.747,-2.7273,-2.7285,-2.7158,-2.7094,-2.765,-2.7675,-2.7675,-2.756,-2.756,-2.756,-2.756,-2.756,-2.7524,-2.9881,-2.9487,-2.9715,-2.9792,-2.9702,-2.8997,-2.8805,-2.8856,-2.8017,-2.7649,-2.7456,-2.7249,-2.7121,-2.7095,-2.7255,-2.7335,-2.7403,-2.7469,-2.7469,-2.7469,-2.7469,-2.7469,-2.7523,-2.759,-2.759,-2.759,-2.7789,-2.7789,-2.7643,-2.7669,-2.7683,-2.7669,-2.7656,-2.7577,-2.759,-2.7523,-2.7536,-2.755,-2.7184,-2.6947,-2.6828,-2.6409,-2.5874,-2.5424,-2.5358,-2.5082,-2.4557,-2.4925,-2.489,-2.439,-2.4421,-2.4226,-2.3772,-2.3176,-2.2717,-2.2457,-2.1707,-2.125,-2.1185,-2.082,-2.0562,-2.0651,-2.0794,-2.086,-2.0976,-2.155,-2.1746,-2.1612,-2.1836,-2.1955,-2.1688,-2.2016,-2.2775,-2.4001,-2.4354,-2.4614,-2.4778,-2.479,-2.5106,-2.5522,-2.5762,-2.5767,-2.5682,-2.5712,-2.5379,-2.5371,-2.5618,-2.5634,-2.5296,-2.5385,-2.553,-2.5612,-2.5497,-2.5619,-2.6336,-2.6817,-2.6946,-2.7364,-2.761,-2.775,-2.7414,-2.7082,-2.6871,-2.6796,-2.6654,-2.6861,-2.74,-2.756,-2.756,-2.756,-2.756,-2.756,-2.756,-2.7575,-2.7473,-2.9481,-2.8727,-2.8905,-2.9007,-2.8931,-2.8397,-2.8295,-2.8333,-2.7717,-2.7403,-2.7288,-2.7126,-2.693,-2.6905,-2.7134,-2.7214,-2.7201,-2.7268,-2.7335,-2.7335,-2.7456,-2.7469,-2.7456,-2.7469,-2.7469,-2.7523,-2.7656,-2.759,-2.7536,-2.7469,-2.7469,-2.7536,-2.7469,-2.7536,-2.7469,-2.7469,-2.7469,-2.7458,-2.717,-2.6791,-2.6386,-2.602,-2.5458,-2.4792,-2.4588,-2.4406,-2.4119,-2.4524,-2.4583,-2.421,-2.4073,-2.3891,-2.3509,-2.3121,-2.2863,-2.2502,-2.1897,-2.1355,-2.1303,-2.0707,-2.041,-2.0398,-2.0398,-2.041,-2.0462,-2.0888,-2.0989,-2.0882,-2.109,-2.1193,-2.1043,-2.1252,-2.1993,-2.2964,-2.3662,-2.3973,-2.4096,-2.3986,-2.4244,-2.475,-2.5117,-2.5194,-2.4927,-2.5005,-2.4453,-2.4422,-2.454,-2.4626,-2.4379,-2.4486,-2.4644,-2.4846,-2.5014,-2.5313,-2.579,-2.6079,-2.6158,-2.6673,-2.722,-2.7405,-2.7375,-2.6969,-2.6684,-2.6774,-2.6677,-2.71,-2.7545,-2.756,-2.756,-2.756,-2.7509,-2.7509,-2.7509,-2.7423,-2.7386,-2.8486,-2.744,-2.7846,-2.8059,-2.7984,-2.754,-2.7591,-2.7893,-2.7164,-2.7031,-2.7284,-2.7092,-2.6956,-2.6943,-2.6943,-2.7011,-2.7011,-2.7011,-2.7011,-2.7079,-2.7268,-2.7323,-2.7268,-2.7335,-2.7403,-2.7456,-2.7469,-2.7469,-2.739,-2.7403,-2.7469,-2.7403,-2.7403,-2.7469,-2.7403,-2.7469,-2.739,-2.739,-2.7378,-2.6805,-2.5944,-2.5696,-2.524,-2.4249,-2.404,-2.3942,-2.3903,-2.3811,-2.3739,-2.3819,-2.3747,-2.3423,-2.2988,-2.2821,-2.2565,-2.2086,-2.1488,-2.1219,-2.104,-2.0591,-2.0246,-2.031,-2.0246,-2.0195,-2.0271,-2.0475,-2.0602,-2.0575,-2.0714,-2.0751,-2.0762,-2.0878,-2.1244,-2.1797,-2.2884,-2.3636,-2.392,-2.3459,-2.3392,-2.3946,-2.4312,-2.4321,-2.3813,-2.4295,-2.4035,-2.3708,-2.3766,-2.3787,-2.3735,-2.3765,-2.376,-2.4036,-2.4447,-2.4879,-2.5309,-2.539,-2.5527,-2.5976,-2.6489,-2.6703,-2.6946,-2.6617,-2.6363,-2.6467,-2.6777,-2.726,-2.7545,-2.7509,-2.7524,-2.7473,-2.7458,-2.7393,-2.7342,-2.7321,-2.7225,-2.8045,-2.7151,-2.7204,-2.7267,-2.7264,-2.6892,-2.6992,-2.7381,-2.6836,-2.6622,-2.6779,-2.6678,-2.6671,-2.6671,-2.6726,-2.6794,-2.6794,-2.6943,-2.6943,-2.6794,-2.7011,-2.7079,-2.7079,-2.7146,-2.7146,-2.7146,-2.7146,-2.7146,-2.7146,-2.7146,-2.7134,-2.7146,-2.7146,-2.7146,-2.7146,-2.7146,-2.7146,-2.7069,-2.6696,-2.6412,-2.6,-2.5215,-2.4638,-2.4356,-2.3919,-2.3726,-2.3688,-2.3509,-2.3522,-2.3628,-2.3509,-2.3412,-2.3196,-2.284,-2.2534,-2.2267,-2.1601,-2.1283,-2.1345,-2.0614,-2.0257,-2.0639,-2.0244,-2.0042,-2.0042,-2.0309,-2.0474,-2.0511,-2.0612,-2.0699,-2.0712,-2.0712,-2.1038,-2.1614,-2.2245,-2.2815,-2.3122,-2.2573,-2.2228,-2.3216,-2.3297,-2.3241,-2.3344,-2.3293,-2.3335,-2.3179,-2.3178,-2.3322,-2.3152,-2.3316,-2.3402,-2.358,-2.3958,-2.4356,-2.4684,-2.4764,-2.4944,-2.5313,-2.5645,-2.5768,-2.5998,-2.6001,-2.5836,-2.5774,-2.6406,-2.6911,-2.7193,-2.7291,-2.7306,-2.7372,-2.7269,-2.7255,-2.724,-2.7203,-2.71,-2.7748,-2.6494,-2.6507,-2.6507,-2.6528,-2.6313,-2.6432,-2.6714,-2.6546,-2.6396,-2.6465,-2.6521,-2.6521,-2.6521,-2.6589,-2.6589,-2.6658,-2.6739,-2.6739,-2.6658,-2.6726,-2.6875,-2.6943,-2.7024,-2.7024,-2.7024,-2.7024,-2.7024,-2.7024,-2.7024,-2.7024,-2.7024,-2.7024,-2.7024,-2.7024,-2.7024,-2.7024,-2.6973,-2.6652,-2.6409,-2.6023,-2.5218,-2.4668,-2.4374,-2.3876,-2.3509,-2.339,-2.3318,-2.333,-2.3378,-2.333,-2.3271,-2.322,-2.274,-2.2508,-2.2445,-2.1458,-2.1053,-2.1239,-2.0451,-2.0085,-2.0439,-2.015,-1.9938,-1.9926,-2.0144,-2.0309,-2.036,-2.0498,-2.0599,-2.0699,-2.0699,-2.0919,-2.127,-2.1515,-2.1907,-2.2573,-2.188,-2.1813,-2.2358,-2.2612,-2.2506,-2.2782,-2.2647,-2.2551,-2.2446,-2.2287,-2.2436,-2.2498,-2.2808,-2.3108,-2.3241,-2.3484,-2.3897,-2.4075,-2.4092,-2.4065,-2.4464,-2.4823,-2.4914,-2.5438,-2.5622,-2.5857,-2.5972,-2.6258,-2.6533,-2.6878,-2.7115,-2.7188,-2.7188,-2.71,-2.6953,-2.6835,-2.6667,-2.6623,-2.7477,-2.591,-2.591,-2.584,-2.5923,-2.591,-2.6074,-2.6156,-2.6144,-2.627,-2.6408,-2.6396,-2.6383,-2.6371,-2.6383,-2.6465,-2.6465,-2.6465,-2.6465,-2.6465,-2.6465,-2.6602,-2.6739,-2.6875,-2.6888,-2.6888,-2.6956,-2.6956,-2.6875,-2.6956,-2.6956,-2.6888,-2.6956,-2.6956,-2.6875,-2.6956,-2.6943,-2.6943,-2.6824,-2.6493,-2.6008,-2.5384,-2.4848,-2.4264,-2.3682,-2.3283,-2.3198,-2.3138,-2.3125,-2.3125,-2.3125,-2.3078,-2.3015,-2.2564,-2.2289,-2.2113,-2.1288,-2.0822,-2.0989,-2.0316,-1.9879,-2.0412,-2.0076,-1.9756,-1.9949,-2.0079,-2.0093,-2.0246,-2.041,-2.0562,-2.0649,-2.0699,-2.0775,-2.093,-2.0954,-2.1202,-2.1528,-2.1402,-2.1394,-2.1851,-2.2109,-2.216,-2.216,-2.2183,-2.2074,-2.2237,-2.2092,-2.2226,-2.2394,-2.2616,-2.2748,-2.2772,-2.31,-2.3424,-2.3484,-2.3426,-2.3431,-2.3535,-2.3919,-2.4273,-2.5158,-2.5545,-2.6061,-2.6326,-2.5909,-2.6129,-2.6688,-2.6865,-2.6755,-2.6711,-2.6418,-2.6279,-2.6117,-2.59,-2.5762,-2.6665,-2.5676,-2.5688,-2.5676,-2.5688,-2.5828,-2.591,-2.598,-2.598,-2.6074,-2.6169,-2.6074,-2.5955,-2.5918,-2.6176,-2.6283,-2.6258,-2.627,-2.6201,-2.605,-2.6201,-2.6188,-2.6258,-2.6465,-2.6602,-2.6602,-2.6602,-2.6602,-2.6589,-2.6671,-2.6602,-2.6602,-2.6671,-2.6602,-2.6589,-2.6658,-2.6602,-2.6602,-2.6589,-2.6274,-2.5757,-2.5214,-2.4671,-2.4066,-2.35,-2.3175,-2.3138,-2.3125,-2.3125,-2.3125,-2.3078,-2.3017,-2.287,-2.2459,-2.2114,-2.1811,-2.1321,-2.0895,-2.0945,-2.0772,-2.0742,-2.0828,-2.0499,-2.0304,-2.0451,-2.0166,-2.0092,-2.0195,-2.0347,-2.0511,-2.0649,-2.0699,-2.0699,-2.0762,-2.0775,-2.0814,-2.0943,-2.1027,-2.1153,-2.1255,-2.1408,-2.148,-2.1493,-2.1583,-2.17,-2.1979,-2.2111,-2.2237,-2.2317,-2.238,-2.2412,-2.2445,-2.2747,-2.3054,-2.3132,-2.3149,-2.3122,-2.3094,-2.3314,-2.3535,-2.4414,-2.496,-2.5301,-2.5316,-2.5121,-2.556,-2.6191,-2.5777,-2.5487,-2.556,-2.5647,-2.5286,-2.5034,-2.4947,-2.4696,-2.6414,-2.5465,-2.5465,-2.5465,-2.5453,-2.5606,-2.5676,-2.5758,-2.577,-2.584,-2.5947,-2.5923,-2.5828,-2.5804,-2.5968,-2.6062,-2.605,-2.6062,-2.598,-2.591,-2.598,-2.598,-2.598,-2.6119,-2.627,-2.6339,-2.6339,-2.6396,-2.6452,-2.6452,-2.6521,-2.6521,-2.6521,-2.6521,-2.6521,-2.6521,-2.6521,-2.6445,-2.6176,-2.5887,-2.5561,-2.4953,-2.4352,-2.3816,-2.3219,-2.2909,-2.3017,-2.2969,-2.2969,-2.2957,-2.2957,-2.2909,-2.2834,-2.2399,-2.2009,-2.1756,-2.1223,-2.0954,-2.0917,-2.0709,-2.0557,-2.0822,-2.0543,-2.0432,-2.0426,-2.0227,-2.0308,-2.0271,-2.0296,-2.0448,-2.0649,-2.0699,-2.0699,-2.0699,-2.0699,-2.0699,-2.0749,-2.0861,-2.0961,-2.0961,-2.1086,-2.1122,-2.1144,-2.1229,-2.1318,-2.156,-2.1623,-2.1686,-2.1855,-2.1932,-2.211,-2.2194,-2.2491,-2.2704,-2.2809,-2.2855,-2.296,-2.2962,-2.302,-2.3167,-2.3531,-2.3912,-2.4206,-2.4352,-2.463,-2.4917,-2.5305,-2.4809,-2.4433,-2.4626,-2.4554,-2.4127,-2.3801,-2.3589,-2.321,-2.6346,-2.5441,-2.53,-2.5312,-2.5312,-2.5312,-2.5382,-2.5535,-2.5535,-2.5606,-2.5758,-2.5816,-2.5758,-2.5828,-2.5828,-2.584,-2.584,-2.591,-2.591,-2.5758,-2.5828,-2.584,-2.577,-2.584,-2.591,-2.605,-2.6131,-2.627,-2.6327,-2.6477,-2.6396,-2.6465,-2.6521,-2.6521,-2.6521,-2.6521,-2.6377,-2.6214,-2.5887,-2.5394,-2.5219,-2.4636,-2.4159,-2.3564,-2.3034,-2.2812,-2.2848,-2.28,-2.2739,-2.2848,-2.2739,-2.2739,-2.2676,-2.2416,-2.2048,-2.1858,-2.1411,-2.1204,-2.1058,-2.0754,-2.0616,-2.0514,-2.0692,-2.0528,-2.0373,-2.0454,-2.042,-2.0271,-2.0246,-2.0398,-2.0649,-2.0699,-2.0699,-2.0699,-2.0699,-2.0699,-2.0699,-2.0825,-2.0825,-2.0888,-2.0924,-2.101,-2.0997,-2.1046,-2.1082,-2.118,-2.118,-2.1229,-2.141,-2.1568,-2.1753,-2.1957,-2.2198,-2.2523,-2.2615,-2.2706,-2.2797,-2.2843,-2.2888,-2.2872,-2.2975,-2.3238,-2.3647,-2.4007,-2.4312,-2.4452,-2.4321,-2.3897,-2.3653,-2.3772,-2.3403,-2.2915,-2.2523,-2.2228,-2.1997,-2.6633,-2.6013,-2.5523,-2.5312,-2.5312,-2.5312,-2.5312,-2.5382,-2.5382,-2.5382,-2.5382,-2.5382,-2.5465,-2.5465,-2.5606,-2.5606,-2.5688,-2.5758,-2.5688,-2.5535,-2.5535,-2.5606,-2.5465,-2.5465,-2.5535,-2.5688,-2.584,-2.598,-2.605,-2.6131,-2.627,-2.627,-2.6396,-2.6465,-2.6402,-2.6414,-2.6138,-2.5707,-2.5378,-2.49,-2.435,-2.4134,-2.3968,-2.3401,-2.2911,-2.2727,-2.2678,-2.2739,-2.2739,-2.2751,-2.2678,-2.2616,-2.2519,-2.236,-2.225,-2.214,-2.1983,-2.1705,-2.1413,-2.1727,-2.1785,-2.1848,-2.1716,-2.1569,-2.1162,-2.0828,-2.0583,-2.0232,-2.0246,-2.0461,-2.0511,-2.0612,-2.0712,-2.0699,-2.0699,-2.0699,-2.0699,-2.0712,-2.0762,-2.0762,-2.0875,-2.0924,-2.0911,-2.0898,-2.0997,-2.1095,-2.1095,-2.1193,-2.1375,-2.1471,-2.1582,-2.1725,-2.1855,-2.2231,-2.2523,-2.2601,-2.2692,-2.2797,-2.2797,-2.2737,-2.2826,-2.2902,-2.3163,-2.3277,-2.3331,-2.3363,-2.3146,-2.2893,-2.27,-2.2583,-2.2133,-2.1708,-2.1524,-2.1352,-2.1421,-2.6714,-2.6037,-2.5746,-2.5465,-2.5312,-2.5312,-2.5312,-2.5312,-2.5312,-2.5312,-2.5312,-2.5312,-2.5312,-2.5312,-2.5382,-2.5465,-2.5441,-2.5535,-2.5465,-2.5382,-2.5382,-2.5382,-2.5288,-2.5288,-2.5382,-2.5465,-2.5535,-2.5746,-2.591,-2.598,-2.6062,-2.6062,-2.627,-2.6133,-2.5884,-2.584,-2.5523,-2.5021,-2.4595,-2.4184,-2.3615,-2.3499,-2.3252,-2.3125,-2.2748,-2.253,-2.2555,-2.2432,-2.2494,-2.2494,-2.2494,-2.2371,-2.2309,-2.2309,-2.2247,-2.2247,-2.2247,-2.2079,-2.1751,-2.1993,-2.2046,-2.1766,-2.1973,-2.1825,-2.1368,-2.102,-2.068,-2.027,-2.0195,-2.0398,-2.0511,-2.0562,-2.0612,-2.0699,-2.0699,-2.0699,-2.0699,-2.0699,-2.0699,-2.0699,-2.0749,-2.0812,-2.0812,-2.0861,-2.0911,-2.0961,-2.1059,-2.1144,-2.1277,-2.1375,-2.1423,-2.1568,-2.1712,-2.1996,-2.2278,-2.2417,-2.2509,-2.2661,-2.2615,-2.2601,-2.2449,-2.2402,-2.2203,-2.2169,-2.2189,-2.2339,-2.2055,-2.1827,-2.161,-2.1389,-2.1033,-2.0727,-2.0599,-2.0534,-2.0683,-2.6481,-2.5807,-2.5652,-2.5334,-2.4968,-2.5146,-2.5028,-2.4956,-2.4991,-2.4895,-2.4777,-2.4742,-2.4718,-2.4765,-2.4823,-2.4823,-2.4883,-2.4965,-2.5035,-2.4927,-2.5047,-2.5119,-2.5119,-2.5047,-2.4975,-2.5047,-2.5083,-2.5368,-2.5676,-2.584,-2.584,-2.591,-2.6062,-2.5877,-2.5487,-2.5462,-2.4937,-2.4365,-2.3707,-2.3438,-2.3228,-2.2748,-2.2563,-2.2871,-2.2474,-2.2247,-2.2371,-2.2309,-2.2309,-2.2309,-2.2309,-2.2197,-2.2197,-2.2197,-2.2197,-2.2197,-2.2309,-2.2116,-2.2078,-2.2075,-2.2204,-2.1998,-2.2138,-2.1732,-2.1154,-2.0916,-2.0718,-2.018,-2.0093,-2.0246,-2.036,-2.0474,-2.0562,-2.0649,-2.0699,-2.0699,-2.0699,-2.0699,-2.0699,-2.0699,-2.0699,-2.0699,-2.0699,-2.0762,-2.0812,-2.0924,-2.0974,-2.1109,-2.1193,-2.1229,-2.1326,-2.1423,-2.1616,-2.1793,-2.203,-2.2231,-2.2324,-2.2463,-2.2324,-2.2231,-2.1983,-2.1827,-2.1575,-2.1369,-2.1334,-2.1437,-2.1091,-2.093,-2.0901,-2.0627,-2.0144,-1.994,-2.0093,-2.0144,-2.0144,-2.5473,-2.5376,-2.4685,-2.4151,-2.3897,-2.4543,-2.4413,-2.3804,-2.4073,-2.371,-2.3212,-2.3062,-2.3166,-2.3257,-2.3485,-2.3506,-2.3692,-2.4113,-2.4285,-2.4094,-2.4378,-2.457,-2.4566,-2.4121,-2.4422,-2.465,-2.4687,-2.4903,-2.5296,-2.5557,-2.5606,-2.5676,-2.584,-2.58,-2.5399,-2.5124,-2.4816,-2.4263,-2.3518,-2.3135,-2.2986,-2.2501,-2.2522,-2.2654,-2.2498,-2.2185,-2.2247,-2.2185,-2.2223,-2.2125,-2.2149,-2.2173,-2.2197,-2.2197,-2.2197,-2.2197,-2.2247,-2.2285,-2.2421,-2.248,-2.2551,-2.2418,-2.2389,-2.1995,-2.1292,-2.0489,-2.0087,-1.9899,-1.9926,-2.0093,-2.0246,-2.0347,-2.0511,-2.0612,-2.0599,-2.0649,-2.0649,-2.0649,-2.0649,-2.0699,-2.0649,-2.0699,-2.0699,-2.0699,-2.0762,-2.0825,-2.0938,-2.1023,-2.1109,-2.1144,-2.1229,-2.1375,-2.1471,-2.165,-2.1684,-2.1888,-2.1983,-2.2109,-2.1874,-2.1698,-2.1444,-2.1188,-2.0944,-2.0782,-2.0733,-2.0683,-2.0597,-2.0446,-2.0308,-2.0156,-1.9901,-1.985,-1.985,-1.9798,-1.9798,-2.4859,-2.474,-2.3973,-2.3468,-2.3098,-2.3445,-2.341,-2.3156,-2.3178,-2.3051,-2.273,-2.2695,-2.2695,-2.2661,-2.2854,-2.2933,-2.3036,-2.3346,-2.3346,-2.3293,-2.3561,-2.389,-2.4089,-2.3994,-2.4049,-2.427,-2.453,-2.4614,-2.4903,-2.5238,-2.5465,-2.5465,-2.5569,-2.5286,-2.5066,-2.4615,-2.3945,-2.3296,-2.2756,-2.2585,-2.2474,-2.2342,-2.2306,-2.2522,-2.2306,-2.2221,-2.2197,-2.2197,-2.2005,-2.1861,-2.1753,-2.1572,-2.1464,-2.1536,-2.174,-2.1765,-2.2041,-2.2285,-2.2445,-2.2407,-2.2476,-2.2384,-2.2126,-2.1568,-2.1004,-2.0363,-1.9823,-1.9798,-1.9862,-1.9914,-2.0029,-2.0144,-2.0283,-2.0334,-2.0398,-2.0448,-2.0448,-2.0549,-2.0549,-2.0612,-2.0662,-2.0662,-2.0649,-2.0712,-2.0712,-2.0762,-2.0825,-2.0875,-2.101,-2.1158,-2.1242,-2.1375,-2.1423,-2.1471,-2.1458,-2.1541,-2.1479,-2.1479,-2.1015,-2.0832,-2.0746,-2.0497,-2.0295,-2.0105,-1.9952,-1.9965,-2.0016,-2.0016,-1.9952,-1.9901,-1.9798,-1.9798,-1.9798,-1.9798,-1.9847,-2.4226,-2.3729,-2.3273,-2.2784,-2.2275,-2.2457,-2.2446,-2.2252,-2.232,-2.224,-2.2082,-2.1969,-2.1969,-2.2059,-2.2069,-2.2079,-2.217,-2.2386,-2.2407,-2.2463,-2.2701,-2.3068,-2.3136,-2.3207,-2.3292,-2.3863,-2.3798,-2.4006,-2.43,-2.4776,-2.5182,-2.5312,-2.5465,-2.5114,-2.4418,-2.4026,-2.3494,-2.2476,-2.2282,-2.2246,-2.2234,-2.2221,-2.2197,-2.2209,-2.2197,-2.2197,-2.2197,-2.2197,-2.1957,-2.1548,-2.1464,-2.126,-2.0899,-2.1211,-2.1452,-2.1584,-2.1897,-2.2235,-2.2286,-2.2274,-2.2157,-2.1977,-2.1668,-2.1267,-2.0539,-2.0087,-1.9795,-1.9629,-1.9747,-1.9811,-1.9759,-1.9772,-1.9978,-2.0016,-2.0067,-2.0118,-2.0182,-2.0334,-2.0398,-2.0448,-2.0498,-2.0612,-2.0662,-2.0662,-2.0712,-2.0699,-2.0712,-2.0775,-2.0924,-2.1059,-2.1193,-2.1326,-2.1215,-2.1215,-2.1153,-2.114,-2.1042,-2.0832,-2.0383,-2.0181,-2.0144,-1.9952,-1.9668,-1.9473,-1.9368,-1.9473,-1.9668,-1.9668,-1.9604,-1.9759,-1.9798,-1.9747,-1.9747,-1.9747,-1.9895,-2.3319,-2.2306,-2.257,-2.2015,-2.114,-2.1878,-2.1777,-2.1174,-2.1353,-2.1074,-2.0599,-2.0358,-2.0501,-2.0511,-2.085,-2.0882,-2.0815,-2.1613,-2.1567,-2.1564,-2.1763,-2.2062,-2.2139,-2.2031,-2.1835,-2.2321,-2.2771,-2.3115,-2.3485,-2.4294,-2.4826,-2.5241,-2.5312,-2.5264,-2.4711,-2.3923,-2.3188,-2.2354,-2.2197,-2.2197,-2.2197,-2.2197,-2.2197,-2.2197,-2.2197,-2.2197,-2.2197,-2.2137,-2.1849,-2.1332,-2.1187,-2.1019,-2.0634,-2.0995,-2.1235,-2.15,-2.1897,-2.2149,-2.2249,-2.2226,-2.22,-2.203,-2.1556,-2.0891,-2.0137,-2.0413,-2.0089,-1.9312,-1.95,-1.9436,-1.9331,-1.9291,-1.9552,-1.9552,-1.9604,-1.9759,-1.9862,-2.0131,-2.0233,-2.0233,-2.0347,-2.0461,-2.0562,-2.0612,-2.0662,-2.0699,-2.0699,-2.0762,-2.0875,-2.1023,-2.1144,-2.118,-2.0957,-2.0845,-2.0795,-2.0696,-2.0459,-2.0295,-2.0003,-1.9837,-1.9798,-1.9512,-1.9263,-1.9263,-1.921,-1.9316,-1.9368,-1.942,-1.9512,-1.9708,-1.9747,-1.9708,-1.9604,-1.9565,-1.9784,-2.3615,-2.2149,-2.2254,-2.1529,-2.0435,-2.0753,-2.0731,-2.0445,-2.0545,-2.0457,-2.0085,-2.0085,-2.0085,-2.0151,-2.0205,-2.027,-2.0346,-2.0543,-2.0651,-2.0694,-2.0913,-2.128,-2.1311,-2.1384,-2.1486,-2.1812,-2.2122,-2.2488,-2.297,-2.3617,-2.4272,-2.4743,-2.5051,-2.4807,-2.4278,-2.3532,-2.2727,-2.2414,-2.2209,-2.2197,-2.2197,-2.2197,-2.2197,-2.2197,-2.2197,-2.2197,-2.2149,-2.1861,-2.144,-2.1019,-2.067,-2.0406,-2.0334,-2.073,-2.1091,-2.1392,-2.1861,-2.2149,-2.2089,-2.1971,-2.1663,-2.1032,-2.0603,-2.0182,-1.9733,-1.98,-1.9536,-1.9194,-1.9146,-1.9081,-1.8632,-1.8815,-1.9146,-1.9028,-1.9069,-1.9186,-1.9448,-1.9656,-1.9811,-1.9759,-2.008,-2.0347,-2.0461,-2.0575,-2.0612,-2.0712,-2.0712,-2.0712,-2.0762,-2.0812,-2.0848,-2.0822,-2.061,-2.0597,-2.0547,-2.0207,-1.9875,-1.972,-1.9552,-1.95,-1.9448,-1.9291,-1.9105,-1.9105,-1.9105,-1.9158,-1.921,-1.9275,-1.942,-1.9565,-1.9617,-1.9512,-1.9473,-1.9368,-1.9572,-2.3707,-2.2175,-2.2101,-2.1313,-2.014,-2.0085,-2.0085,-2.0085,-2.0161,-2.0085,-2.0085,-2.0085,-2.0085,-2.0085,-2.0085,-2.0151,-2.0151,-2.0183,-2.0161,-2.0227,-2.0466,-2.0675,-2.0872,-2.0969,-2.0933,-2.1325,-2.1618,-2.1878,-2.2252,-2.2773,-2.3465,-2.413,-2.4401,-2.4101,-2.4061,-2.3015,-2.2438,-2.2414,-2.2258,-2.2342,-2.239,-2.227,-2.2197,-2.2197,-2.2197,-2.2197,-2.2053,-2.1765,-2.1344,-2.0899,-2.049,-2.0045,-2.0105,-2.0394,-2.0875,-2.1296,-2.174,-2.2149,-2.2029,-2.1596,-2.1128,-2.0779,-2.0054,-1.9781,-1.9457,-1.9189,-1.8951,-1.8441,-1.8536,-1.8483,-1.7929,-1.8147,-1.8429,-1.8363,-1.819,-1.8352,-1.8685,-1.8951,-1.9121,-1.9226,-1.9488,-1.9592,-1.9656,-1.9708,-2.0258,-2.0461,-2.0712,-2.0549,-2.0334,-2.0385,-2.0372,-2.0308,-2.0156,-2.0194,-2.0245,-1.9798,-1.946,-1.9408,-1.9251,-1.9198,-1.9093,-1.8987,-1.8987,-1.904,-1.9052,-1.9052,-1.9117,-1.917,-1.9275,-1.9368,-1.9368,-1.9368,-1.9316,-1.9275,-1.9279,-2.3305,-2.2163,-2.2101,-2.1302,-2.0151,-2.0085,-2.0085,-2.0085,-2.0085,-2.0085,-2.0085,-2.0085,-2.0085,-2.0085,-2.0085,-2.0085,-2.0085,-2.0085,-2.0085,-2.0151,-2.0151,-2.0172,-2.0183,-2.0325,-2.039,-2.0282,-2.0654,-2.1174,-2.1531,-2.217,-2.2796,-2.3062,-2.3236,-2.3269,-2.4166,-2.3394,-2.2979,-2.2859,-2.2253,-2.2348,-2.2444,-2.2291,-2.2221,-2.2197,-2.2197,-2.2197,-2.2077,-2.168,-2.1296,-2.1019,-2.0682,-2.0298,-2.0045,-2.0742,-2.1043,-2.083,-2.162,-2.2027,-2.2051,-2.1305,-2.0879,-2.0734,-2.008,-1.9509,-1.9114,-1.8842,-1.845,-1.7843,-1.7875,-1.7754,-1.7479,-1.7313,-1.7644,-1.7655,-1.7545,-1.7644,-1.8027,-1.8417,-1.8632,-1.8738,-1.8525,-1.8405,-1.8513,-1.8792,-1.9617,-2.0105,-2.0562,-2.0448,-2.0016,-1.9862,-1.9901,-1.9798,-1.9643,-1.9643,-1.9631,-1.9279,-1.904,-1.904,-1.904,-1.904,-1.8987,-1.8987,-1.8987,-1.8987,-1.9011,-1.9088,-1.9035,-1.9035,-1.9218,-1.9348,-1.9235,-1.9223,-1.917,-1.9182,-1.9214,-2.2951,-2.2101,-2.2101,-2.1313,-2.0216,-2.0085,-2.0085,-2.0085,-2.0085,-2.0085,-2.0085,-2.0085,-2.0085,-2.0085,-2.0085,-2.0085,-2.0085,-2.0085,-2.0085,-2.0085,-2.0085,-2.0085,-2.0085,-2.0085,-2.0085,-2.0118,-2.038,-2.0709,-2.1073,-2.1564,-2.2049,-2.2329,-2.209,-2.198,-2.1959,-2.1608,-2.1361,-2.1175,-2.1215,-2.1544,-2.1759,-2.1969,-2.2123,-2.2061,-2.2061,-2.2061,-2.2025,-2.1474,-2.1129,-2.0914,-2.0592,-2.0377,-2.0232,-2.083,-2.0914,-2.0721,-2.1218,-2.0864,-2.0871,-2.0492,-2.0594,-2.0433,-1.9951,-1.9246,-1.894,-1.8557,-1.7977,-1.7423,-1.7324,-1.7213,-1.6786,-1.709,-1.7268,-1.7011,-1.6955,-1.7268,-1.7589,-1.7984,-1.8255,-1.8309,-1.8201,-1.8322,-1.8469,-1.8377,-1.9006,-1.9238,-1.9543,-1.9641,-1.9291,-1.9303,-1.9291,-1.9226,-1.9174,-1.9121,-1.8963,-1.8869,-1.8934,-1.8987,-1.904,-1.8987,-1.8987,-1.8987,-1.8987,-1.8934,-1.9035,-1.9071,-1.9179,-1.9263,-1.9257,-1.9298,-1.9274,-1.9177,-1.9105,-1.9052,-1.9076,-2.2954,-2.2213,-2.2335,-2.1561,-2.0306,-2.0128,-2.0085,-2.0085,-2.0085,-2.0085,-2.0085,-2.0085,-2.0085,-2.0085,-2.0085,-2.0085,-2.0085,-2.0085,-2.0085,-2.0085,-2.0085,-2.0085,-2.0085,-2.0085,-2.0085,-2.0118,-2.0336,-2.0555,-2.0643,-2.084,-2.1062,-2.114,-2.1112,-2.0673,-2.0413,-2.025,-2.0588,-2.0599,-2.0826,-2.0865,-2.1073,-2.1284,-2.1411,-2.1348,-2.1411,-2.1411,-2.1323,-2.102,-2.0635,-2.0426,-2.0309,-2.0204,-2.0193,-2.0557,-2.056,-2.0455,-2.0396,-2.0172,-2.0231,-1.9954,-2.0072,-2.0109,-1.9439,-1.8998,-1.8518,-1.7879,-1.7323,-1.6877,-1.6877,-1.6729,-1.6524,-1.6888,-1.6786,-1.6534,-1.6637,-1.6888,-1.7056,-1.739,-1.7501,-1.7556,-1.7645,-1.798,-1.8306,-1.834,-1.8406,-1.8472,-1.8469,-1.8538,-1.8667,-1.8721,-1.8667,-1.856,-1.8548,-1.8548,-1.8602,-1.8655,-1.8774,-1.8987,-1.8987,-1.8934,-1.8934,-1.8881,-1.8881,-1.8958,-1.903,-1.915,-1.9432,-1.9528,-1.9648,-1.9564,-1.945,-1.9305,-1.9047,-1.9035,-1.9071,-2.3315,-2.2372,-2.2824,-2.1959,-2.0515,-2.0253,-2.0151,-2.0085,-2.0085,-2.0085,-2.0085,-2.0085,-2.0085,-2.0085,-2.0085,-2.0085,-2.0085,-2.0085,-2.0085,-2.0085,-2.0085,-2.0085,-2.0085,-2.0085,-2.0085,-2.0303,-2.0347,-2.0182,-2.0107,-2.0111,-1.9991,-1.9782,-1.993,-1.9525,-1.929,-1.9422,-1.9895,-1.9972,-2.0084,-2.0205,-2.0435,-2.0467,-2.0529,-2.0495,-2.0495,-2.0495,-2.0298,-2.0054,-1.9894,-1.9827,-1.972,-1.9493,-1.9673,-2.0385,-2.0061,-1.9775,-1.9759,-1.9738,-1.9673,-1.9296,-1.9326,-1.9302,-1.8707,-1.8447,-1.8045,-1.7294,-1.6705,-1.6446,-1.6343,-1.642,-1.6431,-1.642,-1.642,-1.6363,-1.6363,-1.6467,-1.6477,-1.6591,-1.6591,-1.6637,-1.6637,-1.6895,-1.7339,-1.7546,-1.7934,-1.7932,-1.7935,-1.7967,-1.8073,-1.8127,-1.8018,-1.7755,-1.781,-1.7909,-1.8018,-1.8302,-1.8452,-1.8625,-1.8721,-1.8721,-1.8721,-1.8804,-1.888,-1.8927,-1.903,-1.9239,-1.9591,-1.9945,-2.0229,-2.0073,-1.9757,-1.9737,-1.9586,-1.9312,-1.939,-2.2724,-2.1713,-2.2226,-2.1893,-2.1091,-2.0854,-2.0582,-2.014,-2.0085,-2.0085,-2.0085,-2.0085,-2.0064,-2.0085,-2.0085,-2.0085,-2.0074,-2.0085,-2.0085,-2.0085,-2.0085,-2.0085,-2.0085,-2.0085,-2.0085,-2.0063,-1.9997,-1.9884,-1.9533,-1.9431,-1.9137,-1.8889,-1.8973,-1.8494,-1.8409,-1.8397,-1.8748,-1.9018,-1.9183,-1.9446,-1.9709,-1.979,-1.9835,-1.9901,-1.9901,-1.9901,-1.9814,-1.976,-1.9684,-1.9434,-1.9748,-1.9617,-1.8938,-1.9434,-1.9389,-1.8732,-1.8602,-1.8485,-1.8365,-1.8744,-1.8931,-1.8554,-1.812,-1.78,-1.7488,-1.6922,-1.6316,-1.6124,-1.6019,-1.6087,-1.6144,-1.6144,-1.6134,-1.6192,-1.6192,-1.6239,-1.6306,-1.6374,-1.6374,-1.6394,-1.6394,-1.6622,-1.6933,-1.7138,-1.7516,-1.7474,-1.7489,-1.75,-1.7523,-1.7634,-1.7645,-1.7379,-1.7379,-1.7601,-1.7723,-1.7954,-1.8096,-1.8247,-1.8457,-1.8546,-1.8426,-1.8542,-1.8774,-1.9132,-1.9629,-1.9826,-1.9897,-2.0251,-2.0736,-2.0358,-2.003,-2.0133,-2.0082,-1.9957,-2.0069,-2.2325,-2.1572,-2.2069,-2.1898,-2.1284,-2.0896,-2.0407,-1.9953,-1.9998,-2.0085,-2.0085,-2.0085,-1.9966,-1.9813,-1.9955,-1.9987,-1.9791,-2.0009,-2.0085,-2.0085,-2.0064,-2.0085,-2.0085,-2.0085,-2.0085,-1.9976,-1.9931,-1.9916,-1.9256,-1.8584,-1.8213,-1.827,-1.8222,-1.8177,-1.8141,-1.8291,-1.8154,-1.8222,-1.8327,-1.8519,-1.8854,-1.9044,-1.9187,-1.932,-1.932,-1.9309,-1.9309,-1.9309,-1.9068,-1.8657,-1.8919,-1.8647,-1.8082,-1.826,-1.8596,-1.8053,-1.8131,-1.7767,-1.752,-1.7895,-1.7991,-1.7772,-1.7399,-1.7033,-1.6816,-1.6399,-1.611,-1.5904,-1.5904,-1.5914,-1.5914,-1.5914,-1.5961,-1.6009,-1.6066,-1.6171,-1.6239,-1.6316,-1.6394,-1.6415,-1.656,-1.6767,-1.6926,-1.7037,-1.7188,-1.7312,-1.7374,-1.7253,-1.7323,-1.7434,-1.7434,-1.7334,-1.7334,-1.7434,-1.759,-1.7768,-1.8001,-1.8224,-1.8515,-1.8515,-1.8269,-1.8714,-1.9345,-1.9922,-2.0528,-2.0565,-2.0544,-2.0927,-2.1225,-2.0788,-2.0611,-2.0873,-2.0953,-2.0853,-2.1176,-2.2034,-2.1433,-2.2047,-2.1893,-2.1259,-2.0637,-2.0075,-1.9533,-1.9832,-2.0009,-1.9987,-1.9998,-1.9672,-1.9615,-1.9823,-1.9856,-1.9726,-1.9857,-1.9998,-2.0053,-1.9922,-1.9944,-2.0064,-2.0085,-2.0009,-2.0161,-2.0038,-1.9473,-1.8906,-1.8193,-1.7707,-1.7744,-1.7901,-1.7948,-1.812,-1.818,-1.8025,-1.7881,-1.792,-1.8056,-1.8066,-1.8066,-1.8008,-1.8144,-1.8134,-1.8134,-1.8134,-1.8007,-1.7822,-1.7578,-1.7409,-1.7327,-1.7224,-1.7096,-1.7393,-1.7698,-1.7774,-1.7341,-1.707,-1.7307,-1.7199,-1.6884,-1.6309,-1.6355,-1.6258,-1.6008,-1.577,-1.572,-1.573,-1.573,-1.573,-1.573,-1.5778,-1.5894,-1.6009,-1.6124,-1.6249,-1.6316,-1.6384,-1.6415,-1.6529,-1.6715,-1.6774,-1.6905,-1.7034,-1.7211,-1.7413,-1.7294,-1.7353,-1.742,-1.7366,-1.7355,-1.7345,-1.7445,-1.7655,-1.7879,-1.8003,-1.825,-1.8544,-1.8442,-1.8103,-1.8951,-2.0076,-2.0637,-2.1163,-2.1221,-2.1308,-2.1342,-2.1312,-2.1247,-2.1206,-2.1693,-2.1778,-2.176,-2.2168,-2.1826,-2.0923,-2.1485,-2.1587,-2.1364,-2.0722,-2.037,-2.0147,-1.9326,-1.9153,-1.9331,-1.9175,-1.9295,-1.9629,-1.9506,-1.9583,-1.9737,-1.9583,-1.9759,-1.9878,-1.9812,-1.991,-2.0096,-2.0085,-1.9868,-1.9473,-1.9137,-1.8728,-1.794,-1.7392,-1.7194,-1.7325,-1.7502,-1.7669,-1.7877,-1.7868,-1.7781,-1.7638,-1.7706,-1.7784,-1.7794,-1.794,-1.8008,-1.8008,-1.8008,-1.8008,-1.8008,-1.7988,-1.7959,-1.7852,-1.7529,-1.7187,-1.6797,-1.6543,-1.6596,-1.6967,-1.7288,-1.6953,-1.6699,-1.6748,-1.6816,-1.6455,-1.6103,-1.6164,-1.6068,-1.5674,-1.5498,-1.5488,-1.5488,-1.5546,-1.5546,-1.5594,-1.5594,-1.5778,-1.5961,-1.6144,-1.6259,-1.6316,-1.6374,-1.6436,-1.6508,-1.6597,-1.6665,-1.677,-1.6853,-1.7162,-1.7546,-1.7651,-1.7745,-1.7781,-1.7628,-1.7562,-1.7344,-1.7433,-1.7742,-1.7997,-1.8178,-1.8267,-1.8433,-1.8253,-1.806,-1.9277,-2.0579,-2.1205,-2.1688,-2.1674,-2.1413,-2.0967,-2.0969,-2.116,-2.1453,-2.1756,-2.2456,-2.2583,-2.3132,-2.1288,-2.0714,-2.072,-2.073,-2.0611,-2.0013,-1.9621,-1.9287,-1.8666,-1.8353,-1.8427,-1.8561,-1.8835,-1.9094,-1.8993,-1.9069,-1.9299,-1.9157,-1.9386,-1.9561,-1.9681,-1.9823,-1.99,-2.0053,-1.9726,-1.9309,-1.8509,-1.7852,-1.7245,-1.6978,-1.6978,-1.7107,-1.7176,-1.7304,-1.751,-1.7461,-1.7461,-1.7501,-1.7569,-1.7647,-1.7647,-1.7862,-1.8008,-1.8008,-1.8008,-1.8008,-1.8008,-1.7988,-1.7881,-1.7578,-1.709,-1.6738,-1.6406,-1.625,-1.6113,-1.6279,-1.6543,-1.6719,-1.6289,-1.6289,-1.6533,-1.6074,-1.5801,-1.5821,-1.5782,-1.5498,-1.543,-1.5478,-1.5478,-1.5478,-1.5478,-1.5478,-1.5604,-1.573,-1.5904,-1.6029,-1.6259,-1.6374,-1.6374,-1.6394,-1.6493,-1.6493,-1.6618,-1.6665,-1.6768,-1.707,-1.7453,-1.7915,-1.7995,-1.8228,-1.8054,-1.7923,-1.7813,-1.7857,-1.8232,-1.8364,-1.8386,-1.8414,-1.8545,-1.9135,-1.9624,-2.0303,-2.1048,-2.1796,-2.2134,-2.1933,-2.1575,-2.1085,-2.0886,-2.0997,-2.1349,-2.179,-2.2488,-2.3059,-2.3242,-2.0725,-2.0599,-2.0182,-1.9905,-1.9709,-1.9095,-1.8601,-1.8247,-1.7969,-1.7693,-1.7542,-1.8152,-1.7975,-1.7949,-1.8116,-1.8191,-1.837,-1.8742,-1.9047,-1.9364,-1.9452,-1.9626,-1.9759,-1.9933,-1.9489,-1.8859,-1.8154,-1.7794,-1.7373,-1.7107,-1.6908,-1.6968,-1.7038,-1.7166,-1.7254,-1.7323,-1.7314,-1.7373,-1.7442,-1.751,-1.7657,-1.7803,-1.794,-1.8008,-1.8008,-1.8008,-1.8008,-1.7949,-1.7773,-1.7432,-1.6914,-1.6494,-1.6221,-1.6154,-1.582,-1.5898,-1.625,-1.6133,-1.582,-1.6045,-1.5908,-1.5625,-1.5498,-1.5469,-1.5478,-1.543,-1.542,-1.542,-1.542,-1.543,-1.543,-1.542,-1.5546,-1.573,-1.5904,-1.6029,-1.6259,-1.6394,-1.6405,-1.6405,-1.6472,-1.653,-1.6686,-1.6732,-1.6814,-1.7105,-1.7467,-1.7828,-1.8202,-1.8518,-1.8605,-1.8572,-1.8529,-1.8627,-1.8785,-1.8687,-1.8665,-1.8993,-1.9255,-2.026,-2.1013,-2.1144,-2.1574,-2.2457,-2.2617,-2.1967,-2.1625,-2.1184,-2.1072,-2.0784,-2.1125,-2.1487,-2.205,-2.255,-2.2726,-2.0699,-2.0699,-2.0599,-2.0513,-2.0297,-1.9409,-1.8917,-1.8658,-1.7812,-1.7355,-1.7366,-1.742,-1.7639,-1.7999,-1.8054,-1.8141,-1.8403,-1.86,-1.896,-1.9364,-1.9171,-1.9334,-1.9402,-1.9296,-1.8838,-1.8223,-1.7629,-1.7372,-1.7111,-1.6973,-1.6968,-1.7097,-1.6968,-1.7116,-1.7323,-1.7323,-1.7116,-1.7176,-1.7235,-1.7304,-1.7451,-1.7657,-1.794,-1.8008,-1.8008,-1.8008,-1.8008,-1.8008,-1.7969,-1.7764,-1.7334,-1.6709,-1.636,-1.6096,-1.5752,-1.5615,-1.5967,-1.585,-1.5732,-1.6006,-1.5879,-1.5527,-1.5488,-1.5625,-1.5566,-1.542,-1.542,-1.542,-1.543,-1.5459,-1.5459,-1.542,-1.5536,-1.5846,-1.6087,-1.6202,-1.6374,-1.6467,-1.6539,-1.657,-1.6601,-1.6869,-1.718,-1.7132,-1.7034,-1.7388,-1.7973,-1.8338,-1.855,-1.8855,-1.9116,-1.9003,-1.8992,-1.9163,-1.9214,-1.8931,-1.892,-1.9312,-1.9836,-2.0654,-2.1193,-2.1483,-2.198,-2.2342,-2.2154,-2.1588,-2.1283,-2.0863,-2.066,-2.0363,-2.0728,-2.1191,-2.1658,-2.2035,-2.2198]},{"header":{"parameterUnit":"m.s-1","parameterCategory":1,"la1":31.0,"la2":29.5877,"lo1":-88.7671,"lo2":-86.6584,"dy":0.0162,"dx":0.0185,"nx":115,"ny":88,"refTime":"2023-05-15T12:00:00:Z","depth":0,"parameterNumber":3,"parameterNumberName":"V-component_of_WINDS"},"data":[0.0,0.0,0.0,0.0,0.0,0.0,0.0,0.0,0.0,0.0,0.0,0.0,0.0,0.0,0.0,0.0,0.0,0.0,0.0,0.0,0.0,0.0,0.0,0.0,0.0,0.0,0.0,0.0,0.0,0.0,0.0,0.0,0.0,0.0,0.0,0.0,0.0,0.0,0.0,0.0,0.0,0.0,0.0,0.0,0.0,0.0,0.0,0.0,0.0,0.0,0.0,0.0,0.0,0.0,0.0,0.0,0.0,0.0,0.0,0.0,0.0,0.0,0.0,0.0,0.0,0.0,0.0,0.0,0.0,0.0,0.0,0.0,0.0,0.0,0.0,0.0,0.0,0.0,0.0,0.0,0.0,0.0,0.0,0.0,0.0,0.0,0.0,0.0,0.0,0.0,0.0,0.0,0.0,0.0,0.0,0.0,0.0,0.0,0.0,0.0,0.0,0.0,0.0,0.0,0.0,0.0,0.0,0.0,0.0,0.0,0.0,0.0,0.0,0.0,0.0,0.0,0.0,0.0,0.0,0.0,0.0,0.0,0.0,0.0,0.0,0.0,0.0,0.0,0.0,0.0,0.0,0.0,0.0,0.0,0.0,0.0,0.0,0.0,0.0,0.0,0.0,0.0,0.0,0.0,0.0,0.0,0.0,0.0,0.0,0.0,0.0,0.0,0.0,0.0,0.0,0.0,0.0,0.0,0.0,0.0,0.0,0.0,0.0,0.0,0.0,0.0,0.0,0.0,0.0,0.0,0.0,0.0,0.0,0.0,0.0,0.0,0.0,0.0,0.0,0.0,0.0,0.0,0.0,0.0,0.0,0.0,0.0,0.0,0.0,0.0,0.0,0.0,0.0,0.0,0.0,0.0,0.0,0.0,0.0,0.0,0.0,0.0,0.0,0.0,0.0,0.0,0.0,0.0,0.0,0.0,0.0,0.0,0.0,0.0,0.0,0.0,0.0,0.0,0.0,0.0,0.0,0.0,0.0,0.0,0.0,0.0,0.0,0.0,0.0,0.0,0.0,0.0,0.0,0.0,0.0,0.0,0.0,0.0,0.0,0.0,0.0,0.0,0.0,0.0,0.0,0.0,0.0,0.0,0.0,0.0,0.0,0.0,0.0,0.0,0.0,0.0,0.0,0.0,0.0,0.0,0.0,0.0,0.0,0.0,0.0,0.0,0.0,0.0,0.0,0.0,0.0,0.0,0.0,0.0,0.0,0.0,0.0,0.0,0.0,0.0,0.0,0.0,0.0,0.0,0.0,0.0,0.0,0.0,0.0,0.0,0.0,0.0,0.0,0.0,0.0,0.0,0.0,0.0,0.0,0.0,0.0,0.0,0.0,0.0,0.0,0.0,0.0,0.0,0.0,0.0,0.0,0.0,0.0,0.0,0.0,0.0,0.0,0.0,0.0,0.0,0.0,0.0,0.0,0.0,0.0,0.0,0.0,0.0,0.0,0.0,0.0,0.0,0.0,0.0,0.0,0.0,0.0,0.0,0.0,0.0,0.0,0.0,0.0,0.0,0.0,0.0,0.0,0.0,0.0,0.0,0.0,0.0,0.0,0.0,0.0,0.0,0.0,0.0,0.0,0.0,0.0,0.0,0.0,0.0,0.0,0.0,0.0,0.0,0.0,0.0,0.0,0.0,0.0,0.0,0.0,0.0,0.0,0.0,0.0,0.0,0.0,0.0,0.0,0.0,0.0,0.0,0.0,0.0,0.0,0.0,0.0,0.0,0.0,0.0,0.0,0.0,0.0,0.0,0.0,0.0,0.0,0.0,0.0,0.0,0.0,0.0,0.0,0.0,0.0,0.0,0.0,0.0,0.0,0.0,0.0,0.0,0.0,0.0,0.0,0.0,0.0,0.0,0.0,0.0,0.0,0.0,0.0,0.0,0.0,0.0,0.0,0.0,0.0,0.0,0.0,0.0,0.0,0.0,0.0,0.0,0.0,0.0,0.0,0.0,0.0,0.0,0.0,0.0,0.0,0.0,0.0,0.0,0.0,0.0,0.0,0.0,0.0,0.0,0.0,0.0,0.0,0.0,0.0,0.0,0.0,0.0,0.0,0.0,0.0,0.0,0.0,0.0,0.0,0.0,0.0,0.0,0.0,0.0,0.0,0.0,0.0,0.0,0.0,0.0,0.0,0.0,0.0,0.0,0.0,0.0,0.0,0.0,0.0,0.0,0.0,0.0,0.0,0.0,0.0,0.0,0.0,0.0,0.0,0.0,0.0,0.0,0.0,0.0,0.0,0.0,0.0,0.0,0.0,0.0,0.0,0.0,0.0,0.0,0.0,0.0,0.0,0.0,0.0,0.0,0.0,0.0,0.0,0.0,0.0,0.0,0.0,0.0,0.0,0.0,0.0,0.0,0.0,0.0,0.0,0.0,0.0,0.0,0.0,0.0,0.0,0.0,0.0,0.0,0.0,0.0,0.0,0.0,0.0,0.0,0.0,0.0,0.0,0.0,0.0,0.0,0.0,0.0,0.0,0.0,0.0,0.0,0.0,0.0,0.0,0.0,0.0,0.0,0.0,0.0,0.0,0.0,0.0,0.0,0.0,0.0,0.0,0.0,0.0,0.0,0.0,0.0,0.0,0.0,0.0,0.0,0.0,0.0,0.0,0.0,0.0,0.0,0.0,0.0,0.0,0.0,0.0,0.0,0.0,0.0,0.0,0.0,0.0,0.0,0.0,0.0,0.0,0.0,0.0,0.0,0.0,0.0,0.0,0.0,0.0,0.0,0.0,0.0,0.0,0.0,0.0,0.0,0.0,0.0,0.0,0.0,0.0,0.0,0.0,0.0,0.0,0.0,0.0,0.0,0.0,0.0,0.0,0.0,0.0,0.0,0.0,0.0,0.0,0.0,0.0,0.0,0.0,0.0,0.0,0.0,0.0,0.0,0.0,0.0,0.0,0.0,0.0,0.0,0.0,0.0,0.0,0.0,0.0,0.0,0.0,0.0,0.0,0.0,0.0,0.0,0.0,0.0,0.0,0.0,0.0,0.0,0.0,0.0,0.0,0.0,0.0,0.0,0.0,0.0,0.0,0.0,0.0,0.0,0.0,0.0,0.0,0.0,0.0,0.0,0.0,0.0,0.0,0.0,0.0,0.0,0.0,0.0,0.0,0.0,0.0,0.0,0.0,0.0,0.0,0.0,0.0,0.0,0.0,0.0,0.0,0.0,0.0,0.0,0.0,0.0,0.0,0.0,0.0,0.0,0.0,0.0,0.0,0.0,0.0,0.0,0.0,0.0,0.0,0.0,0.0,0.0,0.0,0.0,0.0,0.0,0.0,0.0,0.0,0.0,0.0,0.0,0.0,0.0,0.0,0.0,0.0,0.0,0.0,0.0,0.0,0.0,0.0,0.0,0.0,0.0,0.0,0.0,0.0,0.0,0.0,0.0,0.0,0.0,0.0,0.0,0.0,0.0,0.0,0.0,0.0,0.0,0.0,0.0,0.0,0.0,0.0,0.0,0.0,0.0,0.0,0.0,0.0,0.0,0.0,0.0,0.0,0.0,0.0,0.0,0.0,0.0,0.0,0.0,0.0,0.0,0.0,0.0,0.0,0.0,0.0,0.0,0.0,0.0,0.0,0.0,0.0,0.0,0.0,0.0,0.0,0.0,0.0,0.0,0.0,0.0,0.0,0.0,0.0,0.0,0.0,0.0,0.0,0.0,0.0,0.0,0.0,0.0,0.0,0.0,0.0,0.0,0.0,0.0,0.0,0.0,0.0,0.0,0.0,0.0,0.0,0.0,0.0,0.0,0.0,0.0,0.0,0.0,0.0,0.0,0.0,0.0,0.0,0.0,0.0,0.0,0.0,0.0,0.0,0.0,0.0,0.0,0.0,0.0,0.0,0.0,0.0,0.0,0.0,0.0,0.0,0.0,0.0,0.0,0.0,0.0,0.0,0.0,0.0,0.0,0.0,0.0,0.0,0.0,0.0,0.0,0.0,0.0,0.0,0.0,0.0,0.0,0.0,0.0,0.0,0.0,0.0,0.0,0.0,0.0,0.0,0.0,0.0,0.0,0.0,0.0,0.0,0.0,0.0,0.0,0.0,0.0,0.0,0.0,0.0,0.0,0.0,0.0,0.0,0.0,0.0,0.0,0.0,0.0,0.0,0.0,0.0,0.0,0.0,0.0,0.0,0.0,0.0,0.0,0.0,0.0,0.0,0.0,0.0,0.0,0.0,0.0,0.0,0.0,0.0,0.0,0.0,0.0,0.0,0.0,0.0,0.0,0.0,0.0,0.0,0.0,0.0,0.0,-1.0738,0.0,0.0,0.0,0.0,0.0,0.0,0.0,0.0,0.0,0.0,0.0,0.0,0.0,0.0,0.0,0.0,0.0,0.0,0.0,0.0,0.0,0.0,0.0,0.0,0.0,0.0,0.0,0.0,0.0,0.0,0.0,0.0,0.0,0.0,0.0,0.0,0.0,0.0,0.0,0.0,0.0,0.0,0.0,0.0,0.0,0.0,0.0,0.0,0.0,0.0,0.0,0.0,0.0,0.0,0.0,0.0,0.0,0.0,0.0,0.0,0.0,0.0,0.0,0.0,0.0,0.0,0.0,0.0,0.0,0.0,0.0,0.0,0.0,0.0,0.0,0.0,0.0,0.0,0.0,0.0,0.0,0.0,0.0,0.0,0.0,0.0,0.0,0.0,0.0,0.0,0.0,0.0,0.0,0.0,0.0,0.0,0.0,0.0,0.0,0.0,0.0,0.0,0.0,0.0,0.0,0.0,0.0,0.0,0.0,0.0,-1.1806,-1.1146,-1.0872,-1.074,-1.0872,0.0,0.0,0.0,0.0,0.0,0.0,0.0,0.0,0.0,0.0,0.0,0.0,0.0,0.0,0.0,0.0,0.0,0.0,0.0,0.0,0.0,0.0,0.0,0.0,0.0,0.0,0.0,0.0,0.0,0.0,0.0,0.0,0.0,0.0,0.0,0.0,0.0,0.0,0.0,0.0,0.0,0.0,0.0,0.0,0.0,0.0,0.0,0.0,0.0,0.0,0.0,0.0,0.0,0.0,0.0,0.0,0.0,0.0,0.0,0.0,0.0,0.0,0.0,0.0,0.0,0.0,0.0,0.0,0.0,0.0,0.0,0.0,0.0,0.0,0.0,0.0,0.0,0.0,0.0,0.0,0.0,0.0,0.0,0.0,0.0,0.0,0.0,0.0,0.0,0.0,0.0,0.0,0.0,0.0,0.0,0.0,0.0,0.0,0.0,0.0,0.0,0.0,0.0,0.0,0.0,0.0,0.0,0.0,0.0,0.0,0.0,0.0,-1.0545,-1.0581,-1.1,0.0,0.0,0.0,0.0,0.0,0.0,0.0,0.0,0.0,0.0,0.0,0.0,0.0,0.0,0.0,0.0,0.0,0.0,0.0,0.0,0.0,0.0,0.0,0.0,0.0,0.0,0.0,0.0,0.0,0.0,0.0,0.0,0.0,0.0,0.0,0.0,0.0,0.0,0.0,0.0,0.0,0.0,0.0,0.0,0.0,0.0,0.0,0.0,0.0,0.0,0.0,0.0,0.0,0.0,0.0,0.0,0.0,0.0,0.0,0.0,0.0,0.0,0.0,0.0,0.0,0.0,0.0,0.0,0.0,0.0,0.0,0.0,0.0,0.0,0.0,0.0,0.0,0.0,0.0,0.0,0.0,0.0,0.0,0.0,0.0,0.0,0.0,0.0,0.0,0.0,0.0,0.0,0.0,0.0,0.0,0.0,0.0,0.0,0.0,0.0,0.0,0.0,0.0,0.0,0.0,0.0,0.0,0.0,0.0,0.0,-1.0123,-1.0549,-1.0481,0.0,-1.0996,0.0,0.0,0.0,0.0,0.0,0.0,0.0,0.0,0.0,0.0,0.0,0.0,0.0,0.0,0.0,0.0,0.0,0.0,0.0,0.0,0.0,0.0,0.0,0.0,0.0,0.0,0.0,0.0,0.0,0.0,0.0,0.0,0.0,0.0,0.0,0.0,0.0,0.0,0.0,0.0,0.0,0.0,0.0,0.0,0.0,0.0,0.0,0.0,0.0,0.0,0.0,0.0,0.0,0.0,0.0,0.0,0.0,0.0,0.0,0.0,0.0,0.0,0.0,0.0,0.0,0.0,0.0,0.0,0.0,0.0,0.0,0.0,0.0,0.0,0.0,0.0,0.0,0.0,0.0,0.0,0.0,0.0,0.0,0.0,0.0,0.0,0.0,0.0,0.0,0.0,0.0,0.0,0.0,0.0,0.0,0.0,0.0,0.0,0.0,0.0,0.0,0.0,0.0,0.0,0.0,0.0,0.0,0.0,0.0,0.0,-0.8501,-0.888,-1.0155,-1.1199,0.0,0.0,0.0,0.0,0.0,0.0,0.0,0.0,0.0,0.0,0.0,0.0,0.0,0.0,0.0,0.0,0.0,0.0,0.0,0.0,0.0,0.0,0.0,0.0,0.0,0.0,0.0,0.0,0.0,0.0,0.0,0.0,0.0,0.0,0.0,0.0,0.0,0.0,0.0,0.0,0.0,0.0,0.0,0.0,0.0,0.0,0.0,0.0,0.0,0.0,0.0,0.0,0.0,0.0,0.0,0.0,0.0,0.0,0.0,0.0,0.0,0.0,0.0,0.0,0.0,0.0,0.0,0.0,0.0,0.0,0.0,0.0,0.0,0.0,0.0,0.0,0.0,0.0,0.0,0.0,0.0,0.0,0.0,0.0,0.0,0.0,0.0,0.0,0.0,0.0,0.0,0.0,0.0,0.0,0.0,0.0,0.0,0.0,0.0,0.0,0.0,0.0,0.0,0.0,0.0,0.0,0.0,0.0,0.0,0.0,-0.6175,-0.6912,-0.7865,-0.9904,-1.1353,-1.2117,0.0,0.0,0.0,0.0,0.0,0.0,0.0,0.0,0.0,0.0,0.0,0.0,0.0,0.0,0.0,0.0,0.0,0.0,0.0,0.0,0.0,0.0,0.0,0.0,0.0,0.0,0.0,0.0,0.0,0.0,0.0,0.0,0.0,0.0,0.0,0.0,0.0,0.0,0.0,0.0,0.0,0.0,0.0,0.0,0.0,0.0,0.0,0.0,0.0,0.0,0.0,0.0,0.0,0.0,0.0,0.0,0.0,0.0,0.0,0.0,0.0,0.0,0.0,0.0,0.0,0.0,0.0,0.0,0.0,0.0,0.0,0.0,0.0,0.0,0.0,0.0,0.0,0.0,0.0,0.0,0.0,0.0,0.0,0.0,0.0,0.0,0.0,0.0,0.0,0.0,0.0,0.0,0.0,0.0,0.0,0.0,0.0,0.0,0.0,0.0,0.0,0.0,0.0,0.0,0.0,0.0,0.0,0.0,-0.4628,-0.4378,-0.5408,-0.7681,-0.9816,-1.1109,0.0,0.0,0.0,0.0,0.0,0.0,0.0,0.0,0.0,0.0,0.0,0.0,0.0,0.0,0.0,0.0,0.0,0.0,0.0,0.0,0.0,0.0,0.0,0.0,0.0,0.0,0.0,0.0,0.0,0.0,0.0,0.0,0.0,0.0,0.0,0.0,0.0,0.0,0.0,0.0,0.0,0.0,0.0,0.0,0.0,0.0,0.0,0.0,0.0,0.0,0.0,0.0,0.0,0.0,0.0,0.0,0.0,0.0,0.0,0.0,0.0,0.0,0.0,0.0,0.0,0.0,0.0,0.0,0.0,0.0,0.0,0.0,0.0,0.0,0.0,0.0,0.0,0.0,0.0,0.0,0.0,0.0,0.0,0.0,0.0,0.0,0.0,0.0,0.0,0.0,0.0,0.0,0.0,0.0,0.0,0.0,0.0,0.0,0.0,0.0,0.0,0.0,0.0,0.0,0.0,0.0,0.0,0.0,0.0,-0.278,-0.3667,-0.5104,-0.706,-0.9352,-1.092,0.0,0.0,0.0,0.0,0.0,0.0,0.0,0.0,0.0,0.0,0.0,0.0,0.0,0.0,0.0,0.0,0.0,0.0,0.0,0.0,0.0,0.0,0.0,0.0,0.0,0.0,0.0,0.0,0.0,0.0,0.0,0.0,0.0,0.0,0.0,0.0,0.0,0.0,0.0,0.0,0.0,0.0,0.0,0.0,0.0,0.0,0.0,0.0,0.0,0.0,0.0,0.0,0.0,0.0,0.0,0.0,0.0,0.0,0.0,0.0,0.0,0.0,0.0,0.0,0.0,0.0,0.0,0.0,0.0,0.0,0.0,0.0,0.0,0.0,0.0,0.0,0.0,0.0,0.0,0.0,0.0,0.0,0.0,0.0,0.0,0.0,0.0,0.0,0.0,0.0,0.0,0.0,0.0,0.0,0.0,0.0,0.0,0.0,0.0,0.0,0.0,0.0,0.0,0.0,0.0,0.0,0.0,0.0,0.0,-0.1288,0.0,-0.4474,-0.6218,-0.8374,-1.0284,0.0,0.0,0.0,0.0,0.0,0.0,0.0,0.0,0.0,0.0,0.0,0.0,0.0,0.0,0.0,0.0,0.0,0.0,0.0,0.0,0.0,0.0,0.0,0.0,0.0,0.0,0.0,0.0,0.0,0.0,0.0,0.0,0.0,0.0,0.0,0.0,0.0,0.0,0.0,0.0,0.0,0.0,0.0,0.0,0.0,0.0,0.0,0.0,0.0,0.0,0.0,0.0,0.0,0.0,0.0,0.0,0.0,0.0,0.0,0.0,0.0,0.0,0.0,0.0,0.0,0.0,0.0,0.0,0.0,0.0,0.0,0.0,0.0,0.0,0.0,0.0,0.0,0.0,0.0,0.0,0.0,0.0,0.0,0.0,0.0,0.0,0.0,0.0,0.0,0.0,0.0,0.0,0.0,0.0,0.0,0.0,0.0,0.0,0.0,0.0,0.0,0.0,0.0,0.0,0.0,0.0,0.0,0.0,-0.1361,-0.0529,-0.1779,-0.335,-0.5151,-0.7046,-0.9197,0.0,0.0,0.0,0.0,0.0,0.0,0.0,0.0,0.0,0.0,0.0,0.0,0.0,0.0,0.0,0.0,0.0,0.0,0.0,0.0,0.0,0.0,0.0,0.0,0.0,0.0,0.0,0.0,0.0,0.0,0.0,0.0,0.0,0.0,0.0,0.0,0.0,0.0,0.0,0.0,0.0,0.0,0.0,0.0,0.0,0.0,0.0,0.0,0.0,0.0,0.0,0.0,0.0,0.0,0.0,0.0,0.0,0.0,0.0,0.0,0.0,0.0,0.0,0.0,0.0,0.0,0.0,0.0,0.0,0.0,0.0,0.0,0.0,0.0,0.0,0.0,0.0,0.0,0.0,0.0,0.0,0.0,0.0,0.0,0.0,0.0,0.0,0.0,0.0,0.0,0.0,0.0,0.0,0.0,0.0,0.0,0.0,0.0,0.0,0.0,0.0,0.0,0.0,0.0,0.0,0.0,0.0,0.0,0.0,0.0238,-0.117,-0.2725,-0.4362,-0.686,-0.898,0.0,0.0,0.0,0.0,0.0,0.0,0.0,0.0,0.0,0.0,0.0,0.0,0.0,0.0,0.0,0.0,0.0,0.0,0.0,0.0,0.0,0.0,0.0,0.0,0.0,0.0,0.0,0.0,0.0,0.0,0.0,0.0,0.0,0.0,0.0,0.0,0.0,0.0,0.0,0.0,0.0,0.0,0.0,0.0,0.0,0.0,0.0,0.0,0.0,0.0,0.0,0.0,0.0,0.0,0.0,0.0,0.0,0.0,0.0,0.0,0.0,0.0,0.0,0.0,0.0,0.0,0.0,0.0,0.0,0.0,0.0,0.0,0.0,0.0,0.0,0.0,0.0,0.0,0.0,0.0,0.0,0.0,0.0,0.0,0.0,0.0,0.0,0.0,0.0,0.0,0.0,0.0,0.0,0.0,0.0,0.0,0.0,0.0,0.0,0.0,0.0,0.0,0.0,0.0,0.0,0.0,0.0,0.0,0.0,0.0618,-0.072,-0.2432,-0.4347,-0.6723,-0.8774,-1.0484,0.0,0.0,0.0,0.0,0.0,0.0,0.0,0.0,0.0,0.0,0.0,0.0,0.0,0.0,0.0,0.0,0.0,0.0,0.0,0.0,0.0,0.0,0.0,0.0,0.0,0.0,0.0,0.0,0.0,0.0,0.0,0.0,0.0,0.0,0.0,0.0,0.0,0.0,0.0,0.0,0.0,0.0,0.0,0.0,0.0,0.0,0.0,0.0,0.0,0.0,0.0,0.0,0.0,0.0,0.0,0.0,0.0,0.0,0.0,0.0,0.0,0.0,0.0,0.0,0.0,0.0,0.0,0.0,0.0,0.0,0.0,0.0,0.0,0.0,0.0,0.0,0.0,0.0,0.0,0.0,0.0,0.0,0.0,0.0,0.0,0.0,0.0,0.0,0.0,0.0,0.0,0.0,0.0,0.0,0.0,0.0,0.0,0.0,0.0,0.0,0.0,0.0,0.0,0.0,0.0,0.0,0.0,0.0,0.0605,-0.0596,-0.2417,-0.5023,-0.661,-0.8455,0.0,0.0,0.0,0.0,0.0,0.0,0.0,0.0,0.0,0.0,0.0,0.0,0.0,0.0,0.0,0.0,0.0,0.0,0.0,0.0,0.0,0.0,0.0,0.0,0.0,0.0,0.0,0.0,0.0,0.0,0.0,0.0,0.0,0.0,0.0,0.0,0.0,0.0,0.0,0.0,0.0,0.0,0.0,0.0,0.0,0.0,0.0,0.0,0.0,0.0,0.0,0.0,0.0,0.0,0.0,0.0,0.0,0.0,0.0,0.0,0.0,0.0,0.0,0.0,0.0,0.0,0.0,0.0,0.0,0.0,0.0,0.0,0.0,0.0,0.0,0.0,0.0,0.0,0.0,0.0,0.0,0.0,0.0,0.0,0.0,0.0,0.0,0.0,0.0,0.0,0.0,0.0,0.0,0.0,0.0,0.0,0.0,0.0,0.0,0.0,0.0,0.0,0.0,0.0,0.0,0.0,0.0,0.0,0.0,-0.073,-0.2566,-0.4455,-0.6529,-0.7601,-0.9379,0.0,0.0,0.0,0.0,0.0,0.0,0.0,0.0,0.0,0.0,0.0,0.0,0.0,0.0,0.0,0.0,0.0,0.0,0.0,0.0,0.0,0.0,0.0,0.0,0.0,0.0,0.0,0.0,0.0,0.0,0.0,0.0,0.0,0.0,0.0,0.0,0.0,0.0,0.0,0.0,0.0,0.0,0.0,0.0,0.0,0.0,0.0,0.0,0.0,0.0,0.0,0.0,0.0,0.0,0.0,0.0,0.0,0.0,0.0,0.0,0.0,0.0,0.0,0.0,0.0,0.0,0.0,0.0,0.0,0.0,0.0,0.0,0.0,0.0,0.0,0.0,0.0,0.0,0.0,0.0,0.0,0.0,0.0,0.0,0.0,0.0,0.0,0.0,0.0,0.0,0.0,0.0,0.0,0.0,0.0,0.0,0.0,0.0,0.0,0.0,0.0,0.0,0.0,0.0,0.0,0.0,0.0,0.0,0.0583,-0.1166,-0.3317,-0.5931,-0.8801,-0.8841,-1.0216,0.0,0.0,0.0,0.0,0.0,0.0,0.0,0.0,0.0,0.0,0.0,0.0,0.0,0.0,0.0,0.0,0.0,0.0,0.0,0.0,0.0,0.0,0.0,0.0,0.0,0.0,0.0,0.0,0.0,0.0,0.0,0.0,0.0,0.0,0.0,0.0,0.0,0.0,0.0,0.0,0.0,0.0,0.0,0.0,0.0,0.0,0.0,0.0,0.0,0.0,0.0,0.0,0.0,0.0,0.0,0.0,0.0,0.0,0.0,0.0,0.0,0.0,0.0,0.0,0.0,0.0,0.0,0.0,0.0,0.0,0.0,0.0,0.0,0.0,0.0,0.0,0.0,0.0,0.0,0.0,0.0,0.0,0.0,0.0,0.0,0.0,0.0,0.0,0.0,0.0,0.0,0.0,0.0,0.0,0.0,0.0,0.0,0.0,0.0,0.0,0.0,0.0,0.0,0.0,0.0,0.0,0.0,0.0,0.02,-0.1166,-0.3675,-0.6997,-1.0878,-1.0062,-1.0915,0.0,0.0,0.0,0.0,0.0,0.0,0.0,0.0,0.0,0.0,0.0,0.0,0.0,0.0,0.0,0.0,0.0,0.0,0.0,0.0,0.0,0.0,0.0,0.0,0.0,0.0,0.0,0.0,0.0,0.0,0.0,0.0,0.0,0.0,0.0,0.0,0.0,0.0,0.0,0.0,0.0,0.0,0.0,0.0,0.0,0.0,0.0,0.0,0.0,0.0,0.0,0.0,0.0,0.0,0.0,0.0,0.0,0.0,0.0,0.0,0.0,0.0,0.0,0.0,0.0,0.0,0.0,0.0,0.0,0.0,0.0,0.0,0.0,0.0,0.0,0.0,0.0,0.0,0.0,0.0,0.0,0.0,0.0,0.0,0.0,0.0,0.0,0.0,0.0,0.0,0.0,0.0,0.0,0.0,0.0,0.0,0.0,0.0,0.0,0.0,0.0,0.0,0.0,0.0,0.0,0.0,0.0,0.0,-0.1287,-0.2971,-0.5836,-0.8457,-1.0835,-1.0107,-1.1711,0.0,0.0,0.0,0.0,0.0,0.0,0.0,0.0,0.0,0.0,0.0,0.0,0.0,0.0,0.0,0.0,0.0,0.0,0.0,0.0,0.0,0.0,0.0,0.0,0.0,0.0,0.0,0.0,0.0,0.0,0.0,0.0,0.0,0.0,0.0,0.0,0.0,0.0,0.0,0.0,0.0,0.0,0.0,0.0,0.0,0.0,0.0,0.0,-1.3946,0.0,0.0,0.0,0.0,0.0,0.0,0.0,0.0,0.0,0.0,0.0,0.0,0.0,0.0,0.0,0.0,0.0,0.0,0.0,0.0,0.0,0.0,0.0,0.0,0.0,0.0,0.0,0.0,0.0,0.0,0.0,0.0,0.0,0.0,0.0,0.0,0.0,0.0,0.0,0.0,0.0,0.0,0.0,0.0,0.0,0.0,0.0,0.0,0.0,0.0,0.0,0.0,0.0,0.0,0.0,0.0,0.0,0.0,0.0,-0.2657,-0.4343,-0.7177,-0.9532,-1.1445,-1.1344,-1.2897,0.0,0.0,0.0,0.0,0.0,0.0,0.0,0.0,0.0,0.0,0.0,0.0,0.0,0.0,0.0,0.0,0.0,0.0,0.0,0.0,0.0,0.0,0.0,0.0,0.0,0.0,0.0,0.0,0.0,0.0,0.0,0.0,0.0,0.0,0.0,0.0,0.0,0.0,0.0,0.0,0.0,0.0,0.0,0.0,0.0,0.0,0.0,0.0,0.0,0.0,0.0,0.0,0.0,0.0,0.0,0.0,0.0,0.0,0.0,0.0,0.0,0.0,0.0,0.0,0.0,0.0,0.0,0.0,0.0,0.0,0.0,0.0,0.0,0.0,0.0,0.0,0.0,0.0,0.0,0.0,0.0,0.0,0.0,0.0,0.0,0.0,0.0,0.0,0.0,0.0,0.0,0.0,0.0,0.0,0.0,0.0,0.0,0.0,0.0,0.0,0.0,0.0,0.0,0.0,0.0,0.0,0.0,-0.2397,-0.3917,-0.5817,-0.8133,-1.0363,-1.2437,-1.2944,-1.4355,-1.6574,0.0,0.0,0.0,0.0,0.0,0.0,0.0,0.0,0.0,0.0,0.0,0.0,0.0,0.0,0.0,0.0,0.0,0.0,0.0,0.0,0.0,0.0,0.0,0.0,0.0,0.0,0.0,0.0,0.0,0.0,0.0,0.0,0.0,0.0,0.0,0.0,0.0,0.0,-0.6958,-0.6522,0.0,0.0,0.0,0.0,0.0,0.0,0.0,0.0,-1.5624,0.0,0.0,0.0,0.0,0.0,0.0,0.0,0.0,0.0,0.0,0.0,0.0,0.0,0.0,0.0,0.0,0.0,0.0,0.0,0.0,0.0,0.0,0.0,0.0,0.0,0.0,0.0,0.0,0.0,0.0,0.0,0.0,0.0,0.0,0.0,0.0,0.0,0.0,0.0,0.0,0.0,0.0,0.0,0.0,0.0,0.0,0.0,0.0,0.0,0.0,0.0,0.0,0.0,0.0,0.0,0.0,-0.2767,-0.2897,-0.4454,-0.7617,-0.9496,-1.1124,-1.2748,-1.3927,-1.5386,-1.6857,0.0,0.0,0.0,0.0,0.0,0.0,0.0,0.0,0.0,0.0,0.0,0.0,0.0,0.0,0.0,0.0,0.0,0.0,0.0,0.0,0.0,0.0,0.0,0.0,0.0,0.0,0.0,0.0,0.0,0.0,0.0,0.0,0.0,0.0,0.0,0.0,0.0,0.0,0.0,-0.5632,-0.6031,0.0,0.0,0.0,0.0,0.0,0.0,0.0,0.0,-1.7669,0.0,0.0,0.0,0.0,0.0,0.0,0.0,0.0,0.0,0.0,0.0,0.0,0.0,0.0,0.0,0.0,0.0,0.0,0.0,0.0,0.0,0.0,0.0,0.0,0.0,0.0,0.0,0.0,0.0,0.0,0.0,0.0,0.0,0.0,0.0,0.0,0.0,0.0,0.0,0.0,0.0,0.0,0.0,0.0,0.0,0.0,0.0,0.0,0.0,0.0,0.0,0.0,0.0,0.0,0.0,-0.3874,-0.4846,-0.657,-0.9077,-1.0838,-1.257,-1.4117,-1.4879,-1.6214,0.0,0.0,0.0,0.0,0.0,0.0,0.0,0.0,0.0,0.0,0.0,0.0,0.0,0.0,0.0,0.0,0.0,0.0,0.0,0.0,0.0,0.0,0.0,0.0,0.0,0.0,0.0,0.0,0.0,0.0,0.0,0.0,0.0,0.0,0.0,0.0,0.0,0.0,0.0,0.0,-0.6998,-0.7994,-0.997,0.0,0.0,0.0,0.0,0.0,0.0,-1.7279,-1.7912,0.0,0.0,0.0,0.0,0.0,0.0,0.0,0.0,0.0,0.0,0.0,0.0,0.0,0.0,0.0,0.0,0.0,0.0,0.0,0.0,0.0,0.0,0.0,0.0,0.0,0.0,0.0,0.0,0.0,0.0,0.0,0.0,0.0,0.0,0.0,0.0,0.0,0.0,0.0,0.0,0.0,0.0,0.0,0.0,0.0,0.0,0.0,0.0,0.0,0.0,0.0,0.0,0.0,0.0,0.0,-0.5124,-0.7091,-0.9035,-1.0768,-1.2376,-1.4116,-1.5747,-1.5891,-1.6993,0.0,0.0,0.0,0.0,0.0,0.0,0.0,0.0,0.0,0.0,0.0,0.0,0.0,0.0,0.0,0.0,0.0,0.0,0.0,0.0,0.0,0.0,0.0,0.0,0.0,0.0,0.0,0.0,0.0,0.0,0.0,0.0,0.0,0.0,0.0,0.0,0.0,0.0,0.0,0.0,0.0,-0.9962,-1.1503,-1.2843,0.0,0.0,0.0,0.0,-1.782,-1.8218,0.0,0.0,0.0,0.0,0.0,0.0,0.0,0.0,0.0,0.0,0.0,0.0,0.0,0.0,0.0,0.0,0.0,0.0,0.0,0.0,0.0,0.0,0.0,0.0,0.0,0.0,0.0,0.0,0.0,0.0,0.0,0.0,0.0,0.0,0.0,0.0,0.0,0.0,0.0,0.0,0.0,0.0,0.0,0.0,0.0,0.0,0.0,0.0,0.0,0.0,0.0,0.0,0.0,0.0,0.0,0.0,-0.6841,-0.8694,-1.074,-1.3023,-1.4377,-1.5776,-1.7086,-1.7086,-1.788,0.0,0.0,0.0,0.0,0.0,0.0,0.0,0.0,0.0,0.0,0.0,0.0,0.0,0.0,0.0,0.0,0.0,0.0,0.0,0.0,0.0,0.0,0.0,0.0,0.0,0.0,0.0,0.0,0.0,0.0,0.0,0.0,0.0,0.0,0.0,0.0,0.0,0.0,0.0,0.0,0.0,-1.0199,-1.1103,-1.266,-1.3625,0.0,0.0,-1.8702,-2.073,-2.2357,0.0,0.0,0.0,0.0,0.0,0.0,0.0,0.0,0.0,0.0,0.0,0.0,0.0,0.0,0.0,0.0,0.0,0.0,0.0,0.0,0.0,0.0,0.0,0.0,0.0,0.0,0.0,0.0,0.0,0.0,0.0,0.0,0.0,0.0,0.0,0.0,0.0,0.0,0.0,0.0,0.0,0.0,0.0,0.0,0.0,0.0,0.0,0.0,0.0,0.0,0.0,0.0,0.0,0.0,0.0,-0.8087,-0.8135,-1.0328,-1.2187,-1.3603,-1.4862,-1.625,-1.7796,-1.7618,-1.8621,0.0,0.0,0.0,0.0,0.0,0.0,0.0,0.0,0.0,0.0,0.0,0.0,0.0,0.0,0.0,0.0,0.0,0.0,0.0,0.0,0.0,0.0,0.0,0.0,0.0,0.0,0.0,0.0,0.0,0.0,0.0,0.0,0.0,0.0,0.0,0.0,0.0,0.0,0.0,0.0,0.0,0.0,-1.4094,-1.4809,0.0,0.0,0.0,-1.9182,-1.9641,0.0,0.0,0.0,0.0,0.0,0.0,0.0,0.0,0.0,0.0,0.0,0.0,0.0,0.0,0.0,0.0,0.0,0.0,0.0,0.0,0.0,0.0,0.0,0.0,0.0,0.0,0.0,0.0,0.0,0.0,0.0,0.0,0.0,0.0,0.0,0.0,0.0,0.0,0.0,0.0,0.0,0.0,0.0,0.0,0.0,0.0,0.0,0.0,0.0,0.0,0.0,0.0,0.0,0.0,0.0,0.0,0.0,-0.948,-1.2129,-1.3779,-1.4396,-1.5859,-1.7229,-1.8402,-1.8379,0.0,0.0,0.0,0.0,0.0,0.0,0.0,0.0,0.0,0.0,0.0,0.0,0.0,0.0,0.0,0.0,0.0,0.0,0.0,0.0,0.0,0.0,0.0,0.0,0.0,0.0,0.0,-1.2089,0.0,0.0,0.0,0.0,0.0,0.0,0.0,0.0,0.0,0.0,0.0,0.0,0.0,0.0,-1.5505,-1.6742,-1.7098,-1.7908,0.0,0.0,-1.9903,-1.9879,-2.2486,-2.3843,0.0,0.0,0.0,0.0,0.0,0.0,0.0,0.0,0.0,0.0,0.0,0.0,0.0,0.0,0.0,0.0,0.0,0.0,0.0,0.0,0.0,0.0,0.0,0.0,0.0,0.0,0.0,0.0,0.0,0.0,0.0,0.0,0.0,0.0,0.0,0.0,0.0,0.0,0.0,0.0,0.0,0.0,0.0,0.0,0.0,0.0,0.0,0.0,0.0,0.0,0.0,0.0,0.0,0.0,0.0,-1.1252,-1.4302,-1.5963,-1.607,-1.8097,-1.9109,-1.9032,-1.9809,-2.0461,0.0,0.0,0.0,0.0,0.0,0.0,0.0,0.0,0.0,0.0,0.0,0.0,0.0,0.0,0.0,0.0,0.0,0.0,0.0,0.0,0.0,0.0,0.0,0.0,0.0,0.0,0.0,0.0,0.0,0.0,0.0,0.0,0.0,0.0,0.0,0.0,0.0,0.0,0.0,0.0,0.0,-1.7768,-1.7921,-1.8913,-2.023,0.0,0.0,-2.2128,-2.3485,-2.6307,-2.7222,-2.4099,0.0,0.0,0.0,0.0,0.0,0.0,0.0,0.0,0.0,0.0,0.0,0.0,0.0,0.0,0.0,0.0,0.0,0.0,0.0,0.0,0.0,0.0,0.0,0.0,0.0,0.0,0.0,0.0,0.0,0.0,0.0,0.0,0.0,0.0,0.0,0.0,0.0,0.0,0.0,0.0,0.0,0.0,0.0,0.0,0.0,0.0,0.0,0.0,0.0,0.0,0.0,0.0,0.0,-1.3389,-1.3243,-1.5245,-1.6513,-1.6953,-1.8093,-1.9013,-1.9589,-2.0458,-2.1231,0.0,0.0,0.0,0.0,0.0,0.0,0.0,0.0,0.0,0.0,0.0,0.0,0.0,0.0,0.0,0.0,0.0,0.0,0.0,0.0,0.0,0.0,0.0,0.0,0.0,0.0,0.0,0.0,-1.5948,-1.6685,-1.7027,0.0,0.0,0.0,0.0,0.0,0.0,0.0,0.0,0.0,0.0,-1.9451,-2.1113,-2.1224,0.0,0.0,-2.3386,-2.3389,-2.322,-2.5156,-2.5733,-2.3037,-2.2781,0.0,0.0,0.0,0.0,0.0,0.0,0.0,0.0,0.0,0.0,0.0,0.0,0.0,0.0,0.0,0.0,0.0,0.0,0.0,0.0,0.0,0.0,0.0,0.0,0.0,0.0,0.0,0.0,0.0,0.0,0.0,0.0,0.0,0.0,0.0,0.0,0.0,0.0,0.0,0.0,0.0,0.0,0.0,0.0,0.0,0.0,0.0,0.0,0.0,0.0,0.0,0.0,-1.4892,-1.5072,-1.6605,-1.7694,-1.8318,-1.902,-1.9758,-2.0391,-2.1301,-2.2039,0.0,0.0,0.0,0.0,0.0,0.0,0.0,0.0,0.0,0.0,0.0,0.0,0.0,0.0,0.0,0.0,0.0,0.0,0.0,0.0,0.0,0.0,0.0,0.0,0.0,0.0,0.0,0.0,-1.7884,-1.8326,-1.8328,0.0,0.0,0.0,0.0,0.0,0.0,0.0,0.0,0.0,0.0,-2.1368,-2.2877,-2.2469,-2.2433,-2.3434,-2.3254,-2.2837,-2.2551,-2.378,-2.4023,-2.2206,0.0,0.0,0.0,0.0,0.0,0.0,0.0,0.0,0.0,0.0,0.0,0.0,0.0,0.0,0.0,0.0,0.0,0.0,0.0,0.0,0.0,0.0,0.0,0.0,0.0,0.0,0.0,0.0,0.0,0.0,0.0,0.0,0.0,0.0,0.0,0.0,0.0,0.0,0.0,0.0,0.0,0.0,0.0,0.0,0.0,0.0,0.0,0.0,0.0,0.0,0.0,0.0,0.0,-1.6116,-1.6563,-1.8661,-1.9916,-2.0401,-2.137,-2.1791,-2.168,-2.252,-2.2937,-2.2916,0.0,0.0,0.0,0.0,0.0,0.0,0.0,0.0,0.0,0.0,0.0,0.0,0.0,0.0,0.0,0.0,0.0,0.0,0.0,0.0,0.0,0.0,0.0,0.0,0.0,0.0,-1.7546,-1.8572,-1.9223,0.0,0.0,0.0,0.0,0.0,0.0,0.0,0.0,0.0,0.0,-2.1711,-2.3791,-2.2432,-2.2166,-2.2303,-2.2632,-2.0909,-2.0154,-2.2038,-2.2745,-2.2892,0.0,0.0,0.0,0.0,0.0,0.0,0.0,0.0,0.0,0.0,0.0,0.0,0.0,0.0,0.0,0.0,0.0,0.0,0.0,0.0,0.0,0.0,0.0,0.0,0.0,0.0,0.0,-2.2411,-2.2823,0.0,0.0,0.0,0.0,0.0,0.0,0.0,0.0,0.0,0.0,0.0,-2.2542,-2.3859,0.0,0.0,0.0,0.0,0.0,0.0,0.0,0.0,0.0,0.0,0.0,0.0,-1.8042,-1.8585,-2.0108,-2.0984,-2.1314,-2.1762,-2.2229,-2.2702,-2.3238,-2.3694,-2.4131,0.0,0.0,0.0,0.0,0.0,0.0,0.0,0.0,0.0,0.0,0.0,0.0,0.0,0.0,0.0,0.0,0.0,0.0,0.0,0.0,0.0,0.0,0.0,0.0,0.0,-1.8817,0.0,0.0,0.0,0.0,0.0,0.0,0.0,0.0,0.0,0.0,0.0,-1.8613,-2.02,-2.1342,-2.2225,-2.2445,-2.2245,-2.2545,0.0,0.0,0.0,0.0,0.0,0.0,0.0,0.0,0.0,0.0,0.0,0.0,0.0,0.0,-2.5293,-2.395,-2.4701,-2.5654,-2.5943,0.0,0.0,0.0,0.0,0.0,0.0,0.0,0.0,0.0,0.0,0.0,0.0,0.0,0.0,0.0,0.0,-2.5154,0.0,0.0,0.0,0.0,0.0,0.0,0.0,0.0,-2.3857,-2.454,-2.4644,-2.5859,-2.6029,0.0,-2.5409,-2.4366,0.0,0.0,0.0,0.0,0.0,0.0,0.0,0.0,-2.001,-2.0644,-2.1778,-2.2488,-2.2776,-2.2914,-2.3283,-2.3891,-2.4409,-2.4614,-2.4608,-2.4943,-2.4883,0.0,0.0,0.0,0.0,0.0,0.0,0.0,0.0,0.0,0.0,0.0,0.0,0.0,0.0,0.0,0.0,0.0,0.0,0.0,0.0,0.0,0.0,0.0,-2.0456,0.0,0.0,0.0,0.0,0.0,0.0,0.0,0.0,0.0,-1.8491,-1.9133,-2.0152,-2.1816,-2.1887,-2.1818,-2.1591,0.0,0.0,0.0,0.0,0.0,0.0,0.0,-2.0289,-1.981,-2.0517,-2.1421,-2.2482,-2.406,-2.5262,-2.5541,0.0,0.0,-2.5912,-2.6378,-2.7273,-2.7736,-2.782,-2.7708,-2.7243,-2.7211,-2.711,0.0,0.0,0.0,0.0,0.0,0.0,0.0,0.0,-2.6173,-2.6231,0.0,-2.6977,0.0,0.0,0.0,0.0,0.0,0.0,0.0,0.0,-2.6923,-2.7493,-2.62,-2.6757,-2.6966,-2.6621,-2.5835,-2.5647,-2.6013,-2.4647,0.0,0.0,0.0,0.0,0.0,0.0,-2.2008,-2.2703,-2.3689,-2.4437,-2.4801,-2.479,-2.4992,-2.5312,-2.584,-2.5648,-2.4645,-2.5592,-2.5485,-2.4104,-2.5202,0.0,0.0,0.0,0.0,0.0,0.0,0.0,0.0,0.0,0.0,0.0,0.0,0.0,0.0,0.0,0.0,0.0,0.0,0.0,0.0,-2.0275,0.0,0.0,0.0,0.0,0.0,0.0,0.0,0.0,0.0,0.0,-2.1164,-2.1437,-2.1906,-2.2654,0.0,0.0,0.0,0.0,-1.959,-1.7475,-1.7101,-1.7311,-1.785,-1.9047,-2.0116,-2.0746,0.0,0.0,-2.3538,-2.4248,-2.5005,-2.531,-2.7464,-2.8999,-2.8226,-2.8038,-2.8158,-2.8677,-2.8482,-2.8087,-2.7804,-2.7633,-2.7279,-3.1277,0.0,0.0,0.0,0.0,-2.7754,-2.8175,-2.9135,-2.9212,-2.9063,-2.8849,-2.9481,0.0,0.0,0.0,0.0,0.0,0.0,-2.6274,-2.6693,-2.7387,-2.7878,-2.8186,-2.8409,-2.8336,-2.798,-2.7803,-2.7585,-2.7468,-2.6709,-2.5707,-2.4548,0.0,0.0,0.0,0.0,-2.3468,-2.3937,-2.4786,-2.5338,-2.556,-2.556,-2.563,-2.5688,-2.6062,-2.6108,-2.5895,-2.6022,-2.6079,-2.5924,-2.5331,0.0,0.0,0.0,0.0,0.0,0.0,0.0,0.0,0.0,0.0,0.0,0.0,0.0,0.0,0.0,0.0,0.0,0.0,0.0,-2.1898,-2.1738,-2.1561,0.0,0.0,0.0,0.0,0.0,0.0,0.0,0.0,0.0,-2.4345,-2.2443,-2.0915,0.0,0.0,-1.9591,-1.8103,-1.8862,-1.9642,-2.0071,0.0,0.0,0.0,-2.1055,-2.076,-2.0883,-2.2161,-2.3459,-2.4192,-2.5451,-2.6599,-2.7206,-2.8408,-2.9304,-2.9394,-2.9703,-2.9871,-2.977,-2.9652,-2.926,-2.8491,-2.8515,-2.8551,-3.465,-3.2944,-3.1372,-3.0696,-3.0645,-3.0184,-3.0491,-3.1376,-3.135,-3.1044,-3.0534,-3.0984,-3.0083,-2.8329,-2.8325,0.0,0.0,0.0,-2.7471,-2.8307,-2.7922,-2.7961,-2.8399,-2.8399,-2.8286,-2.8112,-2.8114,-2.81,-2.8099,-2.7578,-2.6944,-2.616,0.0,0.0,-2.4418,-2.4464,-2.462,-2.4929,-2.542,-2.5758,-2.591,-2.598,-2.605,-2.6094,-2.6314,-2.6452,-2.6633,-2.6598,-2.6591,-2.6585,-2.5897,-2.5651,0.0,0.0,0.0,0.0,0.0,0.0,0.0,0.0,0.0,0.0,0.0,-2.7591,-2.5599,0.0,0.0,0.0,-2.3196,-2.3059,-2.2989,-2.2473,0.0,0.0,0.0,0.0,0.0,0.0,0.0,-2.2885,-2.4018,-2.4995,-2.5204,-2.3214,-2.1734,-2.1731,-2.0914,-1.9742,-1.8597,0.0,-2.0142,-2.0695,-2.0446,-2.0645,-2.1483,-2.1371,-2.1225,-2.1652,-2.2497,-2.3576,-2.441,-2.5825,-2.7091,-2.801,-2.8884,-2.9567,-2.9845,-3.0121,-3.0254,-3.011,-3.0086,-2.9797,-2.8979,-2.9076,-2.9148,-3.6998,-3.6726,-3.3785,-3.2546,-3.2541,-3.25,-3.2523,-3.259,-3.271,-3.2188,-3.1369,-3.1591,-3.0854,-2.9262,-2.8791,0.0,-2.951,-2.8619,-2.8558,-2.9124,-2.8445,-2.7843,-2.7352,-2.7326,-2.7268,-2.731,-2.7268,-2.7511,-2.7944,-2.764,-2.7484,-2.7422,-2.6308,-2.5791,-2.5813,-2.5613,-2.5577,-2.5789,-2.5934,-2.5959,-2.598,-2.6119,-2.6327,-2.6427,-2.6645,-2.6794,-2.7092,-2.7281,-2.7102,-2.6596,-2.6544,-2.6212,-2.5555,0.0,0.0,0.0,0.0,0.0,0.0,0.0,0.0,0.0,0.0,0.0,0.0,0.0,0.0,0.0,-2.426,0.0,-2.3517,-2.2915,0.0,0.0,0.0,-2.3866,-2.5282,-2.5503,-2.5335,-2.4861,0.0,0.0,-2.4841,0.0,-2.39,-2.4561,-2.3252,-2.1752,-2.0255,-2.0602,-2.0879,-2.0071,-2.0172,-2.0163,-2.0283,-2.0807,-2.1724,-2.2653,-2.3121,-2.3644,-2.4611,-2.5601,-2.6842,-2.7978,-2.8978,-2.9582,-2.987,-2.9544,-2.9388,-2.9833,-2.9917,-2.9785,-2.928,-2.9172,-2.9051,-3.6998,-3.692,-3.5739,-3.499,-3.4575,-3.4074,-3.391,-3.3871,-3.3561,-3.2958,-3.228,-3.1511,-3.0742,-2.9917,-3.0216,-3.0177,-2.9731,-2.9529,-2.9151,-2.8686,-2.8137,-2.7806,-2.7666,-2.7271,-2.7074,-2.7037,-2.7074,-2.7118,-2.7263,-2.7176,-2.7195,-2.7276,-2.6968,-2.683,-2.6843,-2.6821,-2.6761,-2.6721,-2.6742,-2.6681,-2.6533,-2.6589,-2.6658,-2.6875,-2.6875,-2.7134,-2.759,-2.7656,-2.7789,-2.8021,-2.6808,-2.629,-2.6881,-2.5831,0.0,0.0,0.0,0.0,0.0,0.0,0.0,0.0,0.0,-2.7193,-2.5871,0.0,-2.6884,0.0,-2.6245,-2.637,-2.6392,-2.5867,0.0,0.0,-2.5144,-2.4945,-2.5398,-2.6003,-2.6168,-2.5346,-2.601,-2.6513,-2.6329,-2.6098,-2.5969,-2.6111,-2.3104,-2.0617,-1.9795,-2.055,-2.1159,-2.1006,-2.1555,-2.216,-2.203,-2.2198,-2.2548,-2.3074,-2.3149,-2.3644,-2.5238,-2.5767,-2.6455,-2.7656,-2.8303,-2.8548,-2.8652,-2.8682,-2.8763,-2.8859,-2.8883,-2.8859,-2.8715,-2.8703,-2.8655,-3.624,-3.6188,-3.56,-3.5025,-3.4515,-3.4188,-3.3875,-3.3587,-3.3051,-3.2476,-3.1862,-3.0725,-3.0079,-2.981,-3.0118,-2.9973,-2.9587,-2.9171,-2.8802,-2.8338,-2.7716,-2.746,-2.7447,-2.7165,-2.6982,-2.702,-2.6982,-2.7011,-2.6973,-2.7011,-2.7028,-2.7113,-2.7101,-2.7168,-2.7346,-2.7311,-2.7225,-2.7078,-2.712,-2.7005,-2.682,-2.6794,-2.6667,-2.6291,-2.6828,-2.7036,-2.6824,-2.7434,-2.7808,-2.7821,-2.6842,-2.644,-2.6648,-2.573,-2.5527,0.0,0.0,0.0,0.0,0.0,0.0,0.0,0.0,0.0,0.0,0.0,-2.7699,-2.693,-2.7279,-2.7497,-2.7356,-2.6888,-2.6696,-2.6896,-2.6633,-2.6662,-2.7163,-2.7472,-2.7331,-2.6668,-2.6898,-2.7093,-2.7162,-2.6826,-2.6644,-2.673,-2.444,-2.241,-2.169,-2.1697,-2.1666,-2.1767,-2.2242,-2.2602,-2.2539,-2.2581,-2.2768,-2.34,-2.3543,-2.4065,-2.5883,-2.633,-2.683,-2.7928,-2.8271,-2.8339,-2.8351,-2.8419,-2.851,-2.851,-2.851,-2.851,-2.851,-2.851,-2.851,-3.5332,-3.5142,-3.469,-3.4088,-3.3365,-3.3365,-3.3117,-3.2633,-3.2006,-3.1326,-3.0594,-2.968,-2.9272,-2.9201,-2.924,-2.9235,-2.9131,-2.8482,-2.8084,-2.798,-2.7378,-2.7092,-2.7079,-2.7092,-2.7053,-2.7069,-2.7053,-2.7053,-2.7082,-2.7053,-2.705,-2.7126,-2.7126,-2.7258,-2.7511,-2.7567,-2.7434,-2.7273,-2.711,-2.6987,-2.6888,-2.6871,-2.6451,-2.5647,-2.6594,-2.6751,-2.6024,-2.7125,-2.7543,-2.7139,-2.6898,-2.6514,-2.5903,-2.5484,-2.5445,0.0,-2.5794,0.0,0.0,0.0,0.0,0.0,0.0,0.0,0.0,-2.8039,-2.8337,-2.7805,-2.7976,-2.7964,-2.7626,-2.7312,-2.7558,-2.8666,-2.8333,-2.8378,-2.913,-2.8835,-2.8422,-2.7992,-2.7478,-2.7318,-2.7536,-2.6976,-2.6599,-2.6656,-2.5733,-2.4598,-2.4052,-2.3079,-2.2444,-2.2316,-2.218,-2.2076,-2.1924,-2.2105,-2.2601,-2.3458,-2.378,-2.463,-2.6259,-2.6782,-2.7221,-2.8021,-2.8234,-2.827,-2.8306,-2.827,-2.8203,-2.8064,-2.7973,-2.8124,-2.8371,-2.8414,-2.8414,-3.5336,-3.4651,-3.4878,-3.3872,-3.2189,-3.2176,-3.2372,-3.262,-3.1588,-3.0294,-2.8908,-2.9157,-2.8987,-2.8612,-2.9123,-2.9013,-2.8556,-2.8438,-2.8056,-2.7613,-2.7442,-2.739,-2.7403,-2.7403,-2.739,-2.7377,-2.7403,-2.739,-2.7377,-2.739,-2.7501,-2.7633,-2.7621,-2.769,-2.769,0.0,0.0,0.0,-2.6667,-2.6238,-2.6521,-2.6162,-2.6105,-2.639,-2.6834,0.0,-2.7686,-2.7788,-2.7927,-2.8014,-2.7378,0.0,0.0,0.0,0.0,0.0,0.0,0.0,0.0,0.0,0.0,0.0,-2.7431,-2.8063,-2.8063,-2.8783,-2.9378,-2.9663,-2.9355,-2.9221,-2.9346,-2.9248,-2.9081,-2.8907,-2.9232,-2.9185,-2.8487,-2.8462,-2.8374,-2.7879,-2.7433,-2.7235,-2.7257,-2.698,-2.6812,-2.6789,-2.5386,-2.4282,-2.4066,-2.3628,-2.3199,-2.2428,-2.1807,-2.14,-2.1099,-2.1466,-2.2178,-2.2744,-2.3156,-2.3981,-2.5521,-2.5924,-2.6213,-2.7043,-2.7224,-2.7248,-2.726,-2.7236,-2.7055,-2.6368,-2.6291,-2.6679,-2.8136,-2.8162,-2.7873,-3.4233,0.0,-3.399,-3.3229,0.0,-3.192,-3.2093,-3.2292,-3.0782,-2.9327,-2.7994,-2.8486,-2.8447,-2.7981,-2.8281,-2.8255,-2.7968,-2.7968,-2.7811,-2.7469,-2.7469,-2.7469,-2.7469,-2.7469,-2.7469,-2.7469,-2.7469,-2.7469,-2.7469,-2.7469,-2.7546,-2.764,-2.764,-2.7631,-2.7621,-2.7691,-2.7761,-2.7792,-2.7143,-2.6854,-2.693,-2.6678,-2.6412,-2.6188,0.0,0.0,0.0,0.0,0.0,0.0,0.0,0.0,0.0,0.0,0.0,-2.6215,-2.6139,-2.6086,-2.6051,-2.6805,-2.7139,-2.6801,-2.7657,-2.8384,-2.8675,-2.9201,-2.9737,-3.0234,-3.0052,-2.9939,-3.01,-2.9745,-2.9391,-2.9113,-2.9026,-2.8712,-2.8222,-2.8024,-2.7777,-2.7443,-2.6881,-2.659,-2.6773,-2.66,-2.6647,-2.6812,-2.6053,-2.5136,-2.4437,-2.3278,-2.2295,-2.1831,-2.1928,-2.1773,-2.1358,-2.2155,-2.296,-2.3444,-2.3934,-2.4803,-2.5989,-2.623,-2.6394,-2.6784,-2.6923,-2.6923,-2.6923,-2.6923,-2.6685,-2.5977,-2.5989,-2.6347,-2.7054,-2.687,-2.6848,-3.3342,-3.3159,-3.3139,-3.2812,-3.2291,-3.2169,-3.2006,-3.1676,0.0,0.0,0.0,-2.8079,-2.8,-2.7723,-2.7669,-2.7723,-2.7669,-2.7723,-2.7669,-2.7656,-2.7669,-2.7656,-2.7723,-2.7669,-2.7656,-2.7736,-2.7736,-2.7656,-2.7656,-2.7669,-2.7723,-2.7656,-2.7669,-2.7736,-2.7669,-2.7669,-2.7771,-2.7885,-2.7703,-2.7472,-2.7335,-2.7278,-2.6828,-2.5887,-2.6866,-2.6968,-2.6086,-2.7413,-2.7582,-2.6477,-2.696,-2.6804,-2.5926,-2.573,-2.5871,-2.635,-2.598,-2.5897,-2.6452,-2.6805,-2.7013,-2.7013,-2.7802,-2.8486,-2.9039,-2.9394,-2.9764,-3.0123,-3.0329,-3.0367,-3.0074,-2.9591,-2.9198,-2.8933,-2.8457,-2.8132,-2.7893,-2.7532,-2.7222,-2.6893,-2.6346,-2.6058,-2.6261,-2.6178,-2.6117,-2.6502,-2.6146,-2.5695,-2.4299,-2.2668,-2.1732,-2.1607,-2.214,-2.2452,-2.2079,-2.2832,-2.3991,-2.4227,-2.4801,-2.5634,-2.6336,-2.6647,-2.6647,-2.6476,-2.6635,-2.6598,-2.6622,-2.6562,-2.6261,-2.5394,-2.571,-2.5948,-2.5329,-2.5165,-2.5558,-3.408,-3.3742,-3.36,-3.3279,-3.2901,-3.2359,-3.1544,-3.0608,-3.0363,-2.9565,-2.8457,-2.8522,-2.8522,-2.8457,-2.8457,-2.8444,-2.8457,-2.8471,-2.8457,0.0,-2.8471,-2.8457,-2.8457,-2.8457,-2.8457,-2.8457,-2.8457,-2.8471,-2.8457,-2.8471,-2.8457,-2.8457,-2.8457,-2.8471,-2.8457,-2.8457,-2.8433,-2.8462,-2.7224,-2.664,-2.6794,-2.6445,-2.6285,-2.6476,-2.6871,-2.7324,-2.7833,-2.7921,-2.7948,-2.7954,-2.7395,-2.687,-2.6545,-2.6042,-2.5836,-2.6009,-2.6128,-2.6229,-2.6315,-2.6625,-2.6783,-2.6762,-2.7368,-2.7946,-2.846,-2.9477,-2.9809,-2.9352,-3.0002,-3.0108,-2.9087,-2.9167,-2.8963,-2.817,-2.8219,-2.7961,-2.7025,-2.7157,-2.703,-2.6578,-2.632,-2.6082,-2.5955,-2.5795,-2.5538,-2.5385,-2.4767,-2.3307,-2.1999,-2.1998,-2.2439,-2.222,-2.2499,-2.2735,-2.2518,-2.2789,-2.3541,-2.4045,-2.4299,-2.4699,-2.5457,-2.5612,-2.5588,-2.5528,-2.5564,-2.5576,-2.5576,-2.5528,-2.5001,-2.3925,-2.381,-2.3638,-2.3145,-2.3403,-2.434,-3.3546,-3.3591,-3.3473,-3.3376,-3.3218,-3.2842,-3.2111,-3.1017,-3.0989,-3.0099,-2.8706,-2.878,-2.878,-2.8627,-2.894,-2.8899,-2.86,-2.8926,-2.8899,-2.86,-2.8587,-2.8587,-2.8587,-2.8587,-2.8587,-2.8587,-2.8587,-2.8587,-2.8587,-2.8587,-2.8587,-2.8587,-2.8587,-2.8587,-2.8587,-2.8587,-2.8587,-2.8587,-2.7921,-2.7577,-2.7469,-2.7408,-2.74,-2.7426,-2.767,-2.7838,-2.7865,-2.7999,-2.7723,-2.704,-2.6921,-2.6627,-2.6062,-2.5619,-2.5517,-2.5867,-2.5702,-2.5754,-2.6092,-2.6304,-2.6608,-2.6936,-2.7026,-2.722,-2.744,-2.8371,-2.8864,-2.8721,-2.9158,-2.9223,-2.8524,-2.8389,-2.7958,-2.7146,-2.7109,-2.6824,-2.6187,-2.6308,-2.6287,-2.574,-2.544,-2.5215,-2.519,-2.4988,-2.4798,-2.4502,-2.3661,-2.2455,-2.1188,-2.1936,-2.2391,-2.1512,-2.2496,-2.3099,-2.2619,-2.3525,-2.4097,-2.4192,-2.4259,-2.4472,-2.4809,-2.4879,-2.4759,-2.4542,-2.4675,-2.4855,-2.4903,-2.453,-2.3916,-2.3537,-2.3548,-2.3475,-2.3158,-2.3625,-2.4696,-3.3099,-3.3522,-3.3382,-3.3312,-3.3312,-3.3312,-3.2609,-3.158,-3.1537,-3.0508,-2.9054,-2.9099,-2.9099,-2.8899,-2.9337,-2.9282,-2.8954,-2.9323,-2.9282,-2.8871,-2.8858,-2.8844,-2.8844,-2.8844,-2.8844,-2.8844,-2.8844,-2.8844,-2.8844,-2.8844,-2.8858,-2.8844,-2.8844,-2.8844,-2.8844,-2.8844,-2.8858,-2.8844,-2.8844,-2.8651,-2.821,-2.8471,-2.8484,-2.8276,-2.8471,-2.8302,-2.7795,-2.8064,-2.763,-2.648,-2.6663,-2.6484,-2.5827,-2.5424,-2.5342,-2.5602,-2.537,-2.5397,-2.5853,-2.5967,-2.6256,-2.6851,-2.6672,-2.6494,-2.6516,-2.7031,-2.7573,-2.7881,-2.8114,-2.8124,-2.7798,-2.7429,-2.692,-2.6324,-2.609,-2.5832,-2.5422,-2.5575,-2.5547,-2.5076,-2.4808,-2.4613,-2.4539,-2.4357,-2.4186,-2.3891,-2.3093,-2.2241,-2.171,-2.2026,-2.1822,-2.1396,-2.2492,-2.3569,-2.2812,-2.3909,-2.4637,-2.413,-2.4306,-2.4381,-2.4434,-2.435,-2.4242,-2.3965,-2.423,-2.4518,-2.4474,-2.4329,-2.3977,-2.3722,-2.3998,-2.423,-2.3758,-2.4154,-2.5087,-3.3564,-3.4028,-3.3536,-3.3312,-3.3312,-3.3312,-3.265,-3.1726,-3.1721,-3.0934,-2.9679,-2.9588,-2.954,-2.9477,-2.9575,-2.9575,-2.9477,-2.9547,-2.9547,-2.9491,-2.954,-2.9477,-2.9477,-2.9477,-2.9477,-2.9477,-2.9477,-2.9415,-2.9477,-2.9477,-2.9477,-2.9477,-2.9491,-2.9477,-2.9477,-2.9477,-2.9477,-2.9477,-2.9491,-2.9162,-2.8587,-2.8587,-2.8587,-2.8522,-2.8587,-2.8443,-2.8126,-2.8201,-2.8005,-2.7603,-2.703,-2.6764,-2.661,-2.6133,-2.56,-2.5163,-2.553,-2.5839,-2.5851,-2.5416,-2.539,-2.5923,-2.6008,-2.5897,-2.5688,-2.5685,-2.599,-2.6502,-2.7183,-2.7079,-2.6255,-2.6452,-2.6452,-2.5853,-2.5675,-2.5536,-2.5445,-2.5396,-2.5231,-2.5026,-2.4849,-2.4861,-2.4469,-2.4327,-2.4134,-2.3599,-2.2886,-2.2097,-2.1601,-2.1851,-2.1878,-2.1476,-2.262,-2.3609,-2.3601,-2.4118,-2.433,-2.3963,-2.4186,-2.4206,-2.3953,-2.3833,-2.3785,-2.358,-2.4049,-2.4338,-2.4506,-2.4867,-2.4885,-2.4153,-2.4211,-2.4519,-2.4178,-2.401,-2.4305,-3.3831,-3.3959,-3.3788,-3.3675,-3.3632,-3.3277,-3.2596,-3.1838,-3.1454,-3.0785,-3.0031,-2.9927,-2.9803,-2.9645,-2.9982,-2.9968,-2.9645,-2.9968,-2.994,-2.9631,-2.9602,-2.9602,-2.9602,-2.9602,-2.9602,-2.9602,-2.9602,-2.9602,-2.9602,-2.9602,-2.9602,-2.9602,-2.9602,-2.9602,-2.9602,-2.9602,-2.9602,-2.9602,-2.9602,-2.9477,-2.9226,-2.9162,-2.9099,-2.8972,-2.9099,-2.8768,-2.8028,-2.7963,-2.7575,-2.675,-2.6413,-2.6273,-2.6259,-2.5703,-2.5232,-2.4984,-2.4868,-2.4812,-2.4864,-2.491,-2.4924,-2.4892,-2.5486,-2.5713,-2.5268,-2.5384,-2.5617,-2.5796,-2.6089,-2.6021,-2.5638,-2.5647,-2.5432,-2.4975,-2.5031,-2.5062,-2.471,-2.4848,-2.4816,-2.441,-2.4259,-2.4098,-2.3874,-2.3691,-2.348,-2.3158,-2.2736,-2.2253,-2.1686,-2.2028,-2.204,-2.1619,-2.2305,-2.2995,-2.332,-2.3749,-2.3905,-2.3821,-2.3652,-2.3484,-2.34,-2.3304,-2.322,-2.2931,-2.3364,-2.3652,-2.3556,-2.3459,-2.3414,-2.3512,-2.394,-2.413,-2.4432,-2.4165,-2.4199,-3.3896,-3.3896,-3.3896,-3.3896,-3.3825,-3.3182,-3.2554,-3.2004,-3.1375,-3.0759,-3.0187,-3.0172,-2.9988,-2.9797,-3.0221,-3.015,-2.984,-3.0192,-3.0164,-2.9769,-2.9741,-2.9741,-2.9727,-2.9665,-2.9665,-2.9651,-2.9602,-2.9602,-2.9602,-2.9602,-2.9602,-2.9602,-2.9665,-2.9651,-2.9651,-2.9727,-2.9727,-2.9651,-2.9665,-2.9665,-2.9588,-2.9665,-2.9526,-2.9275,-2.9324,-2.8858,-2.7846,-2.7607,-2.7017,-2.5964,-2.5893,-2.5893,-2.5948,-2.555,-2.5246,-2.5019,-2.4219,-2.3865,-2.4162,-2.4408,-2.445,-2.4281,-2.5117,-2.5525,-2.5191,-2.534,-2.5564,-2.5605,-2.5483,-2.5464,-2.5247,-2.513,-2.4754,-2.4294,-2.461,-2.4649,-2.423,-2.4372,-2.439,-2.3955,-2.3875,-2.3569,-2.3403,-2.3273,-2.3092,-2.3007,-2.2812,-2.2604,-2.2149,-2.2359,-2.2432,-2.1851,-2.2247,-2.2528,-2.279,-2.3207,-2.3472,-2.334,-2.3063,-2.3027,-2.2823,-2.2775,-2.2739,-2.257,-2.2838,-2.3055,-2.3337,-2.2876,-2.2805,-2.3323,-2.3694,-2.3872,-2.4337,-2.4079,-2.3841,-3.3896,-3.3896,-3.3896,-3.3951,-3.3839,-3.3197,-3.262,-3.2134,-3.1579,-3.0931,-3.0369,-3.0326,-3.0205,-3.0111,-3.0121,-3.0154,-3.005,-3.0121,-3.0121,-3.0064,-3.005,-3.005,-3.005,-2.9884,-2.9808,-2.9761,-2.9651,-2.9665,-2.9602,-2.9602,-2.9602,-2.9602,-2.9761,-2.9808,-2.9822,-2.9974,-2.9974,-2.9822,-2.9822,-2.9761,-2.9665,-2.9713,-2.9699,-2.9504,-2.9069,-2.8493,-2.7863,-2.72,-2.6568,-2.5921,-2.5893,-2.5948,-2.6056,-2.6028,-2.5756,-2.5246,-2.3683,-2.3198,-2.4063,-2.3892,-2.3729,-2.4141,-2.4793,-2.5137,-2.4906,-2.5416,-2.5753,-2.5851,-2.5536,-2.5354,-2.5048,-2.4973,-2.4872,-2.4549,-2.4549,-2.4416,-2.4184,-2.4223,-2.4106,-2.3936,-2.3839,-2.3708,-2.345,-2.3403,-2.3245,-2.3125,-2.2969,-2.2848,-2.2787,-2.2739,-2.2665,-2.2555,-2.2555,-2.2567,-2.2332,-2.2742,-2.2814,-2.2742,-2.2877,-2.2862,-2.2474,-2.2221,-2.2209,-2.2356,-2.272,-2.3101,-2.3259,-2.357,-2.3894,-2.4097,-2.3864,-2.4017,-2.3967,-2.3491,-2.3339,-3.421,-3.4225,-3.4225,-3.4225,-3.4138,-3.3532,-3.2963,-3.2341,-3.1691,-3.104,-3.058,-3.0507,-3.0447,-3.0401,-3.0401,-3.028,-3.0111,-3.0111,-3.0111,-3.0111,-3.0111,-3.0111,-3.0111,-3.0036,-2.9898,-2.9808,-2.9851,-2.9927,-2.9927,-2.9927,-2.9927,-2.9927,-2.9988,-2.9974,-2.9974,-3.005,-3.005,-3.0036,-2.9974,-2.9974,-2.9913,-2.9974,-2.9789,-2.933,-2.9351,-2.8955,-2.7951,-2.7595,-2.7018,-2.6045,-2.6056,-2.6056,-2.6147,-2.5464,-2.5003,-2.4712,-2.3398,-2.2801,-2.3169,-2.3398,-2.3383,-2.3264,-2.4099,-2.4497,-2.4291,-2.4929,-2.5374,-2.4986,-2.5173,-2.5057,-2.4662,-2.4751,-2.4948,-2.4821,-2.4821,-2.4778,-2.4721,-2.4664,-2.4549,-2.4253,-2.3741,-2.3393,-2.3579,-2.3334,-2.314,-2.3361,-2.3271,-2.321,-2.321,-2.309,-2.2845,-2.2439,-2.2328,-2.2221,-2.197,-2.2457,-2.2738,-2.2615,-2.2627,-2.2663,-2.2481,-2.231,-2.2298,-2.242,-2.2836,-2.2923,-2.2996,-2.3207,-2.3754,-2.3791,-2.3577,-2.3615,-2.3452,-2.3263,-2.3175,-3.4295,-3.4339,-3.4461,-3.4549,-3.4447,-3.3711,-3.3229,-3.28,-3.1747,-3.1151,-3.0933,-3.0729,-3.0642,-3.0642,-3.0642,-3.0462,-3.0294,-3.0294,-3.0233,-3.0294,-3.0233,-3.0219,-3.0233,-3.0233,-3.0083,-3.0007,-3.0036,-3.0097,-3.0083,-3.0097,-3.0111,-3.0111,-3.0111,-3.0158,-3.0158,-3.0219,-3.0233,-3.0158,-3.0158,-3.0086,-2.9854,-2.9857,-2.9557,-2.9056,-2.918,-2.8864,-2.7826,-2.7499,-2.699,-2.6321,-2.6165,-2.6133,-2.5969,-2.5142,-2.4517,-2.423,-2.3296,-2.2692,-2.2749,-2.3048,-2.3105,-2.2775,-2.3531,-2.396,-2.3612,-2.4483,-2.4718,-2.454,-2.4617,-2.4666,-2.4422,-2.4549,-2.4765,-2.4846,-2.5009,-2.5118,-2.5005,-2.5005,-2.4878,-2.4597,-2.4015,-2.3694,-2.3702,-2.3438,-2.3251,-2.3372,-2.3369,-2.3412,-2.3234,-2.3111,-2.282,-2.2351,-2.2289,-2.2309,-2.2352,-2.2725,-2.2801,-2.2678,-2.2665,-2.2641,-2.2531,-2.2396,-2.236,-2.2579,-2.2665,-2.2688,-2.2761,-2.2884,-2.2957,-2.3078,-2.3213,-2.3314,-2.3226,-2.3175,-2.3125,-3.4021,-3.4095,-3.4655,-3.4795,-3.4604,-3.353,-3.3387,-3.3412,-3.176,-3.1245,-3.145,-3.095,-3.0628,-3.0628,-3.0628,-3.0568,-3.0582,-3.0568,-3.0582,-3.0582,-3.0582,-3.0582,-3.0582,-3.0387,-3.0326,-3.0251,-3.0158,-3.0144,-3.0162,-3.0144,-3.0172,-3.0172,-3.028,-3.0312,-3.0326,-3.0462,-3.0462,-3.0312,-3.0283,-2.9921,-2.9211,-2.9331,-2.9088,-2.8455,-2.844,-2.8082,-2.7353,-2.6783,-2.6458,-2.6315,-2.6286,-2.6107,-2.579,-2.5214,-2.4631,-2.4152,-2.3351,-2.2975,-2.2931,-2.2975,-2.2944,-2.2898,-2.3342,-2.3659,-2.3579,-2.4061,-2.4355,-2.4226,-2.4326,-2.4319,-2.4262,-2.4212,-2.4325,-2.4553,-2.5066,-2.5232,-2.505,-2.4964,-2.5005,-2.4921,-2.453,-2.4199,-2.3791,-2.355,-2.3456,-2.3256,-2.3212,-2.3244,-2.2917,-2.2783,-2.2643,-2.2477,-2.221,-2.2103,-2.2585,-2.3053,-2.2896,-2.2787,-2.2739,-2.2714,-2.248,-2.2344,-2.2184,-2.2293,-2.2387,-2.2434,-2.2895,-2.3017,-2.3017,-2.3125,-2.3125,-2.3125,-2.3125,-2.3125,-2.3198,-3.4375,-3.407,-3.4183,-3.4271,-3.4168,-3.3357,-3.3136,-3.3195,-3.2088,-3.1527,-3.1307,-3.1072,-3.0925,-3.0896,-3.0807,-3.0762,-3.0702,-3.0642,-3.0642,-3.0642,-3.0642,-3.0642,-3.0568,-3.0507,-3.0507,-3.0507,-3.0326,-3.0326,-3.0433,-3.0462,-3.0476,-3.0462,-3.0447,-3.0493,-3.0507,-3.0568,-3.0582,-3.0464,-3.0058,-2.9666,-2.9406,-2.9074,-2.861,-2.7989,-2.7917,-2.7614,-2.7035,-2.6963,-2.6809,-2.65,-2.6418,-2.6438,-2.6402,-2.5966,-2.5564,-2.5272,-2.4214,-2.3601,-2.3528,-2.3225,-2.3037,-2.3036,-2.3196,-2.3269,-2.3296,-2.3725,-2.3836,-2.3482,-2.3622,-2.3751,-2.3359,-2.3507,-2.4,-2.4854,-2.511,-2.5157,-2.4995,-2.479,-2.4888,-2.519,-2.4662,-2.4345,-2.4265,-2.3976,-2.3358,-2.3453,-2.3067,-2.2579,-2.2577,-2.236,-2.2193,-2.2069,-2.1873,-2.1881,-2.2394,-2.2703,-2.2611,-2.2658,-2.276,-2.2774,-2.2598,-2.2325,-2.2151,-2.2089,-2.2168,-2.2439,-2.289,-2.3125,-2.3125,-2.3125,-2.3125,-2.3125,-2.3125,-2.3138,-2.3258,-3.3765,-3.3487,-3.3695,-3.3813,-3.3724,-3.3102,-3.2983,-3.3028,-3.2167,-3.1663,-3.153,-3.1205,-3.1117,-3.1087,-3.094,-3.0895,-3.0881,-3.0821,-3.0762,-3.0762,-3.0628,-3.0642,-3.0628,-3.0642,-3.0642,-3.0568,-3.0447,-3.0507,-3.0582,-3.0642,-3.0642,-3.0582,-3.0642,-3.0582,-3.0642,-3.0642,-3.0642,-3.0495,-3.0176,-2.9755,-2.9305,-2.8898,-2.8274,-2.7534,-2.7428,-2.7224,-2.6905,-2.7118,-2.7064,-2.677,-2.6736,-2.6768,-2.6689,-2.6249,-2.5956,-2.5546,-2.4751,-2.4031,-2.3973,-2.3509,-2.3171,-2.3157,-2.3157,-2.3171,-2.323,-2.3506,-2.331,-2.3091,-2.3219,-2.323,-2.2864,-2.2991,-2.3688,-2.4519,-2.4935,-2.5043,-2.4952,-2.4623,-2.4671,-2.4967,-2.4682,-2.4436,-2.4177,-2.4041,-2.3205,-2.3379,-2.2884,-2.2271,-2.2339,-2.2047,-2.19,-2.1789,-2.1745,-2.1907,-2.2222,-2.2274,-2.2242,-2.248,-2.2739,-2.2792,-2.2767,-2.243,-2.2193,-2.2268,-2.2385,-2.2639,-2.3113,-2.3125,-2.3125,-2.3125,-2.3185,-2.3185,-2.3185,-2.3318,-2.339,-3.2482,-3.2557,-3.3185,-3.344,-3.335,-3.2676,-3.2736,-3.3095,-3.1946,-3.1649,-3.1946,-3.1442,-3.1146,-3.1132,-3.1132,-3.1073,-3.1073,-3.1073,-3.1073,-3.1014,-3.0821,-3.0747,-3.0821,-3.0762,-3.0702,-3.0628,-3.0642,-3.0642,-3.0687,-3.0702,-3.0642,-3.0702,-3.0702,-3.0642,-3.0702,-3.0642,-3.0687,-3.0687,-3.054,-2.99,-2.8941,-2.8664,-2.8155,-2.705,-2.7053,-2.7062,-2.7018,-2.7151,-2.7189,-2.7041,-2.7078,-2.6945,-2.6444,-2.6253,-2.5958,-2.552,-2.472,-2.441,-2.4204,-2.3688,-2.3393,-2.3467,-2.3393,-2.3334,-2.3319,-2.3245,-2.3184,-2.3052,-2.3006,-2.2946,-2.2857,-2.2884,-2.3184,-2.3684,-2.4433,-2.4798,-2.4878,-2.4399,-2.4329,-2.4689,-2.4632,-2.4321,-2.3917,-2.3875,-2.3414,-2.2994,-2.285,-2.2573,-2.223,-2.1968,-2.1772,-2.1642,-2.1534,-2.1722,-2.2001,-2.1878,-2.1898,-2.2185,-2.2425,-2.2506,-2.2611,-2.2334,-2.2121,-2.2209,-2.2569,-2.2874,-2.3113,-2.3185,-2.3198,-2.3258,-2.3245,-2.3292,-2.3352,-2.3437,-2.3458,-3.2837,-3.2646,-3.2855,-3.293,-3.2781,-3.2048,-3.2168,-3.2632,-3.184,-3.1586,-3.1632,-3.1513,-3.1366,-3.1366,-3.1292,-3.1234,-3.1234,-3.1132,-3.1132,-3.1234,-3.1073,-3.1014,-3.1014,-3.0955,-3.0955,-3.0955,-3.0955,-3.0955,-3.0955,-3.0955,-3.094,-3.0955,-3.0955,-3.0955,-3.0955,-3.0955,-3.0955,-3.0866,-3.0441,-3.0118,-2.9648,-2.8752,-2.8218,-2.7895,-2.7394,-2.7174,-2.713,-2.7284,-2.7299,-2.7181,-2.7284,-2.7291,-2.7039,-2.6624,-2.6268,-2.5957,-2.4958,-2.4484,-2.4663,-2.403,-2.3718,-2.4059,-2.3703,-2.3466,-2.3466,-2.326,-2.3142,-2.3082,-2.2992,-2.2888,-2.2902,-2.2902,-2.3161,-2.3587,-2.3855,-2.4042,-2.4154,-2.3787,-2.3629,-2.4146,-2.423,-2.4067,-2.3858,-2.3497,-2.3234,-2.328,-2.2977,-2.2522,-2.2163,-2.1934,-2.1728,-2.1419,-2.129,-2.1548,-2.1648,-2.1527,-2.1588,-2.1907,-2.2,-2.2008,-2.2009,-2.1914,-2.1776,-2.1819,-2.2553,-2.2984,-2.3225,-2.3412,-2.3424,-2.3378,-2.3497,-2.3484,-2.3471,-2.3543,-2.3454,-3.2346,-3.2428,-3.2443,-3.2443,-3.2324,-3.192,-3.1923,-3.212,-3.1777,-3.1597,-3.1539,-3.1467,-3.1467,-3.1467,-3.1409,-3.1409,-3.1351,-3.1307,-3.1307,-3.1351,-3.1292,-3.119,-3.1132,-3.1087,-3.1087,-3.1087,-3.1087,-3.1087,-3.1087,-3.1087,-3.1087,-3.1087,-3.1087,-3.1087,-3.1087,-3.1087,-3.1087,-3.1029,-3.066,-3.038,-3.0068,-2.9138,-2.8503,-2.8163,-2.7587,-2.7284,-2.7386,-2.7423,-2.7437,-2.7372,-2.7437,-2.7488,-2.7429,-2.6862,-2.647,-2.6396,-2.5235,-2.4759,-2.5088,-2.4373,-2.4043,-2.4358,-2.4014,-2.3656,-2.3538,-2.3378,-2.326,-2.3216,-2.3068,-2.2978,-2.2888,-2.2888,-2.3031,-2.3213,-2.3173,-2.3288,-2.3787,-2.3259,-2.3188,-2.356,-2.3724,-2.3716,-2.3695,-2.3146,-2.3049,-2.3042,-2.2679,-2.2338,-2.2109,-2.193,-2.1643,-2.1297,-2.1146,-2.1329,-2.1394,-2.1315,-2.1198,-2.1454,-2.1578,-2.1562,-2.1822,-2.1787,-2.2084,-2.228,-2.2725,-2.3065,-2.3262,-2.3467,-2.3531,-2.3531,-2.3662,-2.3533,-2.3431,-2.3386,-2.3347,-3.147,-3.1996,-3.1996,-3.2053,-3.2012,-3.1996,-3.1913,-3.1872,-3.1856,-3.1727,-3.1612,-3.1597,-3.1582,-3.1567,-3.1582,-3.1539,-3.1539,-3.1539,-3.1539,-3.1539,-3.1539,-3.1424,-3.1307,-3.119,-3.1205,-3.1205,-3.1146,-3.1146,-3.119,-3.1146,-3.1146,-3.1205,-3.1146,-3.1146,-3.119,-3.1146,-3.1132,-3.1132,-3.1131,-3.0746,-3.0184,-2.9459,-2.8838,-2.8284,-2.7728,-2.7503,-2.7524,-2.7575,-2.756,-2.756,-2.756,-2.7625,-2.755,-2.701,-2.6681,-2.6471,-2.571,-2.5259,-2.5576,-2.4865,-2.444,-2.4761,-2.4354,-2.3859,-2.3774,-2.3613,-2.3422,-2.329,-2.3171,-2.3037,-2.2933,-2.2888,-2.2872,-2.2942,-2.2867,-2.3037,-2.3187,-2.2851,-2.2644,-2.3126,-2.3096,-2.3048,-2.3048,-2.2971,-2.2859,-2.3027,-2.2678,-2.2519,-2.2297,-2.2128,-2.1682,-2.1143,-2.1075,-2.1184,-2.1146,-2.1093,-2.0913,-2.0914,-2.1069,-2.1287,-2.1966,-2.2206,-2.2654,-2.2885,-2.2621,-2.2814,-2.3302,-2.3456,-2.3463,-2.3425,-2.3373,-2.3147,-2.3005,-2.3015,-2.2994,-3.1498,-3.2135,-3.215,-3.2135,-3.215,-3.2038,-3.1996,-3.194,-3.194,-3.1913,-3.1887,-3.1913,-3.191,-3.1864,-3.1754,-3.1742,-3.1712,-3.1727,-3.1784,-3.1883,-3.1784,-3.1769,-3.1712,-3.1539,-3.1424,-3.1424,-3.1424,-3.1424,-3.1409,-3.1366,-3.1424,-3.1424,-3.1366,-3.1424,-3.1409,-3.1351,-3.1424,-3.1424,-3.1409,-3.1036,-3.0425,-2.9784,-2.9143,-2.8554,-2.7882,-2.7619,-2.7575,-2.756,-2.756,-2.756,-2.7625,-2.7675,-2.762,-2.7124,-2.6826,-2.6695,-2.6213,-2.5804,-2.5864,-2.5652,-2.55,-2.5379,-2.4867,-2.4521,-2.4373,-2.3821,-2.3525,-2.3334,-2.3201,-2.3082,-2.2933,-2.2888,-2.2888,-2.2857,-2.2872,-2.2915,-2.2956,-2.2747,-2.2683,-2.2694,-2.2658,-2.2536,-2.255,-2.2546,-2.2569,-2.276,-2.2796,-2.2728,-2.2512,-2.2283,-2.1833,-2.1207,-2.1027,-2.1125,-2.1011,-2.0935,-2.0819,-2.0703,-2.0809,-2.0914,-2.16,-2.1985,-2.2188,-2.2201,-2.2127,-2.2515,-2.307,-2.3007,-2.2949,-2.3014,-2.3093,-2.2968,-2.2839,-2.276,-2.263,-3.148,-3.2302,-3.2302,-3.2302,-3.2287,-3.2191,-3.2135,-3.2094,-3.2109,-3.2053,-3.2042,-3.2012,-3.2038,-3.2007,-3.1925,-3.1898,-3.1883,-3.1898,-3.194,-3.1996,-3.194,-3.194,-3.194,-3.1826,-3.1727,-3.167,-3.167,-3.1597,-3.1524,-3.1524,-3.1467,-3.1467,-3.1467,-3.1467,-3.1467,-3.1467,-3.1467,-3.1377,-3.1195,-3.0851,-3.0462,-3.0003,-2.941,-2.8763,-2.8167,-2.779,-2.7675,-2.774,-2.774,-2.7725,-2.7725,-2.779,-2.77,-2.7173,-2.6937,-2.6866,-2.6443,-2.6108,-2.6062,-2.5803,-2.5499,-2.5485,-2.5032,-2.4567,-2.4343,-2.3999,-2.3777,-2.3423,-2.3246,-2.3112,-2.2933,-2.2888,-2.2888,-2.2888,-2.2888,-2.2888,-2.2843,-2.2766,-2.2675,-2.2675,-2.2612,-2.2552,-2.2477,-2.237,-2.2366,-2.2621,-2.2588,-2.2555,-2.2337,-2.2124,-2.1918,-2.1526,-2.1158,-2.0987,-2.0901,-2.0851,-2.0764,-2.0675,-2.0727,-2.0768,-2.1094,-2.1342,-2.151,-2.164,-2.1887,-2.2239,-2.2685,-2.2535,-2.2684,-2.2964,-2.3098,-2.2896,-2.2785,-2.278,-2.261,-3.1537,-3.2272,-3.2382,-3.2398,-3.2398,-3.2398,-3.2342,-3.2247,-3.2247,-3.2191,-3.2094,-3.2023,-3.2094,-3.2038,-3.2038,-3.2053,-3.2053,-3.1996,-3.1996,-3.2094,-3.2038,-3.2053,-3.2109,-3.2053,-3.1996,-3.1883,-3.1841,-3.1727,-3.1655,-3.1554,-3.1597,-3.1539,-3.1467,-3.1467,-3.1467,-3.1467,-3.1435,-3.124,-3.0851,-3.0398,-3.0188,-2.9885,-2.9569,-2.897,-2.8319,-2.792,-2.784,-2.7905,-2.7955,-2.784,-2.7955,-2.7955,-2.7754,-2.7436,-2.7106,-2.7235,-2.6917,-2.6658,-2.6474,-2.6092,-2.5802,-2.5333,-2.5213,-2.4792,-2.4387,-2.4268,-2.4015,-2.3629,-2.329,-2.3157,-2.2933,-2.2888,-2.2888,-2.2888,-2.2888,-2.2888,-2.2888,-2.2826,-2.2826,-2.2795,-2.2735,-2.2629,-2.2615,-2.2569,-2.2509,-2.2417,-2.2417,-2.237,-2.217,-2.2044,-2.1944,-2.1767,-2.1437,-2.1095,-2.0997,-2.0898,-2.0799,-2.0749,-2.0699,-2.0775,-2.0777,-2.0923,-2.1199,-2.1616,-2.189,-2.2114,-2.2287,-2.2285,-2.2544,-2.2956,-2.2999,-2.2715,-2.272,-2.2818,-2.258,-3.1321,-3.1838,-3.2231,-3.2398,-3.2398,-3.2398,-3.2398,-3.2342,-3.2342,-3.2342,-3.2342,-3.2342,-3.2302,-3.2302,-3.2191,-3.2191,-3.215,-3.2094,-3.215,-3.2247,-3.2247,-3.2191,-3.2302,-3.2302,-3.2247,-3.215,-3.2053,-3.194,-3.1883,-3.1841,-3.1727,-3.1727,-3.1597,-3.1539,-3.1465,-3.148,-3.115,-3.0773,-3.0513,-3.0072,-2.9539,-2.9539,-2.9598,-2.9027,-2.8419,-2.8065,-2.8005,-2.7955,-2.7955,-2.797,-2.8005,-2.8054,-2.8057,-2.7984,-2.7972,-2.7959,-2.7885,-2.7532,-2.7041,-2.7315,-2.7144,-2.6741,-2.6344,-2.5933,-2.5332,-2.4822,-2.4313,-2.3688,-2.329,-2.3127,-2.3082,-2.2992,-2.2902,-2.2888,-2.2888,-2.2888,-2.2888,-2.2902,-2.2857,-2.2857,-2.2781,-2.2735,-2.2721,-2.2706,-2.2615,-2.2523,-2.2523,-2.2431,-2.2231,-2.2137,-2.2058,-2.1916,-2.1759,-2.1375,-2.1095,-2.0983,-2.0885,-2.0799,-2.0799,-2.0835,-2.0825,-2.0712,-2.0948,-2.1517,-2.1661,-2.1597,-2.1773,-2.2011,-2.2405,-2.2881,-2.272,-2.2479,-2.2682,-2.2898,-2.2672,-3.1278,-3.1868,-3.2079,-3.2302,-3.2398,-3.2398,-3.2398,-3.2398,-3.2398,-3.2398,-3.2398,-3.2398,-3.2398,-3.2398,-3.2342,-3.2302,-3.2272,-3.2247,-3.2302,-3.2342,-3.2342,-3.2342,-3.2367,-3.2367,-3.2342,-3.2302,-3.2247,-3.2079,-3.1996,-3.194,-3.1898,-3.1898,-3.1727,-3.1562,-3.1261,-3.1069,-3.0824,-3.0353,-2.9969,-2.9599,-2.8904,-2.9149,-2.8971,-2.9073,-2.8599,-2.8198,-2.8103,-2.8201,-2.8152,-2.8152,-2.8152,-2.825,-2.8299,-2.8299,-2.8348,-2.8348,-2.8348,-2.8008,-2.7345,-2.7403,-2.6983,-2.6404,-2.6537,-2.6126,-2.5465,-2.494,-2.4537,-2.3733,-2.3334,-2.3157,-2.3082,-2.3037,-2.2992,-2.2888,-2.2888,-2.2888,-2.2888,-2.2888,-2.2888,-2.2888,-2.2843,-2.2812,-2.2812,-2.2766,-2.2721,-2.2675,-2.2583,-2.2477,-2.2324,-2.2231,-2.2184,-2.2044,-2.1902,-2.1616,-2.1326,-2.118,-2.1082,-2.0947,-2.0997,-2.0983,-2.1118,-2.1166,-2.1348,-2.1691,-2.1615,-2.1572,-2.1863,-2.2309,-2.2574,-2.2837,-2.2953,-2.302,-2.2978,-2.2905,-2.277,-3.1142,-3.1728,-3.2104,-3.2281,-3.2392,-3.2477,-3.247,-3.2377,-3.2276,-3.2153,-3.2145,-3.2099,-3.2068,-3.2129,-3.206,-3.206,-3.2137,-3.2098,-3.2044,-3.1905,-3.2059,-3.2151,-3.2151,-3.2059,-3.1967,-3.2059,-3.2105,-3.218,-3.2135,-3.2053,-3.2053,-3.1996,-3.1898,-3.1671,-3.1334,-3.1026,-3.0522,-2.9955,-2.9407,-2.9073,-2.8941,-2.8599,-2.8621,-2.9273,-2.8765,-2.8348,-2.825,-2.8299,-2.8299,-2.8299,-2.8299,-2.8411,-2.8411,-2.8411,-2.8411,-2.8411,-2.8299,-2.7929,-2.7509,-2.7261,-2.7055,-2.6567,-2.6501,-2.5899,-2.5211,-2.4926,-2.4582,-2.3732,-2.3422,-2.329,-2.3216,-2.3142,-2.3037,-2.2933,-2.2888,-2.2888,-2.2888,-2.2888,-2.2888,-2.2888,-2.2888,-2.2888,-2.2888,-2.2857,-2.2812,-2.2735,-2.2689,-2.2537,-2.2431,-2.237,-2.2278,-2.2184,-2.1996,-2.1793,-2.1554,-2.1375,-2.1277,-2.1131,-2.1277,-2.1375,-2.1602,-2.1732,-2.1955,-2.2128,-2.2189,-2.2198,-2.242,-2.2543,-2.2809,-2.311,-2.3378,-2.345,-2.3319,-2.3275,-2.3275,-3.0764,-3.092,-3.2462,-3.2788,-3.2296,-3.2569,-3.2545,-3.217,-3.1945,-3.1607,-3.1369,-3.131,-3.1306,-3.1287,-3.1165,-3.1052,-3.1156,-3.1424,-3.1365,-3.1118,-3.1343,-3.1589,-3.1443,-3.0874,-3.1259,-3.1551,-3.1597,-3.1874,-3.2087,-3.213,-3.2191,-3.2135,-3.2053,-3.186,-3.1506,-3.1025,-3.0646,-2.9963,-2.9434,-2.9215,-2.9158,-2.867,-2.8827,-2.8996,-2.8796,-2.8396,-2.8348,-2.8396,-2.8317,-2.8319,-2.835,-2.8381,-2.8411,-2.8411,-2.8411,-2.8411,-2.8348,-2.8268,-2.7936,-2.7637,-2.7478,-2.6954,-2.6801,-2.6213,-2.5375,-2.4418,-2.3939,-2.3714,-2.3538,-2.3422,-2.329,-2.3201,-2.3082,-2.2992,-2.2978,-2.2933,-2.2933,-2.2933,-2.2933,-2.2888,-2.2933,-2.2888,-2.2888,-2.2888,-2.2857,-2.2826,-2.2749,-2.2644,-2.2537,-2.2477,-2.237,-2.2231,-2.2137,-2.1935,-2.1874,-2.1698,-2.1602,-2.1444,-2.1684,-2.1888,-2.2109,-2.2328,-2.2558,-2.268,-2.2725,-2.277,-2.2875,-2.3009,-2.3157,-2.329,-2.3508,-2.3551,-2.3551,-2.3595,-2.3595,-3.0157,-3.028,-3.1384,-3.1715,-3.1647,-3.1829,-3.1781,-3.158,-3.1467,-3.1294,-3.1142,-3.1094,-3.1094,-3.1047,-3.1027,-3.0992,-3.0989,-3.1123,-3.1123,-3.0772,-3.0985,-3.1275,-3.1393,-3.0849,-3.0782,-3.1204,-3.1397,-3.1505,-3.1874,-3.2158,-3.2302,-3.2302,-3.2145,-3.1647,-3.1372,-3.0807,-2.9968,-2.9287,-2.8866,-2.8778,-2.8765,-2.8596,-2.855,-2.8827,-2.855,-2.8442,-2.8411,-2.8411,-2.8165,-2.798,-2.7842,-2.7611,-2.7473,-2.7565,-2.7827,-2.7857,-2.8211,-2.8268,-2.8091,-2.7671,-2.7387,-2.7033,-2.6486,-2.5704,-2.5031,-2.4268,-2.3625,-2.3595,-2.3566,-2.3523,-2.3451,-2.3378,-2.3231,-2.3187,-2.3157,-2.3112,-2.3112,-2.3023,-2.3023,-2.2992,-2.2947,-2.2947,-2.2933,-2.2902,-2.2902,-2.2857,-2.2826,-2.2781,-2.2629,-2.2491,-2.2385,-2.2231,-2.2184,-2.2137,-2.2123,-2.2016,-2.2049,-2.2049,-2.2438,-2.2634,-2.274,-2.2965,-2.3143,-2.3334,-2.3465,-2.348,-2.3436,-2.3436,-2.3465,-2.3508,-2.3595,-2.3595,-2.3595,-2.3595,-2.3758,-2.9388,-2.9565,-3.0468,-3.0932,-3.1085,-3.1195,-3.1179,-3.1053,-3.1005,-3.0894,-3.0815,-3.08,-3.08,-3.0783,-3.0656,-3.0529,-3.0655,-3.0812,-3.07,-3.0635,-3.0678,-3.0892,-3.0842,-3.0519,-3.0355,-3.1099,-3.1296,-3.1285,-3.1526,-3.1998,-3.2523,-3.2398,-3.2302,-3.1857,-3.1113,-3.0477,-2.9802,-2.8639,-2.8519,-2.8473,-2.8458,-2.8442,-2.8411,-2.8427,-2.8411,-2.8411,-2.8411,-2.8411,-2.8104,-2.758,-2.7473,-2.7211,-2.6749,-2.7149,-2.7457,-2.7626,-2.8027,-2.8332,-2.8143,-2.7753,-2.7119,-2.666,-2.6053,-2.5345,-2.4477,-2.3939,-2.3801,-2.3812,-2.3638,-2.361,-2.3653,-2.3668,-2.3494,-2.3436,-2.3392,-2.3348,-2.3319,-2.3187,-2.3157,-2.3112,-2.3068,-2.2992,-2.2947,-2.2947,-2.2902,-2.2888,-2.2902,-2.2872,-2.2735,-2.2583,-2.2431,-2.2278,-2.2356,-2.2356,-2.2388,-2.2374,-2.2466,-2.2634,-2.3039,-2.3216,-2.3275,-2.3465,-2.3754,-2.394,-2.4024,-2.394,-2.3754,-2.3754,-2.3782,-2.3653,-2.3595,-2.3638,-2.3638,-2.3638,-2.3921,-2.8541,-2.855,-3.0362,-3.1007,-3.0903,-3.139,-3.1246,-3.0808,-3.0637,-3.0378,-3.0113,-3.0041,-3.0109,-2.9984,-2.9916,-2.9822,-2.9726,-3.0022,-2.9958,-2.9816,-2.9817,-3.0227,-3.0194,-2.991,-2.9643,-3.0303,-3.0773,-3.0955,-3.1165,-3.1949,-3.2354,-3.2453,-3.2398,-3.2336,-3.1628,-3.0483,-2.9546,-2.8611,-2.8411,-2.8411,-2.8411,-2.8411,-2.8411,-2.8411,-2.8411,-2.8411,-2.8411,-2.8334,-2.7965,-2.7303,-2.7119,-2.6903,-2.6411,-2.6872,-2.718,-2.7519,-2.8027,-2.835,-2.8222,-2.7941,-2.7537,-2.6844,-2.5918,-2.4896,-2.3999,-2.4328,-2.4369,-2.417,-2.3867,-2.3894,-2.3979,-2.4036,-2.3824,-2.3824,-2.3782,-2.3653,-2.3566,-2.3363,-2.3275,-2.3275,-2.3201,-2.3127,-2.3037,-2.2992,-2.2947,-2.2888,-2.2888,-2.2857,-2.2781,-2.2644,-2.2477,-2.2417,-2.2572,-2.2649,-2.2694,-2.2785,-2.3024,-2.3143,-2.3421,-2.3537,-2.3595,-2.3882,-2.4109,-2.4109,-2.4151,-2.4067,-2.4024,-2.3982,-2.3882,-2.3696,-2.3638,-2.3696,-2.3782,-2.3839,-2.4215,-2.8143,-2.835,-2.9133,-2.9769,-3.0295,-3.048,-3.0448,-3.0312,-3.0174,-3.0045,-2.9918,-2.9918,-2.9918,-2.9874,-2.9814,-2.977,-2.9742,-2.9891,-2.9769,-2.9691,-2.9729,-2.9972,-2.9877,-2.9705,-2.9438,-3.0022,-3.0449,-3.0811,-3.1184,-3.1628,-3.2211,-3.2392,-3.2353,-3.1751,-3.1074,-3.012,-2.9089,-2.8688,-2.8427,-2.8411,-2.8411,-2.8411,-2.8411,-2.8411,-2.8411,-2.8411,-2.835,-2.798,-2.7442,-2.6903,-2.6457,-2.6118,-2.6026,-2.6534,-2.6995,-2.738,-2.798,-2.835,-2.8273,-2.7869,-2.6991,-2.5742,-2.4882,-2.4267,-2.3726,-2.4126,-2.4341,-2.4239,-2.4177,-2.4204,-2.4502,-2.441,-2.4177,-2.4245,-2.4188,-2.412,-2.3909,-2.3739,-2.361,-2.3653,-2.3407,-2.3201,-2.3127,-2.3052,-2.2992,-2.2902,-2.2902,-2.2902,-2.2857,-2.2812,-2.2752,-2.2723,-2.2889,-2.2875,-2.292,-2.3246,-2.3581,-2.3711,-2.3824,-2.3867,-2.3909,-2.4036,-2.4234,-2.4234,-2.4234,-2.4193,-2.4151,-2.4124,-2.3982,-2.3839,-2.3797,-2.3882,-2.394,-2.4024,-2.4387,-2.7758,-2.8255,-2.8288,-2.8935,-2.9858,-2.9918,-2.9918,-2.9918,-2.9891,-2.9918,-2.9918,-2.9918,-2.9918,-2.9918,-2.9918,-2.9874,-2.9874,-2.9923,-2.9891,-2.9847,-2.9778,-2.9942,-2.9948,-2.9809,-2.9619,-3.0035,-3.0307,-3.0672,-3.0909,-3.0917,-3.1424,-3.1877,-3.2089,-3.1409,-3.0797,-2.9458,-2.8719,-2.8688,-2.8488,-2.8596,-2.8658,-2.8504,-2.8411,-2.8411,-2.8411,-2.8411,-2.8227,-2.7857,-2.7319,-2.6749,-2.6226,-2.5656,-2.5733,-2.6103,-2.6718,-2.7257,-2.7827,-2.835,-2.8196,-2.7394,-2.6443,-2.5546,-2.4876,-2.4319,-2.4028,-2.4342,-2.4922,-2.4695,-2.4599,-2.4639,-2.502,-2.4863,-2.4679,-2.4704,-2.4808,-2.4688,-2.4461,-2.4256,-2.4147,-2.4063,-2.3852,-2.3767,-2.3739,-2.3696,-2.3305,-2.3127,-2.2902,-2.3023,-2.3187,-2.3142,-2.3127,-2.3157,-2.329,-2.3231,-2.3187,-2.3595,-2.3925,-2.3967,-2.4094,-2.4135,-2.4219,-2.4302,-2.4302,-2.4261,-2.4276,-2.4276,-2.425,-2.4208,-2.4124,-2.4024,-2.4024,-2.4024,-2.4067,-2.4124,-2.4346,-2.7408,-2.824,-2.8288,-2.8919,-2.9874,-2.9918,-2.9918,-2.9918,-2.9918,-2.9918,-2.9918,-2.9918,-2.9918,-2.9918,-2.9918,-2.9918,-2.9918,-2.9918,-2.9918,-2.9874,-2.9874,-2.9907,-2.9923,-2.9851,-2.9806,-3.0069,-3.0335,-3.0523,-3.0607,-3.0655,-3.0948,-3.131,-3.1546,-3.1303,-3.1211,-3.0079,-2.9412,-2.9258,-2.874,-2.8863,-2.8987,-2.866,-2.8442,-2.8411,-2.8411,-2.8411,-2.8258,-2.775,-2.7257,-2.6903,-2.6472,-2.598,-2.5656,-2.6549,-2.6934,-2.6902,-2.7797,-2.8321,-2.8352,-2.7026,-2.6367,-2.5834,-2.5131,-2.4637,-2.4575,-2.5004,-2.5512,-2.513,-2.5059,-2.5121,-2.5313,-2.5427,-2.5198,-2.5214,-2.5291,-2.5198,-2.4926,-2.4664,-2.4502,-2.442,-2.4583,-2.4648,-2.4567,-2.4379,-2.3797,-2.3437,-2.3037,-2.3112,-2.3436,-2.3566,-2.3508,-2.3595,-2.3724,-2.3724,-2.3709,-2.4021,-2.4261,-2.4261,-2.4261,-2.4261,-2.4302,-2.4302,-2.4302,-2.4302,-2.4333,-2.4322,-2.4364,-2.4364,-2.4269,-2.4216,-2.4181,-2.4166,-2.4208,-2.4223,-2.4372,-2.6991,-2.8288,-2.8288,-2.8935,-2.983,-2.9918,-2.9918,-2.9918,-2.9918,-2.9918,-2.9918,-2.9918,-2.9918,-2.9918,-2.9918,-2.9918,-2.9918,-2.9918,-2.9918,-2.9918,-2.9918,-2.9918,-2.9918,-2.9918,-2.9918,-2.9967,-3.0214,-3.0558,-3.0806,-3.0512,-3.1198,-3.1741,-3.1694,-3.139,-3.1071,-3.0433,-3.0225,-2.9687,-2.92,-2.8983,-2.9139,-2.8761,-2.8444,-2.8493,-2.8493,-2.8493,-2.8446,-2.786,-2.7411,-2.7133,-2.6715,-2.6437,-2.613,-2.6902,-2.7256,-2.7623,-2.8544,-2.8586,-2.8726,-2.8205,-2.7083,-2.6271,-2.5308,-2.4744,-2.4462,-2.4851,-2.5203,-2.547,-2.5443,-2.5519,-2.5848,-2.5577,-2.5481,-2.5701,-2.5738,-2.5481,-2.5237,-2.4981,-2.4784,-2.4744,-2.4823,-2.5219,-2.5305,-2.5178,-2.4658,-2.4403,-2.4134,-2.3827,-2.4036,-2.4051,-2.4036,-2.4063,-2.4105,-2.4147,-2.4271,-2.4369,-2.4343,-2.4302,-2.4261,-2.4302,-2.4302,-2.4302,-2.4302,-2.4343,-2.4364,-2.441,-2.4548,-2.4656,-2.4537,-2.448,-2.4449,-2.4326,-2.4234,-2.4276,-2.4307,-2.6757,-2.7677,-2.7954,-2.8482,-2.9271,-2.9701,-2.9918,-2.9918,-2.9918,-2.9918,-2.9918,-2.9918,-2.9918,-2.9918,-2.9918,-2.9918,-2.9918,-2.9918,-2.9918,-2.9918,-2.9918,-2.9918,-2.9918,-2.9918,-2.9918,-2.9967,-3.015,-3.0474,-3.0461,-3.0041,-3.079,-3.1938,-3.2354,-3.1987,-3.1434,-3.0887,-3.038,-2.9971,-2.9742,-2.9523,-2.9543,-2.9295,-2.8936,-2.8982,-2.8936,-2.8936,-2.8685,-2.8278,-2.776,-2.7478,-2.7321,-2.718,-2.7165,-2.7404,-2.7913,-2.8545,-2.8994,-2.9079,-2.9299,-2.8897,-2.7882,-2.73,-2.5679,-2.4984,-2.5026,-2.5416,-2.5562,-2.5742,-2.5742,-2.5885,-2.6063,-2.5758,-2.5848,-2.6079,-2.599,-2.5758,-2.5647,-2.5422,-2.5346,-2.5307,-2.5317,-2.5678,-2.6023,-2.5831,-2.5568,-2.5424,-2.5305,-2.4939,-2.4549,-2.4508,-2.4549,-2.463,-2.4614,-2.4614,-2.4574,-2.4533,-2.4467,-2.4302,-2.4302,-2.4343,-2.4343,-2.4385,-2.4385,-2.4374,-2.4467,-2.4621,-2.4872,-2.4995,-2.5149,-2.5041,-2.4783,-2.4599,-2.4379,-2.4364,-2.441,-2.6703,-2.6662,-2.72,-2.773,-2.8237,-2.9331,-2.9874,-2.9918,-2.9918,-2.9918,-2.9918,-2.9918,-2.9918,-2.9918,-2.9918,-2.9918,-2.9918,-2.9918,-2.9918,-2.9918,-2.9918,-2.9918,-2.9918,-2.9918,-2.9918,-3.0101,-3.0308,-3.0347,-3.0092,-3.0675,-3.138,-3.1812,-3.2364,-3.2176,-3.1633,-3.0931,-3.0489,-3.0462,-3.0201,-3.0097,-3.0154,-2.9919,-2.9592,-2.9544,-2.9544,-2.9544,-2.9396,-2.9042,-2.9081,-2.8984,-2.8963,-2.8763,-2.8759,-2.8978,-2.8918,-2.9044,-2.9432,-2.9821,-2.9723,-2.9153,-2.8923,-2.8349,-2.7219,-2.6591,-2.6133,-2.6005,-2.597,-2.6066,-2.6154,-2.6151,-2.6168,-2.6151,-2.6151,-2.6187,-2.6187,-2.6099,-2.6115,-2.6043,-2.6043,-2.599,-2.599,-2.6266,-2.67,-2.6635,-2.5972,-2.6092,-2.5853,-2.5305,-2.4989,-2.495,-2.5029,-2.524,-2.5201,-2.5107,-2.5029,-2.4846,-2.471,-2.4605,-2.4508,-2.4508,-2.4508,-2.4616,-2.4828,-2.4891,-2.4689,-2.4848,-2.5416,-2.5759,-2.6008,-2.5808,-2.5632,-2.5376,-2.5296,-2.4718,-2.4706,-2.6026,-2.5991,-2.6606,-2.7157,-2.7736,-2.8835,-2.9531,-2.9858,-2.9918,-2.9918,-2.9918,-2.9918,-2.9886,-2.9918,-2.9918,-2.9918,-2.9902,-2.9918,-2.9918,-2.9918,-2.9918,-2.9918,-2.9918,-2.9918,-2.9918,-3.0027,-3.0212,-3.0473,-3.0514,-3.1248,-3.1383,-3.1282,-3.221,-3.2195,-3.1725,-3.1076,-3.1048,-3.0883,-3.0551,-3.0523,-3.0494,-3.0185,-2.9968,-2.9924,-2.9924,-2.9924,-2.9794,-2.9713,-2.9599,-2.9085,-2.9416,-2.9221,-2.8077,-2.8543,-2.8881,-2.9403,-3.0061,-3.0613,-3.0116,-2.9996,-2.9716,-2.9123,-2.8171,-2.7541,-2.6929,-2.6434,-2.6239,-2.6312,-2.6399,-2.638,-2.6345,-2.6345,-2.6329,-2.6293,-2.6293,-2.6241,-2.6222,-2.6203,-2.6203,-2.6236,-2.6236,-2.6601,-2.7098,-2.6644,-2.6091,-2.6401,-2.6298,-2.5702,-2.5378,-2.5301,-2.5317,-2.5524,-2.5524,-2.5371,-2.531,-2.5171,-2.5021,-2.4886,-2.4829,-2.4836,-2.4901,-2.5058,-2.5372,-2.5738,-2.6049,-2.6072,-2.6165,-2.6632,-2.7269,-2.7016,-2.6823,-2.6476,-2.6171,-2.5775,-2.5687,-2.5233,-2.5035,-2.5612,-2.6447,-2.7489,-2.8369,-2.901,-2.9442,-2.9789,-2.9918,-2.9918,-2.9918,-2.974,-2.9513,-2.9724,-2.9772,-2.948,-2.9805,-2.9918,-2.9918,-2.9886,-2.9918,-2.9918,-2.9918,-2.9918,-3.0038,-3.0256,-3.0522,-3.0667,-3.1237,-3.1546,-3.1805,-3.2372,-3.2128,-3.1902,-3.1681,-3.1444,-3.1246,-3.0958,-3.0821,-3.0617,-3.0477,-3.041,-3.0326,-3.0326,-3.0309,-3.0309,-3.0309,-2.993,-2.9428,-2.984,-2.9411,-2.852,-2.894,-2.8911,-2.9459,-3.0325,-3.0314,-2.9892,-3.0079,-2.9794,-2.9287,-2.8531,-2.7931,-2.7308,-2.6762,-2.6549,-2.6468,-2.6468,-2.6485,-2.6485,-2.6485,-2.6434,-2.6382,-2.6347,-2.626,-2.6241,-2.6239,-2.6236,-2.627,-2.6501,-2.6833,-2.6825,-2.636,-2.6216,-2.6531,-2.6374,-2.5821,-2.5562,-2.5486,-2.5486,-2.5578,-2.5578,-2.5486,-2.5474,-2.5493,-2.5353,-2.5314,-2.5368,-2.5368,-2.5377,-2.5876,-2.6504,-2.717,-2.7742,-2.7666,-2.7512,-2.8152,-2.8684,-2.8352,-2.8239,-2.8338,-2.8059,-2.7548,-2.7597,-2.4471,-2.3909,-2.4486,-2.5634,-2.7088,-2.7637,-2.8144,-2.8688,-2.9265,-2.9664,-2.9632,-2.9648,-2.9302,-2.9081,-2.9389,-2.9437,-2.9383,-2.9578,-2.9789,-2.987,-2.9675,-2.9708,-2.9886,-2.9918,-2.9946,-3.0173,-3.0419,-3.0714,-3.07,-3.1196,-3.1944,-3.2681,-3.2461,-3.2212,-3.2026,-3.197,-3.1698,-3.1286,-3.1196,-3.1117,-3.1134,-3.1134,-3.119,-3.1112,-3.1095,-3.1095,-3.1095,-3.1033,-3.0869,-3.0446,-3.0002,-2.9711,-2.9387,-2.9168,-2.8946,-2.9309,-3.0174,-2.9884,-2.9567,-2.9677,-2.9492,-2.8952,-2.8247,-2.7904,-2.7463,-2.6907,-2.6639,-2.6555,-2.6572,-2.6572,-2.6572,-2.6572,-2.6521,-2.6452,-2.6382,-2.6312,-2.6258,-2.6239,-2.622,-2.627,-2.6452,-2.675,-2.6713,-2.6282,-2.6106,-2.6503,-2.6559,-2.6005,-2.5848,-2.5826,-2.5745,-2.5729,-2.5594,-2.5621,-2.5809,-2.5773,-2.571,-2.5704,-2.5878,-2.5854,-2.5854,-2.6691,-2.7759,-2.8534,-2.9262,-2.9075,-2.906,-2.9374,-2.9468,-2.9515,-2.9593,-3.0133,-2.9975,-2.9407,-2.9418,-2.4134,-2.3238,-2.3862,-2.44,-2.4904,-2.6168,-2.6787,-2.698,-2.7859,-2.8262,-2.8259,-2.8294,-2.8472,-2.8694,-2.8919,-2.9032,-2.9399,-2.9032,-2.9432,-2.947,-2.9372,-2.9518,-2.9793,-2.9918,-3.0017,-3.0274,-3.0626,-3.1015,-3.123,-3.1538,-3.1668,-3.1909,-3.1901,-3.1876,-3.1759,-3.1742,-3.1589,-3.1334,-3.1295,-3.1274,-3.1291,-3.123,-3.119,-3.119,-3.119,-3.119,-3.119,-3.1157,-3.1106,-3.092,-3.0362,-2.977,-2.9093,-2.8653,-2.86,-2.8949,-2.9644,-2.9364,-2.8924,-2.9008,-2.9127,-2.8501,-2.7892,-2.7857,-2.7552,-2.7012,-2.6708,-2.6691,-2.6691,-2.6657,-2.6657,-2.6607,-2.6607,-2.6521,-2.6434,-2.6345,-2.6274,-2.6239,-2.6203,-2.6303,-2.6419,-2.6432,-2.6412,-2.6323,-2.62,-2.6302,-2.6635,-2.6542,-2.6432,-2.6361,-2.6134,-2.6037,-2.5713,-2.5724,-2.6057,-2.6308,-2.6326,-2.6455,-2.6696,-2.6559,-2.6525,-2.7917,-2.939,-3.0144,-3.0688,-3.0386,-3.002,-2.9667,-2.9809,-3.008,-3.0638,-3.107,-3.1628,-3.1369,-3.1404,-2.354,-2.3006,-2.3523,-2.4059,-2.4672,-2.5731,-2.6275,-2.6546,-2.7033,-2.7082,-2.6937,-2.7389,-2.7793,-2.8043,-2.8158,-2.8271,-2.8611,-2.8401,-2.8741,-2.9,-2.9178,-2.9389,-2.9643,-2.987,-3.0087,-3.0309,-3.0804,-3.1235,-3.1596,-3.1763,-3.1763,-3.1671,-3.1634,-3.1542,-3.1428,-3.15,-3.15,-3.1411,-3.1372,-3.1351,-3.1351,-3.1252,-3.119,-3.119,-3.119,-3.119,-3.119,-3.1157,-3.097,-3.0446,-2.96,-2.8991,-2.8416,-2.8146,-2.7909,-2.8197,-2.8653,-2.8958,-2.8213,-2.8213,-2.8636,-2.7841,-2.7368,-2.7266,-2.7198,-2.6708,-2.6725,-2.6674,-2.6674,-2.6674,-2.6674,-2.6674,-2.6623,-2.6572,-2.6468,-2.6415,-2.6274,-2.6203,-2.6203,-2.6236,-2.6267,-2.6267,-2.6211,-2.6158,-2.6069,-2.6036,-2.6368,-2.6812,-2.6805,-2.7025,-2.6766,-2.6571,-2.6409,-2.6474,-2.6904,-2.7098,-2.713,-2.73,-2.7494,-2.8369,-2.8957,-2.996,-3.1059,-3.1565,-3.1758,-3.147,-3.1101,-3.0394,-3.0248,-3.0551,-3.1209,-3.1854,-3.2416,-3.278,-3.2434,-2.2917,-2.2978,-2.3319,-2.404,-2.5001,-2.5571,-2.5957,-2.6302,-2.6516,-2.6231,-2.5885,-2.6911,-2.703,-2.7118,-2.7241,-2.7097,-2.7235,-2.7786,-2.8239,-2.8709,-2.8838,-2.9097,-2.9432,-2.9691,-2.9868,-3.0476,-3.1128,-3.1291,-3.1504,-3.1671,-3.18,-3.1746,-3.1709,-3.1617,-3.1614,-3.1576,-3.1559,-3.1504,-3.1466,-3.1428,-3.1368,-3.1308,-3.123,-3.119,-3.119,-3.119,-3.119,-3.1089,-3.0784,-3.0192,-2.9296,-2.8569,-2.8095,-2.784,-2.7402,-2.7537,-2.8146,-2.7943,-2.7402,-2.7791,-2.7554,-2.7063,-2.6843,-2.6793,-2.681,-2.6725,-2.6708,-2.6708,-2.6708,-2.6725,-2.6725,-2.6708,-2.6657,-2.6572,-2.6468,-2.6415,-2.6274,-2.6236,-2.6253,-2.6253,-2.6234,-2.6198,-2.6191,-2.6138,-2.6016,-2.5966,-2.6265,-2.6682,-2.7113,-2.7583,-2.7713,-2.7664,-2.7599,-2.7745,-2.785,-2.7705,-2.7672,-2.8158,-2.8547,-3.0036,-3.1154,-3.1348,-3.1835,-3.2675,-3.2755,-3.2112,-3.1612,-3.0967,-3.0949,-3.0814,-3.1172,-3.1706,-3.2385,-3.2658,-3.2608,-2.2888,-2.2888,-2.2978,-2.3185,-2.3555,-2.4292,-2.4653,-2.4873,-2.5557,-2.5729,-2.5745,-2.5826,-2.615,-2.6685,-2.6766,-2.6895,-2.7284,-2.7575,-2.8109,-2.8709,-2.8556,-2.8799,-2.9036,-2.9153,-2.9428,-3.0179,-3.1159,-3.1994,-3.1514,-3.1588,-3.1746,-3.1654,-3.1746,-3.1688,-3.1576,-3.1576,-3.1688,-3.1634,-3.1579,-3.1542,-3.1483,-3.1368,-3.123,-3.119,-3.119,-3.119,-3.119,-3.119,-3.1123,-3.0768,-3.0023,-2.8941,-2.8195,-2.7739,-2.7283,-2.7046,-2.7655,-2.7452,-2.7249,-2.7723,-2.7503,-2.6894,-2.6826,-2.7063,-2.6962,-2.6708,-2.6708,-2.6708,-2.6725,-2.6776,-2.6776,-2.6708,-2.664,-2.6503,-2.638,-2.631,-2.6203,-2.6352,-2.6468,-2.6518,-2.6568,-2.6607,-2.6709,-2.6508,-2.6106,-2.6271,-2.6772,-2.7187,-2.7632,-2.8086,-2.8475,-2.8575,-2.8558,-2.8679,-2.8621,-2.8199,-2.8183,-2.8767,-2.9686,-3.1206,-3.202,-3.185,-3.2433,-3.3437,-3.2999,-3.2156,-3.1702,-3.1372,-3.092,-3.0766,-3.0875,-3.1269,-3.2109,-3.2514,-3.245]}]]